[[{"header":{"parameterUnit":"m.s-1","parameterCategory":1,"la1":30.6,"la2":29.2853,"lo1":-89.7004,"lo2":-87.6739,"dy":0.0162,"dx":0.0183,"nx":112,"ny":82,"refTime":"2024-04-24T12:00:00:Z","depth":0,"parameterNumber":2,"parameterNumberName":"U-component_of_WINDS"},"data":[0.0,0.0,0.0,0.0,0.0,0.0,0.0,0.0,0.0,0.0,0.0,0.0,0.0,0.0,0.0,0.0,0.0,0.0,0.0,0.0,0.0,0.0,0.0,0.0,0.0,0.0,0.0,0.0,0.0,0.0,0.0,0.0,0.0,0.0,0.0,0.0,0.0,0.0,0.0,0.0,0.0,0.0,0.0,0.0,0.0,0.0,0.0,0.0,0.0,0.0,0.0,0.0,0.0,0.0,0.0,0.0,0.0,0.0,0.0,0.0,0.0,0.0,0.0,0.0,0.0,0.0,0.0,0.0,0.0,0.0,0.0,0.0,0.0,0.0,0.0,0.0,0.0,0.0,0.0,0.0,0.0,0.0,0.0,0.0,0.0,0.0,0.0,0.0,0.0,0.0,0.0,-1.8252,-1.7451,-1.6908,-1.6908,-1.6908,-1.6908,-1.6908,0.0,0.0,0.0,0.0,0.0,0.0,0.0,0.0,0.0,0.0,0.0,0.0,0.0,0.0,0.0,0.0,0.0,0.0,0.0,0.0,0.0,0.0,0.0,0.0,0.0,0.0,0.0,0.0,0.0,0.0,0.0,0.0,0.0,0.0,0.0,0.0,0.0,0.0,0.0,0.0,0.0,0.0,0.0,0.0,0.0,0.0,0.0,0.0,0.0,0.0,0.0,0.0,0.0,0.0,0.0,0.0,0.0,0.0,0.0,0.0,0.0,0.0,0.0,0.0,0.0,0.0,0.0,0.0,0.0,0.0,0.0,0.0,0.0,0.0,0.0,0.0,0.0,0.0,0.0,0.0,0.0,0.0,0.0,0.0,0.0,0.0,0.0,0.0,0.0,0.0,0.0,0.0,0.0,0.0,0.0,0.0,0.0,0.0,0.0,0.0,0.0,0.0,0.0,0.0,-1.9284,-1.8164,-1.737,-1.6908,-1.6908,-1.6908,-1.6908,-1.6908,0.0,0.0,0.0,0.0,0.0,0.0,0.0,0.0,0.0,0.0,0.0,0.0,0.0,0.0,0.0,0.0,0.0,0.0,0.0,0.0,0.0,0.0,0.0,0.0,0.0,0.0,0.0,0.0,0.0,0.0,0.0,0.0,0.0,0.0,0.0,0.0,0.0,0.0,0.0,0.0,0.0,0.0,0.0,0.0,0.0,0.0,0.0,0.0,0.0,0.0,0.0,0.0,0.0,0.0,0.0,0.0,0.0,0.0,0.0,0.0,0.0,0.0,0.0,0.0,0.0,0.0,0.0,0.0,0.0,0.0,0.0,0.0,0.0,0.0,0.0,0.0,0.0,0.0,0.0,0.0,0.0,0.0,0.0,0.0,0.0,0.0,0.0,0.0,0.0,0.0,0.0,0.0,0.0,0.0,0.0,0.0,0.0,0.0,0.0,0.0,0.0,0.0,0.0,-1.9337,-1.8967,-1.7535,-1.7107,-1.6908,-1.6908,-1.6908,-1.6908,-1.6908,-1.6908,0.0,0.0,0.0,0.0,0.0,0.0,0.0,0.0,0.0,0.0,0.0,0.0,0.0,0.0,0.0,0.0,0.0,0.0,0.0,0.0,0.0,0.0,0.0,0.0,0.0,0.0,0.0,0.0,0.0,0.0,0.0,0.0,0.0,0.0,0.0,0.0,0.0,0.0,0.0,0.0,0.0,0.0,0.0,0.0,0.0,0.0,0.0,0.0,0.0,0.0,0.0,0.0,0.0,0.0,0.0,0.0,0.0,0.0,0.0,0.0,0.0,0.0,0.0,0.0,0.0,0.0,0.0,0.0,0.0,0.0,0.0,0.0,0.0,0.0,0.0,0.0,0.0,0.0,0.0,0.0,0.0,0.0,0.0,0.0,0.0,0.0,0.0,0.0,0.0,0.0,0.0,0.0,0.0,0.0,0.0,0.0,0.0,0.0,0.0,0.0,0.0,0.0,-1.8811,-1.8172,-1.7279,-1.7003,-1.6908,-1.6908,-1.6908,-1.6908,-1.6908,-1.6908,0.0,0.0,0.0,0.0,0.0,0.0,0.0,0.0,0.0,0.0,0.0,0.0,0.0,0.0,0.0,0.0,0.0,0.0,0.0,0.0,0.0,0.0,0.0,0.0,0.0,0.0,0.0,0.0,0.0,0.0,0.0,0.0,0.0,0.0,0.0,0.0,0.0,0.0,0.0,0.0,0.0,0.0,0.0,0.0,0.0,0.0,0.0,0.0,0.0,0.0,0.0,0.0,0.0,0.0,0.0,0.0,0.0,0.0,0.0,0.0,0.0,0.0,0.0,0.0,0.0,0.0,0.0,0.0,0.0,0.0,0.0,0.0,0.0,0.0,0.0,0.0,0.0,0.0,0.0,0.0,0.0,0.0,0.0,0.0,0.0,0.0,0.0,0.0,0.0,0.0,0.0,0.0,0.0,0.0,0.0,0.0,0.0,0.0,0.0,0.0,0.0,0.0,-1.8273,-1.727,-1.7867,-1.7304,-1.6908,-1.6908,-1.6908,-1.6908,-1.6908,-1.6908,0.0,0.0,0.0,0.0,0.0,0.0,0.0,0.0,0.0,0.0,0.0,0.0,0.0,0.0,0.0,0.0,0.0,0.0,0.0,0.0,0.0,0.0,0.0,0.0,0.0,0.0,0.0,0.0,0.0,0.0,0.0,0.0,0.0,0.0,0.0,0.0,0.0,0.0,0.0,0.0,0.0,0.0,0.0,0.0,0.0,0.0,0.0,0.0,0.0,0.0,0.0,0.0,0.0,0.0,0.0,0.0,0.0,0.0,0.0,0.0,0.0,0.0,0.0,0.0,0.0,0.0,0.0,0.0,0.0,0.0,0.0,0.0,0.0,0.0,0.0,0.0,0.0,0.0,0.0,0.0,0.0,0.0,0.0,0.0,0.0,0.0,0.0,0.0,0.0,0.0,0.0,0.0,0.0,0.0,0.0,0.0,0.0,0.0,0.0,0.0,0.0,0.0,-1.8432,-1.7501,0.0,-1.7072,-1.6908,-1.6908,-1.6908,-1.6908,-1.6908,0.0,0.0,0.0,0.0,0.0,0.0,0.0,0.0,0.0,0.0,0.0,0.0,0.0,0.0,0.0,0.0,0.0,0.0,0.0,0.0,0.0,0.0,0.0,0.0,0.0,0.0,0.0,0.0,0.0,0.0,0.0,0.0,0.0,0.0,0.0,0.0,0.0,0.0,0.0,0.0,0.0,0.0,0.0,0.0,0.0,0.0,0.0,0.0,0.0,0.0,0.0,0.0,0.0,0.0,0.0,0.0,0.0,0.0,0.0,0.0,0.0,0.0,0.0,0.0,0.0,0.0,0.0,0.0,0.0,0.0,0.0,0.0,0.0,0.0,0.0,0.0,0.0,0.0,0.0,0.0,0.0,0.0,0.0,0.0,0.0,0.0,0.0,0.0,0.0,0.0,0.0,0.0,0.0,0.0,0.0,0.0,0.0,0.0,0.0,0.0,0.0,0.0,-1.9562,-1.8432,-1.7535,0.0,-1.7038,-1.6908,-1.6908,-1.6908,-1.6908,-1.6908,0.0,0.0,0.0,0.0,0.0,0.0,0.0,0.0,0.0,0.0,0.0,0.0,0.0,0.0,0.0,0.0,0.0,0.0,0.0,0.0,0.0,0.0,0.0,0.0,0.0,0.0,0.0,0.0,0.0,0.0,0.0,0.0,0.0,0.0,0.0,0.0,0.0,0.0,0.0,0.0,0.0,0.0,0.0,0.0,0.0,0.0,0.0,0.0,0.0,0.0,0.0,0.0,0.0,0.0,0.0,0.0,0.0,0.0,0.0,0.0,0.0,0.0,0.0,0.0,0.0,0.0,0.0,0.0,0.0,0.0,0.0,0.0,0.0,0.0,0.0,0.0,0.0,0.0,0.0,0.0,0.0,0.0,0.0,0.0,0.0,0.0,0.0,0.0,0.0,0.0,0.0,0.0,0.0,0.0,0.0,0.0,0.0,0.0,0.0,0.0,0.0,0.0,-2.002,-1.8259,-1.7185,-1.792,-1.7348,-1.6908,-1.6908,-1.6908,-1.6908,0.0,0.0,0.0,0.0,0.0,0.0,0.0,0.0,0.0,0.0,0.0,0.0,0.0,0.0,0.0,0.0,0.0,0.0,0.0,0.0,0.0,0.0,0.0,0.0,0.0,0.0,0.0,0.0,0.0,0.0,0.0,0.0,0.0,0.0,0.0,0.0,0.0,0.0,0.0,0.0,0.0,0.0,0.0,0.0,0.0,0.0,0.0,0.0,0.0,0.0,0.0,0.0,0.0,0.0,0.0,0.0,0.0,0.0,0.0,0.0,0.0,0.0,0.0,0.0,0.0,0.0,0.0,0.0,0.0,0.0,0.0,0.0,0.0,0.0,0.0,0.0,0.0,0.0,0.0,0.0,0.0,0.0,0.0,0.0,0.0,0.0,0.0,0.0,0.0,0.0,0.0,0.0,0.0,0.0,0.0,0.0,0.0,0.0,0.0,0.0,0.0,0.0,0.0,-2.0371,-1.8877,-1.787,-1.825,-1.7817,-1.7517,-1.7517,-1.7274,-1.7038,-1.6908,0.0,0.0,0.0,0.0,0.0,0.0,0.0,0.0,0.0,0.0,0.0,0.0,0.0,0.0,0.0,0.0,0.0,0.0,0.0,0.0,0.0,0.0,0.0,0.0,0.0,0.0,0.0,0.0,0.0,0.0,0.0,0.0,0.0,0.0,0.0,0.0,0.0,0.0,0.0,0.0,0.0,0.0,0.0,0.0,0.0,0.0,0.0,0.0,0.0,0.0,0.0,0.0,0.0,0.0,0.0,0.0,0.0,0.0,0.0,0.0,0.0,0.0,0.0,0.0,0.0,0.0,0.0,0.0,0.0,0.0,0.0,0.0,0.0,0.0,0.0,0.0,0.0,0.0,0.0,0.0,0.0,0.0,0.0,0.0,0.0,0.0,0.0,0.0,0.0,0.0,0.0,0.0,0.0,0.0,0.0,0.0,0.0,0.0,0.0,0.0,0.0,0.0,-2.0688,-1.933,-1.8406,-1.8507,-1.8292,-1.8115,-1.8043,-1.7881,-1.7696,-1.7394,0.0,0.0,0.0,0.0,0.0,0.0,0.0,0.0,0.0,0.0,0.0,0.0,0.0,0.0,0.0,0.0,0.0,0.0,0.0,0.0,0.0,0.0,0.0,0.0,0.0,0.0,0.0,0.0,0.0,0.0,0.0,0.0,0.0,0.0,0.0,0.0,0.0,0.0,0.0,0.0,0.0,0.0,0.0,0.0,0.0,0.0,0.0,0.0,0.0,0.0,0.0,0.0,0.0,0.0,0.0,0.0,0.0,0.0,0.0,0.0,0.0,0.0,0.0,0.0,0.0,0.0,0.0,0.0,0.0,0.0,0.0,0.0,0.0,0.0,0.0,0.0,0.0,0.0,0.0,0.0,0.0,0.0,0.0,0.0,0.0,0.0,0.0,0.0,0.0,0.0,0.0,0.0,0.0,0.0,0.0,0.0,0.0,0.0,0.0,0.0,0.0,0.0,-2.1069,-1.9776,-1.8805,-1.8842,-1.8804,-1.8712,-1.8536,-1.8637,-1.8544,-1.8156,0.0,0.0,0.0,0.0,0.0,0.0,0.0,0.0,0.0,0.0,0.0,0.0,0.0,0.0,0.0,0.0,0.0,0.0,0.0,0.0,0.0,0.0,0.0,0.0,0.0,0.0,0.0,0.0,0.0,0.0,0.0,0.0,0.0,0.0,0.0,0.0,0.0,0.0,0.0,0.0,0.0,0.0,0.0,0.0,0.0,0.0,0.0,0.0,0.0,0.0,0.0,0.0,0.0,0.0,0.0,0.0,0.0,0.0,0.0,0.0,-2.1658,0.0,0.0,0.0,0.0,0.0,0.0,0.0,0.0,0.0,0.0,0.0,0.0,0.0,0.0,0.0,0.0,0.0,0.0,0.0,0.0,0.0,0.0,0.0,0.0,0.0,0.0,0.0,0.0,0.0,0.0,0.0,0.0,0.0,0.0,0.0,0.0,0.0,0.0,0.0,0.0,0.0,-2.1834,-2.0569,-1.9715,-1.9947,-1.9611,-1.942,-1.9429,-1.9002,-1.8618,-1.8332,-1.8147,0.0,0.0,0.0,0.0,0.0,0.0,0.0,0.0,0.0,0.0,0.0,0.0,0.0,0.0,0.0,0.0,0.0,0.0,0.0,0.0,0.0,0.0,0.0,0.0,0.0,0.0,0.0,0.0,0.0,0.0,0.0,0.0,0.0,0.0,0.0,0.0,0.0,0.0,0.0,0.0,0.0,0.0,0.0,0.0,0.0,0.0,0.0,0.0,0.0,0.0,0.0,0.0,0.0,0.0,0.0,0.0,0.0,0.0,0.0,0.0,-2.2568,0.0,0.0,0.0,0.0,0.0,0.0,0.0,0.0,0.0,0.0,0.0,0.0,0.0,0.0,0.0,0.0,0.0,0.0,0.0,0.0,0.0,0.0,0.0,0.0,0.0,0.0,0.0,0.0,0.0,0.0,0.0,0.0,0.0,0.0,0.0,0.0,0.0,0.0,0.0,0.0,-2.2478,-2.1193,-2.0294,-2.0411,-2.0217,-2.0053,-1.9976,-1.9764,-1.9449,-1.9002,-1.8778,0.0,0.0,0.0,0.0,0.0,0.0,0.0,0.0,0.0,0.0,0.0,0.0,0.0,0.0,0.0,0.0,0.0,0.0,0.0,0.0,0.0,0.0,0.0,0.0,0.0,0.0,0.0,0.0,0.0,0.0,0.0,0.0,0.0,0.0,0.0,0.0,0.0,0.0,0.0,0.0,0.0,0.0,0.0,0.0,0.0,0.0,0.0,0.0,0.0,0.0,0.0,0.0,0.0,-2.3806,-2.3806,-2.3806,-2.389,-2.3926,-2.3905,-2.3732,-2.3706,-2.3773,0.0,0.0,0.0,0.0,0.0,0.0,0.0,0.0,0.0,0.0,0.0,0.0,0.0,0.0,0.0,0.0,0.0,0.0,0.0,0.0,0.0,0.0,0.0,0.0,0.0,-2.4754,-2.5013,0.0,0.0,0.0,0.0,0.0,0.0,0.0,0.0,0.0,0.0,0.0,0.0,-2.2708,-2.151,-2.0605,-2.0605,-2.0605,-2.0527,-2.0381,-2.0459,-2.0294,-1.9764,-1.9513,-1.9248,0.0,0.0,0.0,0.0,0.0,0.0,0.0,0.0,0.0,0.0,0.0,0.0,0.0,0.0,0.0,0.0,0.0,0.0,0.0,0.0,0.0,0.0,0.0,0.0,0.0,0.0,0.0,0.0,0.0,0.0,0.0,0.0,-2.1993,-2.1993,0.0,0.0,0.0,0.0,0.0,0.0,0.0,0.0,0.0,0.0,0.0,0.0,0.0,-2.3806,-2.3806,-2.3806,-2.3806,-2.3806,-2.3806,-2.3806,-2.3818,-2.4218,-2.4422,-2.4446,-2.4833,0.0,-2.3806,-2.3739,0.0,0.0,0.0,0.0,0.0,0.0,0.0,0.0,0.0,0.0,0.0,0.0,0.0,0.0,0.0,0.0,0.0,0.0,0.0,0.0,0.0,0.0,-2.5098,-2.498,-2.5122,-2.524,0.0,-2.4944,-2.4814,-2.4661,-2.4803,0.0,0.0,0.0,0.0,0.0,0.0,0.0,-2.1797,-2.1069,-2.0605,-2.0605,-2.0605,-2.0605,-2.0566,-2.042,-2.0303,-2.0225,-1.9972,-1.9709,-1.9483,-1.9113,0.0,0.0,0.0,0.0,0.0,0.0,0.0,0.0,0.0,0.0,0.0,0.0,0.0,0.0,0.0,0.0,0.0,0.0,0.0,0.0,0.0,0.0,0.0,0.0,0.0,0.0,0.0,0.0,0.0,-2.2306,-2.263,-2.263,-2.2927,-2.3204,0.0,0.0,0.0,0.0,0.0,0.0,0.0,0.0,0.0,-2.4194,-2.4482,-2.4626,-2.4626,-2.4626,-2.4626,-2.4626,-2.4626,-2.4795,-2.5083,-2.5312,-2.5576,-2.5853,-2.6081,-2.5973,-2.5504,-2.4891,-2.4626,-2.4626,0.0,0.0,0.0,0.0,-2.5445,-2.58,-2.5861,-2.5847,0.0,-2.5796,0.0,0.0,0.0,0.0,0.0,0.0,0.0,0.0,0.0,0.0,-2.603,-2.6116,-2.6152,-2.6189,-2.6189,-2.6152,-2.5912,0.0,-2.5385,-2.5625,-2.5564,0.0,0.0,0.0,0.0,-2.4236,-2.3903,-2.2817,-2.2078,-2.2078,-2.1392,-2.0937,-2.0937,-2.0635,-2.042,-2.0303,-2.0069,-1.9833,-1.9597,-1.9332,-1.9114,0.0,0.0,0.0,0.0,0.0,0.0,0.0,0.0,0.0,0.0,0.0,0.0,0.0,0.0,0.0,0.0,0.0,0.0,0.0,0.0,0.0,0.0,0.0,0.0,0.0,0.0,0.0,0.0,-2.2963,-2.3216,-2.3216,-2.3565,-2.3854,0.0,0.0,0.0,0.0,0.0,0.0,-2.4191,-2.4518,-2.4688,-2.4688,-2.524,-2.5516,-2.5516,-2.5648,-2.5721,-2.5721,-2.5721,-2.5937,-2.631,-2.631,-2.6538,-2.6898,-2.6898,-2.697,-2.7018,-2.6117,-2.5721,-2.5721,-2.5721,-2.5805,-2.5925,-2.5925,-2.6068,-2.6315,-2.644,-2.6583,-2.6697,-2.6697,0.0,-2.6572,-2.642,0.0,0.0,0.0,0.0,-2.6534,-2.681,-2.6772,-2.6697,-2.6848,-2.6898,-2.6898,-2.6898,-2.7006,-2.6825,0.0,-2.6045,-2.631,-2.631,0.0,0.0,0.0,0.0,-2.5388,-2.5116,-2.3974,-2.3102,-2.291,-2.1979,-2.1356,-2.1356,-2.1094,-2.0869,-2.071,-2.0407,-2.0112,-1.9874,-1.9604,-1.942,-1.9301,0.0,0.0,0.0,0.0,0.0,0.0,0.0,0.0,0.0,0.0,0.0,0.0,0.0,0.0,0.0,0.0,0.0,0.0,0.0,0.0,0.0,0.0,0.0,0.0,0.0,0.0,0.0,0.0,0.0,-2.3758,-2.3782,0.0,0.0,0.0,0.0,-2.5192,-2.5228,-2.5228,-2.5228,-2.5252,-2.5264,-2.5264,-2.5781,-2.6057,-2.6057,-2.6586,-2.6813,-2.6813,-2.6813,-2.6825,-2.6849,-2.6849,-2.6861,-2.6898,-2.6898,-2.7186,-2.7633,-2.7042,-2.6813,-2.6813,-2.6813,-2.7114,-2.7596,-2.7596,-2.7582,-2.7606,-2.7606,-2.7294,-2.6898,-2.6898,-2.6747,-2.6621,-2.6584,-2.6572,0.0,0.0,-2.6735,-2.686,-2.6898,-2.6898,-2.6898,-2.6898,-2.6898,-2.6898,-2.6898,-2.7294,-2.7474,0.0,-2.6837,-2.6849,-2.6849,0.0,-2.6586,-2.5862,-2.5708,-2.5116,-2.3545,-2.3264,-2.2869,-2.204,-2.1906,-2.1846,-2.1846,-2.1836,-2.1816,-2.1816,-2.1385,-2.096,-2.0588,-2.012,-1.9696,-1.9301,-1.946,0.0,0.0,0.0,0.0,0.0,0.0,0.0,0.0,0.0,0.0,0.0,0.0,0.0,0.0,0.0,0.0,0.0,0.0,0.0,0.0,0.0,0.0,0.0,0.0,0.0,0.0,0.0,0.0,-2.4254,-2.4554,0.0,-2.5011,-2.5023,-2.5107,-2.53,-2.5624,-2.5817,-2.5817,-2.6154,-2.6321,-2.6321,-2.6538,-2.6597,-2.6597,-2.6789,-2.6898,-2.6898,-2.6898,-2.7078,-2.7402,-2.7402,-2.7582,-2.7906,-2.7906,-2.8053,-2.8222,-2.8029,-2.7906,-2.7906,-2.7906,-2.7861,-2.7678,-2.7678,-2.7678,-2.7678,-2.7678,-2.7786,-2.7906,-2.7906,-2.7867,-2.7828,-2.7828,-2.7828,-2.7828,-2.7828,-2.7867,-2.7906,-2.7906,-2.7906,-2.7906,-2.7906,-2.7906,-2.7906,-2.7906,-2.8089,-2.8174,-2.7981,-2.763,-2.7402,-2.7402,-2.7402,-2.724,-2.6759,-2.6685,-2.6232,-2.5029,-2.4377,-2.3938,-2.3612,-2.278,-2.2295,-2.2295,-2.2041,-2.1885,-2.1885,-2.1595,-2.1325,-2.1202,-2.0895,-2.0501,-1.9956,-1.9997,-1.9786,0.0,0.0,0.0,0.0,0.0,0.0,0.0,0.0,0.0,0.0,0.0,0.0,0.0,0.0,0.0,0.0,0.0,0.0,0.0,0.0,0.0,0.0,0.0,0.0,0.0,0.0,-2.4795,-2.4864,-2.513,-2.5384,-2.5564,-2.5576,-2.5648,-2.5841,-2.6178,-2.6382,-2.6382,-2.6693,-2.6898,-2.6898,-2.7066,-2.7162,-2.7162,-2.7342,-2.7426,-2.7426,-2.7426,-2.7618,-2.7993,-2.7993,-2.8174,-2.851,-2.851,-2.8607,-2.8775,-2.8775,-2.8883,-2.9027,-2.8847,-2.8558,-2.827,-2.845,-2.8522,-2.8522,-2.8522,-2.8751,-2.9039,-2.9039,-2.8919,-2.8775,-2.8775,-2.8655,-2.851,-2.851,-2.851,-2.851,-2.851,-2.851,-2.851,-2.851,-2.851,-2.851,-2.851,-2.851,-2.851,-2.851,-2.8222,-2.7993,-2.7993,-2.7993,-2.7893,-2.7666,-2.7644,-2.7296,-2.637,-2.5495,-2.4829,-2.4541,-2.343,-2.2682,-2.2682,-2.2757,-2.2641,-2.2305,-2.2306,-2.2083,-2.16,-2.1675,-2.1266,-2.0383,-2.0383,-2.0129,-1.9592,0.0,0.0,0.0,0.0,0.0,0.0,0.0,0.0,0.0,0.0,0.0,0.0,0.0,0.0,0.0,0.0,0.0,0.0,0.0,0.0,0.0,0.0,0.0,-2.5618,-2.5442,-2.5407,-2.5595,-2.5454,-2.5552,-2.6069,-2.6117,-2.6346,-2.6887,-2.691,-2.6922,-2.6922,-2.6934,-2.6946,-2.6946,-2.7476,-2.7741,-2.7741,-2.827,-2.8534,-2.8534,-2.8546,-2.8558,-2.8558,-2.8558,-2.8558,-2.8558,-2.8546,-2.8823,-2.9304,-2.928,-2.9581,-2.9989,-2.9508,-2.9316,-2.9364,-2.9869,-3.0062,-3.0062,-3.0074,-3.0086,-3.0086,-3.0086,-2.9737,-2.9316,-2.9316,-2.8967,-2.8558,-2.8558,-2.8558,-2.8558,-2.8558,-2.8558,-2.8558,-2.8558,-2.8558,-2.8558,-2.8546,-2.8534,-2.8534,-2.851,-2.851,-2.851,-2.851,-2.851,-2.8471,-2.8431,-2.8431,0.0,-2.7174,-2.6287,-2.5411,-2.4584,-2.3691,-2.3135,-2.3135,-2.3993,-2.4112,-2.3178,-2.3535,-2.3209,-2.1888,-2.2318,-2.1958,-2.0581,-2.0521,-2.0412,-2.022,0.0,0.0,0.0,0.0,0.0,0.0,0.0,0.0,0.0,0.0,0.0,0.0,0.0,0.0,0.0,0.0,0.0,0.0,0.0,0.0,0.0,-2.6297,-2.6246,-2.5889,-2.5863,-2.5961,-2.6153,-2.6457,-2.6748,-2.6893,-2.6906,-2.704,-2.7323,-2.7424,-2.7539,-2.768,-2.7939,-2.8144,-2.8249,-2.8433,-2.8506,-2.8506,-2.904,-2.9226,-2.9088,-2.9472,-2.9653,-2.9653,-2.9653,-2.9653,-2.9629,-2.9256,-2.916,-2.9268,-2.8883,-2.8811,-2.9003,-2.9629,-2.9641,-2.9316,-2.946,-2.9508,-2.9569,-2.9953,-3.0086,-3.0086,-3.0086,-2.9989,-2.9869,-2.9869,-2.9773,-2.9653,-2.9653,-2.9653,-2.9653,-2.9653,-2.9653,-2.9653,-2.9653,-2.9653,-2.9544,-2.916,-2.9088,-2.8967,-2.8582,-2.851,-2.851,-2.851,-2.851,-2.8047,-2.6741,-2.6535,0.0,-2.4445,-2.4016,-2.4026,-2.4456,-2.4284,-2.4112,-2.4112,-2.437,-2.4112,-2.3178,-2.3235,-2.3132,-2.2751,-2.2885,-2.2465,-2.1442,-2.1015,-2.0759,0.0,0.0,0.0,0.0,0.0,0.0,0.0,0.0,0.0,0.0,0.0,0.0,0.0,0.0,0.0,0.0,0.0,0.0,0.0,0.0,0.0,0.0,-2.7065,-2.7075,-2.6838,-2.6747,-2.6761,-2.6956,-2.7189,-2.7396,-2.764,-2.7577,-2.77,-2.8147,-2.8159,-2.8237,-2.8458,-2.8876,-2.9116,-2.9132,-2.9471,-2.9581,-2.946,-2.9776,-2.9893,-2.9741,-2.9971,-3.0086,-3.0086,-3.0086,-3.0086,0.0,-2.9761,-2.9629,-2.9605,-2.9304,-2.9172,0.0,0.0,0.0,0.0,0.0,-2.9629,-2.9677,-2.9977,-3.023,-3.0422,-3.0422,-3.0422,-3.0422,-3.0422,-3.0266,-3.0086,-3.0086,-3.0086,-3.0086,-3.0086,-3.0086,-3.0086,-3.0086,-3.0086,-3.0001,-2.9689,-2.9629,-2.9532,-2.9232,-2.8991,0.0,-2.8847,-2.8655,-2.8127,-2.708,-2.6917,-2.6535,-2.5484,-2.4691,-2.4445,-2.4999,-2.437,-2.3907,-2.3907,-2.4284,0.0,0.0,0.0,-2.3647,-2.356,-2.3091,0.0,0.0,0.0,-2.1252,-2.0981,0.0,0.0,0.0,-1.9806,-1.9806,0.0,0.0,0.0,0.0,0.0,0.0,0.0,0.0,0.0,0.0,0.0,0.0,0.0,0.0,0.0,0.0,-2.7915,-2.8026,-2.8248,-2.7977,-2.7792,-2.789,-2.778,-2.789,-2.8369,-2.8252,-2.8448,-2.9133,-2.9022,-2.9019,-2.9229,0.0,0.0,0.0,0.0,-3.0728,-3.0479,-3.054,-3.0523,-3.0481,-3.0356,-3.0308,-3.0266,-3.0266,-3.0266,-3.0266,-3.0206,-3.017,-3.017,-3.011,-3.0086,-3.0037,-2.9508,-2.9304,-2.9352,-2.9821,-3.0001,-3.0013,-3.0062,0.0,0.0,-3.0826,-3.0826,-3.0838,-3.0898,-3.0585,-3.0194,-3.0242,-3.0266,-3.0266,-3.0266,-3.0266,-3.0266,-3.0266,-3.0266,-3.0242,-3.0194,-3.017,-3.0158,-3.0098,-2.9713,-2.9388,-2.9388,-2.8895,-2.8471,-2.8391,-2.8339,-2.8311,-2.8219,-2.6782,-2.5819,-2.5955,0.0,0.0,-2.3387,-2.4069,-2.4112,-2.3178,-2.3864,-2.4241,-2.4069,-2.3047,-2.274,-2.342,-2.2608,-2.191,-2.1311,-2.1259,-2.1084,-2.0692,-2.0567,-2.0521,0.0,0.0,0.0,0.0,0.0,0.0,0.0,0.0,0.0,0.0,0.0,0.0,0.0,0.0,0.0,-2.8437,-2.8625,-2.885,-2.9402,-2.9389,-2.9124,-2.8499,-2.8796,-2.9068,-2.918,-2.9141,-2.928,-2.9624,-2.972,-2.9847,-3.0074,-3.0421,-3.0717,-3.0799,-3.0939,-3.1001,-3.096,-3.1393,-3.1434,-3.1041,0.0,0.0,-3.1404,-3.1404,-3.1404,-3.138,-3.0946,-3.0766,-3.073,-3.0266,-3.0086,-3.0037,-2.9508,-2.9304,-2.9316,-2.9412,-2.9448,-2.9508,-2.9941,-3.0158,-3.0242,-3.0242,-3.0242,-3.0314,-3.0747,-3.085,0.0,-3.1284,-3.1404,-3.1404,-3.1404,-3.1404,-3.1404,-3.1404,-3.1404,-3.1284,-3.0862,-3.0766,-3.0603,-3.017,-3.0013,-2.9941,-2.9941,-2.9136,-2.8259,-2.7551,-2.7429,-2.7174,-2.6412,-2.6038,-2.608,-2.6846,-2.5955,-2.5284,-2.5284,-2.4787,-2.4112,-2.3178,-2.3266,-2.3353,-2.3309,-2.2925,-2.2794,-2.2925,-2.2759,-2.258,-2.245,-2.2274,-2.2095,-2.2011,-2.0994,-2.0521,0.0,0.0,0.0,0.0,0.0,0.0,0.0,0.0,0.0,0.0,0.0,-2.8089,-2.8089,0.0,-2.8887,-2.9213,-2.9327,-2.9465,-2.9754,-2.9792,-2.964,-2.9275,-2.9437,-2.9711,-2.9986,-2.9932,-3.0044,-3.057,-3.0577,-3.0645,-3.0835,-3.1253,-3.1522,-3.1493,-3.1893,-3.203,-3.1903,-3.2049,-3.2013,-3.1797,-3.1848,-3.1805,-3.1705,-3.1705,-3.1705,-3.1693,-3.1428,-3.1308,-3.1296,-3.1031,-3.0922,-3.0855,-3.0633,-3.0158,-2.9689,-2.9689,-2.9532,-2.934,-2.9605,-2.9689,-2.9689,-2.9689,-2.9869,-3.0134,-3.0398,-3.0482,-3.0585,-3.0838,-3.0922,-3.0983,-3.1247,-3.1308,-3.138,-3.1645,-3.1705,-3.1633,-3.1368,-3.1308,-3.1235,-3.0927,-3.0663,-3.0482,-3.0482,-2.9821,-2.9044,-2.8362,-2.8234,-2.7965,-2.7237,-2.6794,-2.6505,-2.6505,-2.5704,-2.5158,-2.5158,-2.4744,-2.4112,-2.3178,-2.3091,-2.3047,-2.2969,-2.2838,-2.2759,-2.2618,-2.2495,-2.2451,-2.2451,-2.2318,-2.2176,-2.2033,-2.1537,-2.1222,0.0,0.0,0.0,0.0,0.0,0.0,0.0,-2.7668,-2.7705,-2.7891,-2.8474,-2.8924,-2.8924,-2.9414,-2.9792,-2.9792,-2.9792,-2.9792,-2.9792,-2.9792,-2.9829,-2.9942,-2.9955,-3.0131,-3.057,-3.0536,-3.076,-3.1361,-3.1335,-3.1397,-3.1549,-3.2077,-3.2306,-3.215,-3.2757,-3.2995,-3.2766,-3.2605,-3.2519,-3.2431,-3.2069,-3.1881,-3.1849,-3.1849,-3.1805,-3.1761,-3.1705,-3.1705,-3.1705,-3.1705,-3.1705,-3.1705,-3.1705,-3.1259,-3.053,-3.0314,-2.9905,-2.9448,-2.9448,-2.9388,-2.9304,-2.9304,-2.952,-2.9797,-2.9905,-2.9929,-2.9953,-3.0062,-3.0086,-3.0182,-3.0615,-3.0723,-3.0874,-3.1296,-3.1476,-3.156,-3.156,-3.1633,-3.1705,-3.1705,-3.1356,-3.1067,-3.1067,-3.0718,-3.0182,-2.9544,-2.9448,-2.9215,-2.8474,-2.7784,-2.6948,-2.5913,-2.5031,-2.4413,-2.4241,-2.4241,-2.3907,-2.3135,-2.3091,-2.3013,-2.2838,-2.2838,-2.275,-2.253,-2.2353,-2.223,-2.223,-2.2141,-2.2008,-2.1785,-2.1963,-2.1919,-2.5877,-2.637,-2.6767,-2.7064,-2.6976,-2.7122,0.0,-2.8335,-2.8445,-2.9375,-2.9615,-2.9704,-2.9704,-2.9754,-2.9792,-2.9792,-2.9792,-2.9792,-2.9792,-2.9792,-2.998,-3.047,-3.052,-3.0545,-3.0608,-3.0994,-3.1323,-3.1386,-3.1797,-3.2085,-3.2127,-3.2667,-3.298,-3.298,-3.3043,-3.3081,-3.3081,-3.3038,-3.2896,-3.268,-3.2624,-3.2506,-3.23,-3.23,-3.2213,-3.195,-3.1761,-3.1705,-3.1705,-3.1705,-3.1705,-3.1705,-3.1705,-3.1901,-3.2118,-3.1144,-3.0446,-3.0001,-3.0001,-2.9689,-2.9304,-2.9304,-2.9027,-2.8775,-2.9244,-2.9388,-2.9484,-2.9953,-3.0086,-3.0098,-3.0158,-3.017,-3.0194,-3.0254,-3.0627,-3.1007,-3.1007,-3.138,-3.1705,-3.1705,-3.1657,-3.1621,-3.1621,-3.1573,-3.1199,-3.0146,-3.0001,-2.9547,-2.8212,-2.7976,-2.7376,-2.5957,-2.5031,-2.4155,-2.3353,-2.3266,-2.3222,-2.3101,-2.3091,-2.3101,-2.3057,-2.3057,-2.3047,-2.3003,-2.2838,-2.2706,-2.2715,-2.2318,-2.2097,-2.2052,-2.183,-2.1741,-2.6442,-2.6717,-2.7045,-2.7675,-2.7761,-2.7983,-2.9073,-2.9236,-2.9311,-2.9703,-2.9792,-2.9792,-2.9792,-2.9792,-2.9792,0.0,-2.9792,-2.9792,-2.9792,-3.0068,-3.0357,-3.0583,-3.116,-3.1549,-3.1549,-3.1738,-3.2001,-3.234,-3.2579,-3.2717,-3.2717,-3.2943,-3.3124,-3.3124,-3.3382,-3.3558,-3.3558,-3.3752,-3.3781,-3.368,-3.3521,-3.3227,-3.2867,-3.2867,-3.2563,-3.1994,-3.1805,-3.1705,-3.1705,-3.1705,-3.1705,-3.1741,-3.2022,-3.2094,-3.1997,-3.1865,-3.1685,-3.1492,-3.1492,-3.1132,-3.0718,-3.0718,-3.011,-2.9472,-2.9689,-2.9328,-2.8883,-2.9112,-2.9172,-2.9244,-2.9544,-2.9629,-2.9701,-3.0013,-3.0254,-3.041,-3.041,-3.0874,-3.1247,-3.1247,-3.15,-3.1705,-3.1705,-3.1705,-3.156,-3.1115,-3.079,-3.0223,-2.9349,-2.9236,-2.8584,-2.6865,-2.5802,-2.4886,-2.3922,-2.4132,-2.4071,-2.356,-2.3237,-2.3057,-2.2925,-2.2925,-2.2925,-2.2925,-2.2706,-2.2574,-2.2574,-2.2353,-2.2132,-2.1874,-2.1919,-2.183,-2.7069,-2.7324,-2.7605,-2.8339,-2.8514,-2.8728,-2.9524,-2.9702,-2.9702,-2.9792,-2.9792,-2.9792,-2.9792,-2.9792,-2.9792,-2.9792,-2.9792,-2.9842,-2.9993,-3.0369,-3.0721,-3.1022,-3.1738,-3.2277,-3.2441,-3.2453,-3.2629,-3.3086,-3.3124,-3.3144,-3.3294,-3.3307,-3.337,-3.3533,-3.3922,-3.4123,-3.4123,-3.4357,-3.4466,-3.4466,-3.4305,-3.4004,-3.36,-3.3567,-3.3081,-3.2301,-3.2099,-3.1882,-3.1705,-3.1705,-3.1705,-3.1753,-3.2118,-3.2118,-3.1994,-3.2346,-3.2503,-3.2503,-3.2503,-3.2238,-3.1934,-3.1934,-3.1276,-3.0494,-3.035,-2.9773,-2.9136,-2.8979,-2.8943,-2.9027,-2.9412,-2.952,-2.9617,-2.9989,-3.0194,-3.0302,-3.0302,-3.0645,-3.0922,-3.0922,-3.1223,-3.1488,-3.1488,-3.1609,-3.1705,-3.1705,-3.138,-3.0848,-3.0053,-2.9371,-2.8407,-2.704,-2.6024,-2.5138,-2.446,-2.4701,-2.4655,-2.401,-2.3662,-2.3407,-2.3239,-2.3229,-2.3181,-2.3065,-2.279,-2.2599,-2.2397,-2.2353,-2.2087,-2.1696,-2.1919,-2.1874,-2.79,-2.8354,-2.8794,-2.9028,-2.9067,-2.9145,-2.9341,-2.9419,-2.947,-2.9753,-2.9792,-2.9792,-2.9792,-2.9792,-2.9792,-2.9792,-2.9792,-2.998,-3.052,-3.0608,-3.1009,-3.2039,-3.219,-3.2441,0.0,-3.3056,-3.3056,-3.3124,-3.3124,-3.3307,-3.3847,-3.3872,-3.4123,-3.4663,-3.4688,-3.47,-3.47,-3.4668,-3.468,-3.468,-3.468,-3.4668,-3.4655,-3.4441,-3.3917,-3.313,-3.2869,-3.2341,-3.1705,-3.1705,-3.1705,-3.1705,-3.1729,-3.201,-3.2478,-3.2491,-3.2503,-3.2503,-3.2503,-3.2491,-3.2478,-3.2478,-3.2082,-3.156,-3.1055,-3.0874,-3.0742,-3.0182,-3.0037,-3.0037,-3.0062,-3.0062,-3.0062,-3.0086,-3.0482,-3.0898,-3.0898,-3.091,-3.0922,-3.0922,-3.0891,-3.0946,-3.0946,-3.1368,-3.1705,-3.1705,-3.1693,-3.1168,-2.9711,-2.7489,-2.6014,-2.5969,-2.5037,-2.4414,-2.4414,-2.4404,-2.4394,-2.4394,-2.4385,-2.4385,-2.4329,-2.4329,-2.4189,-2.3779,-2.349,-2.3063,-2.2397,-2.2185,-2.1963,-2.1696,-2.1696,-2.1696,-2.8692,-2.8866,-2.904,-2.9236,-2.9314,-2.9353,-2.9611,-2.9663,-2.9689,-2.9792,-2.9792,-2.9792,-2.9792,-2.9792,-2.9792,-2.9792,-2.9792,-2.998,-3.0532,-3.0909,-3.1399,-3.2127,-3.2554,0.0,0.0,0.0,0.0,-3.3124,-3.342,-3.3709,-3.3884,-3.4248,-3.4525,-3.4668,-3.5031,-3.5219,-3.5219,-3.5629,-3.5805,-3.5805,-3.5441,-3.5219,-3.5207,-3.4628,-3.4231,-3.3942,-3.3142,-3.2637,-3.241,-3.1894,-3.1705,-3.1705,-3.1705,-3.1825,-3.1994,-3.1994,-3.2178,-3.2599,-3.3238,-3.3478,-3.3526,-3.3933,-3.3452,-3.2707,-3.2539,-3.2018,-3.1332,-3.0802,-3.0645,-3.053,-3.0182,-3.0086,-3.0086,-3.0086,-3.0218,-3.035,-3.035,-3.0627,-3.0922,-3.0922,-3.1199,-3.144,-3.144,-3.1585,-3.1472,-3.0824,-3.1282,-3.15,-3.1044,-2.9071,-2.7742,-2.7742,-2.6239,-2.5245,-2.5245,-2.5019,-2.4844,-2.4844,-2.458,-2.4414,-2.4414,-2.4414,-2.4346,-2.4209,-2.4108,-2.3811,-2.3256,-2.3164,-2.2944,-2.2501,-2.2501,-2.2501,-2.9157,-2.9197,-2.9275,-2.9482,-2.956,-2.9611,-2.9753,-2.9792,-2.9792,-2.9792,-2.9792,-2.9792,-2.9792,-2.9792,-2.9792,-2.9792,-2.9955,-3.0269,-3.0821,-3.1348,-3.1888,-3.2453,-3.2855,-3.3124,0.0,0.0,0.0,-3.337,-3.3709,-3.4073,-3.4462,-3.4781,-3.5056,-3.5303,-3.5655,-3.583,-3.583,-3.6194,-3.6405,-3.6405,-3.6006,-3.583,-3.5818,-3.5214,-3.4814,-3.4511,-3.3717,-3.3111,-3.2656,-3.2183,-3.1886,-3.1705,-3.1705,-3.1705,-3.1705,-3.1705,-3.1934,-3.2322,-3.3188,-3.3609,-3.3802,-3.433,-3.4102,-3.3561,-3.3561,-3.3068,-3.2406,-3.1889,-3.1601,-3.1372,-3.1036,-3.0807,-3.0694,-3.0694,-3.0694,-3.0694,-3.0694,-3.0814,-3.0922,-3.0922,-3.1199,-3.1428,-3.1428,-3.1585,-3.1383,-3.0351,-3.0767,-3.1048,-3.0678,-2.9521,-2.8588,-2.8215,-2.702,-2.61,-2.5732,-2.5478,-2.5303,-2.5303,-2.5039,-2.4836,-2.4836,-2.4789,-2.4674,-2.4528,-2.4518,-2.4208,-2.3551,-2.3635,-2.3402,-2.2904,-2.2904,-2.2904,-2.9341,-2.9419,-2.947,-2.974,-2.9792,-2.9792,-2.9792,-2.9792,-2.9792,-2.9792,-2.9792,-2.9792,-2.9792,-2.9792,-2.9792,-2.9792,-3.0256,-3.0796,-3.1323,-3.1863,-3.2428,0.0,0.0,0.0,0.0,0.0,0.0,-3.3935,0.0,-3.4449,-3.5445,-3.552,-3.583,-3.6392,-3.6405,-3.6405,-3.6405,-3.6405,-3.6405,-3.6405,-3.643,-3.6455,-3.6455,-3.6221,-3.5662,-3.4932,-3.466,-3.3853,-3.2704,-3.262,-3.2271,-3.1789,-3.1729,-3.1705,-3.1705,-3.1705,-3.1705,-3.1789,-3.2274,-3.2803,-3.3332,-3.379,-3.397,-3.3994,-3.3994,-3.4006,-3.3922,-3.3464,-3.2947,-3.2527,-3.2515,-3.2082,-3.1705,-3.1705,-3.1705,-3.1705,-3.1705,-3.1308,-3.0958,-3.0958,-3.0958,-3.0958,-3.0958,-3.138,-3.1383,-3.0351,-3.017,-2.9795,-2.8819,-2.868,-2.8262,-2.7274,-2.7142,-2.6733,-2.5781,-2.5693,-2.5684,-2.5684,-2.5684,-2.5693,-2.5635,-2.544,-2.5102,-2.4708,-2.4698,-2.4269,-2.3345,-2.3608,-2.3467,-2.2968,-2.2968,-2.2968,-2.9611,-2.9702,-2.9702,-2.9792,-2.9792,-2.9792,-2.9792,-2.9792,-2.9792,-2.9792,-2.9792,-2.9792,-2.9792,-2.9792,-2.9792,-2.9792,-3.0256,0.0,-3.1323,-3.1863,0.0,-3.3048,0.0,-3.3124,-3.3124,-3.3583,0.0,0.0,-3.4856,-3.5207,-3.5483,-3.5931,-3.6267,-3.6405,-3.6405,-3.6405,-3.6405,-3.6405,-3.6405,-3.6417,-3.6832,-3.6973,-3.6985,-3.7351,-3.7379,-3.7167,-3.6526,-3.5963,-3.5318,-3.3969,-3.3213,-3.2791,-3.203,-3.1705,-3.1705,-3.1705,-3.1705,-3.1729,-3.1874,-3.2238,-3.2791,-3.3308,-3.3729,-3.3994,-3.3994,-3.427,-3.4474,-3.3946,-3.3477,-3.2996,-3.2599,-3.2082,-3.1705,-3.1705,-3.1705,-3.1705,-3.1705,-3.1609,-3.1512,-3.1512,-3.1512,-3.1512,-3.1512,-3.1621,-3.1383,-3.0351,-2.9567,-2.9004,-2.8727,-2.8028,-2.7463,-2.7237,-2.6552,-2.5965,-2.5732,-2.5693,-2.5586,-2.543,-2.5586,-2.5538,-2.5137,-2.5235,-2.5138,-2.4829,-2.4829,-2.4626,-2.4182,-2.427,-2.4124,-2.3849,-2.3849,-2.3849,-2.9753,-2.9792,-2.9792,-2.9792,-2.9792,-2.9792,-2.9792,-2.9792,-2.9792,-2.9792,-2.9792,-2.9971,-3.0612,-3.0404,-3.0336,0.0,0.0,0.0,-3.1712,-3.224,-3.2717,0.0,-3.3124,0.0,-3.342,-3.3935,-3.4487,0.0,-3.532,-3.5608,-3.5893,-3.6194,-3.6405,-3.6405,-3.6405,-3.6405,-3.6405,-3.6644,-3.6769,-3.6782,-3.7274,-3.755,-3.755,-3.7766,-3.7804,-3.7779,0.0,-3.6838,-3.6346,-3.5209,-3.4373,-3.3724,-3.2798,-3.2283,-3.1997,-3.1801,-3.1705,-3.1705,-3.1705,-3.191,-3.2226,-3.2767,-3.314,-3.3394,-3.385,-3.4198,-3.4414,-3.4354,-3.397,-3.3501,-3.2984,-3.2442,-3.1973,-3.1765,-3.1705,-3.1705,-3.1705,-3.1705,-3.1705,-3.1705,-3.1705,-3.1705,-3.1705,-3.1705,-3.1193,-2.9749,-2.905,-2.8402,-2.7484,-2.7295,-2.7047,-2.66,-2.6418,-2.6187,-2.5732,-2.5693,-2.5635,-2.5489,-2.5489,-2.5391,-2.5088,-2.4981,-2.4883,-2.4735,-2.4735,-2.4587,-2.439,-2.444,-2.439,-2.4202,-2.4202,-2.4202,-2.9934,-2.9856,-2.983,-2.9934,-2.9934,-2.9934,-2.983,-2.9972,-3.0049,-2.983,-2.9919,-3.0445,-3.1654,-3.1344,-3.1325,-3.2673,0.0,-3.2369,-3.2369,-3.2789,-3.3124,-3.3124,-3.3124,-3.3294,-3.3847,-3.4399,-3.4906,-3.5458,-3.5558,-3.5868,-3.638,-3.6405,-3.6405,-3.6405,-3.6405,-3.6405,-3.6405,-3.6835,-3.7111,-3.7199,-3.7739,-3.8052,-3.8115,-3.7942,-3.7867,-3.7867,-3.7679,0.0,-3.6826,-3.6456,-3.5649,-3.4626,-3.3796,-3.3114,-3.2539,-3.2018,-3.1825,-3.1813,-3.1729,-3.1705,-3.1789,-3.2238,-3.2442,-3.2671,-3.3514,-3.3886,-3.409,-3.4546,-3.4342,-3.3874,-3.3416,-3.2899,-3.2358,-3.1849,-3.1705,-3.1705,-3.1705,-3.1705,-3.1705,-3.1705,-3.1705,-3.1705,-3.1705,-3.1705,-3.1048,-2.9189,-2.8773,-2.8028,-2.6149,-2.6552,-2.6696,-2.5781,-2.6466,-2.6638,-2.5781,-2.5693,-2.5684,-2.5645,-2.544,-2.5284,-2.5186,-2.4735,-2.4489,-2.444,-2.444,-2.439,-2.4202,-2.439,-2.439,-2.4202,-2.4202,-2.4202,-3.0545,-3.0279,-2.9934,-3.0545,-3.072,-3.0545,-2.9934,-3.0797,-3.1331,-3.0049,-3.0637,-3.1461,-3.1847,-3.2137,-3.2633,-3.3607,-3.3503,-3.3251,-3.3251,-3.3157,-3.3124,0.0,-3.3124,-3.3294,-3.3847,0.0,0.0,0.0,0.0,-3.6304,-3.6405,-3.6405,-3.6405,-3.6405,-3.6405,-3.6405,-3.6405,-3.6505,-3.6782,-3.7199,-3.7739,-3.8253,-3.8743,-3.9144,-3.9357,-3.9345,-3.9293,0.0,-3.871,-3.7816,-3.6764,-3.5636,-3.4664,-3.3831,-3.3092,-3.2551,-3.2358,-3.2286,-3.1862,-3.1705,-3.1729,-3.1825,-3.2118,-3.2527,-3.2719,-3.3368,-3.4006,-3.4102,-3.4066,-3.3874,-3.3416,-3.2899,-3.2358,-3.1849,-3.1705,-3.1705,-3.1705,-3.1705,-3.1705,-3.1705,-3.1705,-3.1705,-3.1705,-3.1705,-3.1294,-3.0125,-2.9235,-2.8262,-2.7105,-2.637,-2.5868,-2.5742,-2.5878,-2.5868,-2.5684,-2.5693,-2.5586,-2.5382,-2.5342,-2.5088,-2.4686,-2.4538,-2.444,-2.4251,-2.4251,-2.4251,-2.4202,-2.4251,-2.4251,-2.4202,-2.4202,-2.4202,-3.1415,-3.1281,-3.1071,-3.1452,-3.1526,-3.1415,-3.1084,-3.1576,-3.1986,-3.154,-3.1955,-3.2731,-3.3859,-3.3566,-3.3489,-3.4641,-3.3961,-3.3274,-3.3274,-3.3191,-3.3124,-3.3124,-3.3124,-3.3407,0.0,0.0,0.0,0.0,0.0,-3.6405,-3.6405,-3.6405,-3.6405,-3.6405,-3.6405,-3.6405,-3.6405,-3.6694,-3.6971,-3.7199,-3.804,-3.8605,-3.8944,-3.9446,-3.9697,-3.9697,-3.9697,0.0,-3.944,-3.8596,-3.781,-3.6969,-3.5624,-3.4691,-3.3994,-3.32,-3.2911,-3.2839,-3.2286,-3.2094,-3.2058,-3.1801,-3.1886,-3.2118,-3.2406,-3.2851,-3.3296,-3.3573,-3.379,-3.3874,-3.3416,-3.3104,-3.2767,-3.2226,-3.1922,-3.1705,-3.1705,-3.1705,-3.1705,-3.1705,-3.1705,-3.1705,-3.1705,-3.1294,-3.0588,-2.9567,-2.8588,-2.7568,-2.6552,-2.6004,-2.5693,-2.5693,-2.5693,-2.5693,-2.5693,-2.5693,-2.5645,-2.5538,-2.5235,-2.4981,-2.4735,-2.4489,-2.4291,-2.4202,-2.4202,-2.4202,-2.4202,-2.4202,-2.4202,-2.4202,-2.4202,-2.4202,-3.229,-3.2218,-3.2146,-3.229,-3.2326,-3.229,-3.2146,-3.2472,-3.2836,-3.2972,-3.3359,-3.4138,-3.5803,-3.5051,-3.4661,-3.5946,-3.4746,-3.3641,-3.3641,-3.3313,-3.3124,0.0,-3.3124,0.0,-3.4613,0.0,0.0,0.0,0.0,0.0,-3.6405,-3.6405,-3.6405,-3.6405,-3.6405,-3.6405,-3.6405,-3.6832,-3.7073,-3.7199,-3.8203,-3.8743,-3.883,-3.9433,-3.9633,-3.953,-3.9581,0.0,0.0,-3.901,-3.8482,-3.7866,-3.6422,-3.551,-3.4871,-3.3837,-3.3452,-3.338,-3.2851,-3.2671,-3.2599,-3.2199,-3.1898,-3.1789,-3.219,-3.2406,-3.2587,-3.3008,-3.3489,-3.3765,-3.3248,-3.3128,-3.2984,-3.2454,-3.203,-3.1705,-3.1705,-3.1705,-3.1705,-3.1705,-3.1705,-3.1617,-3.1427,-3.0722,-2.9795,-2.8588,-2.7699,-2.6829,-2.583,-2.5693,-2.5693,-2.5693,-2.5693,-2.5693,-2.5693,-2.5693,-2.5693,-2.5693,-2.5186,-2.4883,-2.4883,-2.4449,-2.4202,-2.4202,-2.4202,-2.4202,-2.4202,-2.4202,-2.4202,-2.4202,-2.4202,-2.4202,-3.2932,-3.2613,-3.2254,-3.2932,-3.3108,-3.2932,-3.2254,-3.3641,-3.4696,-3.3289,-3.4444,-3.5807,-3.6033,-3.6357,-3.6905,-3.7834,-3.6503,-3.5386,-3.5386,-3.4079,-3.3124,-3.3124,0.0,0.0,0.0,0.0,0.0,0.0,0.0,0.0,-3.6405,-3.6405,-3.6405,-3.6405,-3.6405,-3.6405,-3.6405,-3.6455,-3.6732,-3.7199,-3.7801,-3.8191,-3.8489,-3.9331,-3.9426,-3.8893,-3.9206,0.0,0.0,-3.8841,-3.8365,-3.7557,-3.6923,-3.6214,-3.5425,-3.4306,-3.3922,-3.385,-3.3392,-3.3224,-3.3212,-3.3152,-3.2466,-3.1717,-3.1765,-3.2094,-3.2515,-3.2563,-3.2947,-3.3236,-3.2707,-3.2575,-3.243,-3.1922,-3.1753,-3.1705,-3.1705,-3.1705,-3.1705,-3.1705,-3.1705,-3.1427,-3.0498,-3.026,-2.9555,-2.7605,-2.7284,-2.6829,-2.583,-2.5693,-2.5693,-2.5693,-2.5693,-2.5693,-2.5693,-2.5693,-2.5693,-2.5693,-2.5186,-2.4883,-2.4883,-2.4449,-2.4202,-2.4202,-2.4202,-2.4202,-2.4202,-2.4202,-2.4202,-2.4202,-2.4202,-2.4202,-3.3859,-3.3707,-3.3534,-3.3859,-3.3928,-3.396,-3.4051,-3.4772,-3.5435,-3.5557,-3.6237,-3.6894,-3.729,-3.7129,-3.6844,-3.666,-3.6055,-3.5264,-3.4233,-3.3966,-3.3696,-3.3154,-3.3124,0.0,0.0,0.0,0.0,0.0,0.0,0.0,-3.6405,-3.6405,-3.6405,-3.6405,-3.6405,-3.6405,-3.6405,-3.6405,-3.6518,-3.6744,-3.7249,-3.7752,-3.8191,-3.8881,-3.9268,-3.9322,-3.931,0.0,0.0,-3.8736,-3.8392,-3.7992,-3.7291,-3.6657,-3.6002,-3.5256,-3.4739,-3.439,-3.3921,-3.3741,-3.3693,-3.3392,-3.2996,-3.2635,-3.2635,-3.2575,-3.2503,-3.2503,-3.2647,-3.2767,-3.2563,-3.2503,-3.2358,-3.1849,-3.1705,-3.1705,-3.1705,-3.1705,-3.1705,-3.1705,-3.1705,-3.156,-3.1193,-3.0125,-2.905,-2.8215,-2.7057,-2.6149,-2.5732,-2.5693,-2.5693,-2.5693,-2.5693,-2.5693,-2.5693,-2.5693,-2.5635,-2.5489,-2.5088,-2.4833,-2.4686,-2.4341,-2.4202,-2.4202,-2.4202,-2.4202,-2.4202,-2.4202,-2.4202,-2.4202,-2.4202,-2.4202,-3.4414,-3.4414,-3.4414,-3.4414,-3.4559,-3.482,-3.529,-3.5697,-3.6235,-3.7114,-3.7447,-3.7709,-3.813,-3.7682,-3.7014,-3.6108,-3.5789,-3.5115,-3.3683,-3.3781,-3.3781,0.0,0.0,0.0,0.0,0.0,0.0,0.0,0.0,0.0,-3.6405,-3.6405,-3.6405,-3.6405,-3.6405,-3.6405,-3.6405,-3.6405,-3.6405,-3.6417,-3.6923,-3.7426,-3.7891,-3.8605,-3.9068,-3.9322,-3.9206,0.0,0.0,-3.8461,-3.8303,-3.8202,-3.7501,-3.6867,-3.6338,-3.5809,-3.528,-3.4727,-3.4354,-3.4234,-3.4162,-3.3861,-3.3741,-3.3741,-3.3741,-3.3272,-3.2743,-3.2743,-3.2743,-3.2743,-3.2743,-3.2623,-3.2394,-3.2054,-3.1837,-3.1705,-3.1705,-3.1705,-3.1705,-3.1705,-3.1705,-3.1617,-3.1294,-2.9841,-2.8588,-2.8308,-2.6791,-2.5693,-2.5693,-2.5693,-2.5693,-2.5693,-2.5693,-2.5693,-2.5693,-2.5635,-2.5489,-2.5333,-2.4981,-2.4686,-2.4538,-2.4301,-2.4202,-2.4202,-2.4202,-2.4202,-2.4202,-2.4202,-2.4202,-2.4202,-2.4202,-2.4202,-3.4414,-3.4414,-3.4414,-3.4414,-3.4893,-3.5392,-3.5392,-3.6395,-3.7288,-3.7302,-3.7781,-3.8188,-3.8202,-3.8202,-3.7886,-3.7014,-3.6215,-3.5386,-3.4522,-3.3654,-3.3124,0.0,0.0,0.0,0.0,0.0,0.0,0.0,0.0,0.0,-3.6405,-3.6405,-3.6405,-3.6405,-3.6405,-3.6405,-3.6405,-3.6405,-3.6405,-3.6417,-3.6923,-3.7341,-3.7605,-3.8517,-3.8697,0.0,0.0,0.0,0.0,-3.8039,-3.7986,-3.7926,-3.7397,-3.6867,-3.6338,-3.5809,-3.528,-3.4775,-3.4775,-3.4775,-3.4775,-3.4763,-3.4763,-3.4763,-3.4763,-3.4102,-3.3284,-3.3284,-3.3284,-3.3284,-3.3284,-3.2899,-3.2503,-3.2491,-3.207,-3.1705,-3.1705,-3.1705,-3.1705,-3.1705,-3.1705,-3.1383,-3.0407,-2.9372,-2.8355,-2.7379,-2.637,-2.5693,-2.5693,-2.5693,-2.5693,-2.5693,-2.5693,-2.5693,-2.5693,-2.544,-2.5284,-2.5284,-2.4784,-2.448,-2.448,-2.4301,-2.4202,-2.4202,-2.4202,-2.4202,-2.4202,-2.4202,-2.4202,-2.4202,-2.4202,-2.4202,-3.4414,-3.4414,-3.4516,-3.4951,-3.5247,-3.5639,-3.6489,-3.7012,-3.7418,-3.7839,-3.8072,-3.8202,-3.8202,-3.772,-3.7208,-3.6936,-3.6201,-3.5318,-3.4522,0.0,0.0,-3.3154,0.0,0.0,0.0,0.0,0.0,0.0,0.0,0.0,-3.6405,-3.6405,-3.6405,-3.6405,-3.6405,-3.6405,-3.6405,-3.6405,-3.6405,-3.6405,-3.6581,-3.6978,-3.7593,-3.7879,-3.8248,0.0,0.0,0.0,0.0,-3.8092,-3.7986,-3.7962,-3.7793,-3.718,-3.6386,-3.6218,-3.5593,-3.4775,-3.4775,-3.4775,-3.4775,-3.4775,-3.4775,-3.4775,-3.4775,-3.4294,-3.3729,-3.3392,-3.3284,-3.3284,-3.3284,-3.2899,-3.2503,-3.2503,-3.207,-3.1705,-3.1705,-3.1705,-3.1484,-3.0824,-3.1238,-3.1383,-3.0351,-2.9383,-2.8588,-2.8251,-2.6791,-2.5693,-2.5693,-2.5693,-2.5693,-2.5693,-2.5693,-2.5635,-2.544,-2.5342,-2.5137,-2.4784,-2.4578,-2.444,-2.4291,-2.4251,-2.4202,-2.4202,-2.4202,-2.4202,-2.4202,-2.4202,-2.4202,-2.4202,-2.4202,-2.4202,-3.4414,-3.4414,-3.4559,-3.5232,-3.5581,-3.5996,-3.707,-3.7491,-3.7752,-3.813,-3.8202,-3.8202,-3.8202,-3.7772,-3.7285,-3.6936,-3.6439,-3.5682,-3.4551,0.0,0.0,0.0,0.0,0.0,0.0,0.0,0.0,0.0,0.0,0.0,-3.6405,-3.6405,-3.6405,-3.6405,-3.6405,-3.6405,-3.6405,-3.6405,-3.637,-3.6228,-3.6441,-3.687,-3.7443,-3.7653,-3.8068,0.0,0.0,0.0,0.0,-3.8092,-3.7986,-3.7986,-3.7986,-3.7336,-3.6411,-3.6411,-3.5737,-3.4775,-3.4775,-3.4775,-3.4775,-3.4775,-3.4775,-3.4775,-3.4775,-3.4546,-3.4222,-3.3958,-3.3873,-3.3873,-3.3873,-3.3344,-3.2803,-3.2803,-3.2214,-3.1705,-3.1705,-3.1705,-3.1383,-3.0407,-3.0722,-3.0824,-2.9795,-2.8819,-2.8121,-2.8121,-2.6744,-2.5693,-2.5693,-2.5693,-2.5693,-2.5693,-2.5586,-2.544,-2.5186,-2.5137,-2.4981,-2.4538,-2.444,-2.4341,-2.4202,-2.4202,-2.4202,-2.4202,-2.4202,-2.4202,-2.4202,-2.4202,-2.4202,-2.4202,-2.4202,-2.4202,0.0,-3.4453,-3.4632,-3.5305,-3.5909,-3.6562,-3.7215,-3.7796,0.0,-3.8202,-3.8202,-3.8202,-3.8202,-3.8165,-3.7848,-3.7014,-3.6858,-3.6255,0.0,-3.4356,0.0,0.0,0.0,0.0,0.0,0.0,0.0,0.0,0.0,0.0,-3.6405,-3.6405,-3.6405,-3.6405,-3.6405,-3.6405,-3.6405,-3.6405,-3.6275,-3.6028,-3.6514,-3.6912,-3.7193,-3.7745,-3.8118,0.0,0.0,0.0,0.0,-3.7986,-3.7986,-3.7986,-3.7986,-3.7336,-3.6411,-3.6411,-3.5737,-3.4775,-3.4775,-3.4775,-3.4775,-3.4775,-3.4775,-3.4775,-3.4775,-3.4775,-3.4775,-3.4775,-3.4775,-3.4775,-3.4775,-3.4066,-3.3284,-3.3284,-3.25,-3.1705,-3.1705,-3.1705,-3.1383,-3.0306,-3.017,-2.9841,-2.8773,-2.784,-2.7189,-2.7189,-2.6322,-2.5693,-2.5693,-2.5693,-2.5693,-2.5693,-2.544,-2.5186,-2.4932,-2.4883,-2.4784,-2.4489,-2.4291,-2.4202,-2.4202,-2.4202,-2.4202,-2.4202,-2.4202,-2.4202,-2.4202,-2.4202,-2.4202,-2.4202,-2.4202,-2.4202,-3.4129,0.0,-3.5319,-3.5923,-3.6577,-3.723,0.0,-3.8101,-3.8202,-3.8202,-3.8202,-3.8202,-3.8202,-3.7644,-3.713,-3.6936,-3.636,-3.5561,-3.4551,0.0,0.0,0.0,0.0,0.0,0.0,0.0,0.0,0.0,0.0,-3.6405,-3.6405,-3.6405,-3.6405,-3.6405,-3.6405,-3.6405,-3.6405,-3.6405,-3.6275,-3.6028,-3.6514,-3.6813,-3.6891,-3.7478,-3.7858,0.0,0.0,0.0,-3.7986,-3.7986,-3.7986,-3.7986,-3.7986,-3.7336,-3.6411,-3.6411,-3.5737,-3.4775,-3.4775,-3.4775,-3.4775,-3.4775,-3.4775,-3.4775,-3.4775,-3.4775,-3.4775,-3.4775,-3.4775,-3.4775,-3.4775,-3.4066,-3.3284,-3.3284,-3.25,-3.1705,-3.1705,-3.1705,-3.1193,-2.9383,-2.9658,-2.9658,-2.784,-2.7379,-2.7189,-2.7189,-2.6322,-2.5693,-2.5693,-2.5693,-2.5693,-2.5693,-2.544,-2.5186,-2.4932,-2.4735,-2.4489,-2.4291,-2.4251,-2.4202,-2.4202,-2.4202,-2.4202,-2.4202,-2.4202,-2.4202,-2.4202,-2.4202,-2.4202,-2.4202,-2.4202,-2.4202,-3.394,-3.4768,-3.5625,-3.6533,-3.7041,-3.7462,-3.8072,-3.8202,-3.8202,-3.8202,-3.8202,-3.8202,-3.8202,-3.7695,-3.7451,-3.7908,-3.7064,0.0,0.0,0.0,0.0,0.0,0.0,0.0,0.0,0.0,0.0,0.0,0.0,-3.6405,-3.6405,-3.6405,-3.6405,-3.6405,-3.6275,-3.6275,-3.6405,-3.6275,-3.6223,-3.6195,-3.6591,-3.6871,-3.6988,-3.752,-3.7867,0.0,0.0,0.0,-3.7986,-3.7986,-3.7986,-3.7986,-3.7986,-3.7336,-3.6411,-3.6411,-3.5737,-3.4775,-3.4775,-3.4775,-3.4775,-3.4775,-3.4775,-3.4775,-3.4775,-3.4775,-3.4775,-3.4775,-3.4775,-3.4775,-3.4775,-3.4234,-3.3573,-3.3344,-3.2647,-3.2018,-3.1765,-3.1705,-3.1104,-2.9096,-2.9143,-2.8866,-2.6877,-2.6504,-2.6504,-2.6504,-2.6052,-2.5693,-2.5693,-2.5693,-2.5693,-2.5693,-2.5342,-2.5088,-2.4932,-2.4587,-2.4341,-2.4202,-2.4202,-2.4202,-2.4202,-2.4202,-2.4202,-2.4202,-2.4202,-2.4202,-2.4202,-2.4202,-2.4202,-2.4202,-2.4202,-2.4202,-3.3735,-3.4608,-3.5575,-3.6793,-3.725,-3.7578,-3.8086,-3.8275,-3.8362,-3.8362,-3.8434,-3.8492,-3.8492,-3.831,-3.8365,-3.9063,-3.7949,0.0,0.0,0.0,0.0,0.0,0.0,0.0,0.0,0.0,0.0,0.0,0.0,-3.6405,-3.6405,-3.6405,-3.6405,-3.6405,-3.6146,-3.6098,-3.6323,-3.6051,-3.6084,-3.6333,-3.6661,-3.6943,-3.7216,-3.7745,-3.7986,-3.7986,0.0,0.0,-3.7986,-3.7986,-3.7986,-3.7986,-3.7986,-3.7336,-3.6411,-3.6411,-3.5737,-3.4775,-3.4775,-3.4775,-3.4775,-3.4775,-3.4775,-3.4775,-3.4775,-3.4775,-3.4775,-3.4775,-3.4775,-3.4775,-3.4775,-3.439,-3.3862,-3.3404,-3.2783,-3.2153,-3.1781,-3.1572,-3.0913,-2.905,-2.868,-2.8085,-2.6062,-2.5693,-2.5693,-2.5693,-2.5693,-2.5693,-2.5693,-2.5693,-2.5684,-2.5635,-2.5186,-2.4883,-2.4833,-2.4449,-2.4202,-2.4202,-2.4202,-2.4202,-2.4202,-2.4202,-2.4202,-2.4202,-2.4202,-2.4202,-2.4202,-2.4202,-2.4202,-2.4202,-2.4202,-2.4202,-3.3093,-3.4071,-3.5022,-3.5981,-3.7129,-3.8086,-3.8188,-3.8638,-3.9044,-3.9044,-3.945,-3.9813,-3.9813,-3.9768,-3.9549,-3.9043,0.0,-3.5512,0.0,0.0,0.0,0.0,0.0,0.0,0.0,0.0,0.0,0.0,0.0,-3.6405,-3.6405,-3.6405,-3.6405,-3.6405,-3.6146,-3.6015,-3.6051,-3.5812,-3.5794,-3.6075,-3.656,-3.6943,-3.7216,-3.7745,-3.7986,-3.7986,0.0,-3.7986,-3.7986,-3.7986,-3.7986,-3.7986,-3.7986,-3.7336,-3.6411,-3.6411,-3.5737,-3.4775,-3.4775,-3.4775,-3.4775,-3.4775,-3.4775,-3.4775,-3.4775,-3.4775,-3.4775,-3.4775,-3.4775,-3.4775,-3.4775,-3.439,-3.3862,-3.3404,-3.2252,-3.1297,-3.1636,-3.1015,-3.0079,-2.8912,-2.868,-2.8085,-2.6062,-2.5693,-2.5693,-2.5693,-2.5693,-2.5693,-2.5693,-2.5693,-2.5586,-2.5391,-2.5088,-2.4784,-2.4578,-2.4341,-2.4202,-2.4202,-2.4202,-2.4202,-2.4202,-2.4202,-2.4202,-2.4202,-2.4202,-2.4202,-2.4202,-2.4202,-2.4202,-2.4202,-2.4202,-2.4202,-3.289,-3.3953,-3.4895,-3.5426,-3.6189,-3.7123,-3.8447,-3.8596,-3.8742,-3.9532,-3.99,-3.9931,-3.9424,-3.9249,-3.8671,-3.7274,0.0,0.0,0.0,0.0,0.0,0.0,0.0,0.0,0.0,0.0,0.0,0.0,0.0,0.0,-3.6405,-3.6405,-3.6405,-3.6405,-3.6003,-3.5912,-3.6196,-3.5807,-3.5867,-3.6463,-3.6834,-3.7211,-3.7625,-3.7878,-3.7986,-3.7986,0.0,-3.7986,-3.7986,-3.7986,-3.7986,-3.7986,-3.7986,-3.7336,-3.6338,-3.5761,-3.5244,-3.4775,-3.4775,-3.4775,-3.4775,-3.4775,-3.4775,-3.4775,-3.4775,-3.4775,-3.4775,-3.4775,-3.4775,-3.4775,-3.4775,-3.4595,-3.4222,-3.3477,-3.2324,-3.1344,-3.0955,-3.0543,-2.9749,-2.8215,-2.8355,-2.8085,-2.6062,-2.5693,-2.5693,-2.5693,-2.5693,-2.5693,-2.5693,-2.5693,-2.5586,-2.5342,-2.5088,-2.4784,-2.4529,-2.4341,-2.4202,-2.4202,-2.4202,-2.4202,-2.4202,-2.4202,-2.4202,-2.4202,-2.4202,-2.4202,-2.4202,-2.4202,-2.4202,-2.4211,-2.444,-2.4542,-3.2824,-3.3794,-3.4619,-3.5107,-3.5767,-3.6739,-3.8388,-3.8521,-3.8587,-3.9513,-3.9808,-3.9745,-3.924,-3.8989,0.0,-3.6171,0.0,0.0,0.0,0.0,0.0,0.0,0.0,0.0,0.0,0.0,0.0,0.0,0.0,0.0,-3.6405,-3.6263,-3.6263,-3.6405,-3.5923,-3.5904,-3.6419,-3.6119,-3.6295,-3.6909,-3.7103,-3.7469,-3.7986,-3.7986,-3.7986,-3.7986,-3.7986,-3.7986,-3.7986,-3.7986,-3.7986,-3.7986,-3.7986,-3.7336,-3.6278,-3.522,-3.4775,-3.4775,-3.4775,-3.4775,-3.4775,-3.4775,-3.4775,-3.4775,-3.4775,-3.4775,-3.4775,-3.4775,-3.4775,-3.4775,-3.4775,-3.4775,-3.4546,-3.3681,-3.2583,-3.1562,-3.0595,-3.0307,-2.9612,-2.7605,-2.8028,-2.8085,-2.6062,-2.5693,-2.5693,-2.5693,-2.5693,-2.5684,-2.5586,-2.5586,-2.5489,-2.5137,-2.4932,-2.4686,-2.444,-2.4301,-2.4202,-2.4202,-2.4202,-2.4202,-2.4202,-2.4202,-2.4202,-2.4202,-2.4202,-2.4202,-2.4202,-2.4202,-2.4257,-2.4358,-2.4679,-2.4831,-3.2894,-3.3392,-3.3852,-3.4984,-3.6916,-3.8309,-3.7617,-3.8532,-3.9341,-3.8591,-3.8869,-3.9513,-4.0335,-4.0462,-3.965,-3.7293,0.0,0.0,0.0,0.0,0.0,0.0,0.0,0.0,0.0,0.0,0.0,0.0,0.0,0.0,-3.6405,-3.5943,-3.5895,-3.6358,-3.6136,-3.6137,-3.6419,-3.6846,-3.7096,-3.7196,-3.718,-3.7469,-3.7986,-3.7986,-3.7986,-3.7986,-3.7986,-3.7986,-3.7986,-3.7986,-3.7986,-3.7986,-3.7986,-3.7336,-3.6278,-3.522,-3.4775,-3.4775,-3.4775,-3.4775,-3.4775,-3.4775,-3.4775,-3.4775,-3.4775,-3.4775,-3.4775,-3.4775,-3.4775,-3.4775,-3.4775,-3.4775,-3.4643,-3.4078,-3.2829,-3.1618,-3.1077,-3.056,-2.9612,-2.7605,-2.8028,-2.8085,-2.6062,-2.5693,-2.5693,-2.5693,-2.5693,-2.5586,-2.5333,-2.5342,-2.5137,-2.4627,-2.4529,-2.444,-2.4251,-2.4202,-2.4202,-2.4202,-2.4202,-2.4202,-2.4202,-2.4202,-2.4202,-2.4202,-2.4202,-2.4202,-2.4202,-2.4202,-2.4404,-2.4739,-2.4766,-2.4977,-3.3223,-3.3753,-3.4232,-3.4831,-3.6315,-3.7665,-3.7682,-3.7876,-3.8175,-3.8759,-3.9047,-3.9285,-3.9637,0.0,-3.7185,-3.6533,0.0,0.0,0.0,0.0,0.0,0.0,0.0,0.0,0.0,0.0,0.0,0.0,0.0,0.0,-3.6886,-3.6715,-3.6665,-3.6899,-3.6664,-3.6732,-3.7162,-3.7206,-3.736,-3.7685,-3.7685,-3.7781,-3.7986,-3.7986,-3.7986,-3.7986,-3.7986,-3.7986,-3.7986,-3.7986,-3.7986,-3.7914,-3.7264,-3.6555,-3.5821,-3.5051,-3.4775,-3.4775,-3.4775,-3.4775,-3.4775,-3.4775,-3.4775,-3.4775,-3.4775,-3.4775,-3.4775,-3.4775,-3.4775,-3.4775,-3.4775,-3.4775,-3.4643,-3.4114,-3.2865,-3.1476,-3.0314,-3.0123,-2.9429,-2.6791,-2.7568,-2.8085,-2.6062,-2.5693,-2.5693,-2.5693,-2.5693,-2.5635,-2.5538,-2.5391,-2.5137,-2.4784,-2.4489,-2.4291,-2.4202,-2.4202,-2.4202,-2.4202,-2.4202,-2.4202,-2.4202,-2.4202,-2.4202,-2.4202,-2.4202,-2.433,-2.4546,-2.4546,-2.4808,-2.5161,-2.5451,-2.5644,-3.3693,-3.4188,-3.4611,-3.4876,-3.5774,-3.6663,-3.7105,-3.7162,-3.7325,-3.8022,-3.8496,-3.8675,-3.836,-3.7007,0.0,0.0,0.0,0.0,0.0,0.0,0.0,0.0,0.0,0.0,0.0,0.0,0.0,0.0,0.0,0.0,0.0,-3.6932,-3.703,-3.718,-3.7037,-3.7139,-3.7618,-3.7517,-3.7625,-3.7986,-3.7986,-3.7986,-3.7986,-3.7986,-3.7986,-3.7986,-3.7986,-3.7986,-3.7986,-3.7986,-3.789,-3.7625,-3.6567,-3.593,-3.5557,-3.4979,-3.4775,-3.4775,-3.4775,-3.4775,-3.4775,-3.4775,-3.4775,-3.4775,-3.4775,-3.4775,-3.4775,-3.4775,-3.4775,-3.4775,-3.4775,-3.4775,-3.4691,-3.4318,-3.2982,-3.1426,-3.0076,-2.976,-2.8923,-2.6197,-2.7067,-2.7709,-2.6014,-2.5693,-2.5684,-2.5586,-2.5586,-2.5489,-2.5333,-2.5137,-2.4941,-2.4686,-2.4399,-2.4202,-2.4202,-2.4202,-2.4202,-2.4202,-2.4202,-2.4202,-2.4202,-2.4202,-2.4202,-2.4202,-2.433,-2.4542,-2.4785,-2.4904,-2.5221,-2.5617,-2.5883,-2.6085,-3.424,-3.4586,-3.485,-3.5137,-3.5416,-3.562,-3.562,-3.6521,-3.7103,-3.6193,-3.6956,-3.7487,-3.6581,-3.6713,0.0,0.0,0.0,0.0,0.0,0.0,0.0,0.0,0.0,0.0,0.0,0.0,0.0,0.0,0.0,0.0,0.0,-3.6386,-3.6676,-3.7193,-3.7197,-3.736,-3.7618,-3.7879,-3.7986,-3.7986,-3.7986,-3.7986,-3.7986,-3.7986,-3.7986,-3.7986,-3.7986,-3.7986,-3.7986,-3.7974,-3.7661,-3.7072,-3.6026,-3.5617,-3.5545,-3.5016,-3.4775,-3.4775,-3.4775,-3.4775,-3.4775,-3.4775,-3.4775,-3.4775,-3.4775,-3.4775,-3.4775,-3.4775,-3.4775,-3.4775,-3.4775,-3.4775,-3.4775,-3.4775,-3.3289,-3.1529,-3.0555,-2.9474,-2.8132,-2.611,-2.6504,-2.6867,-2.5868,-2.5693,-2.5586,-2.5333,-2.5284,-2.5088,-2.4587,-2.448,-2.444,-2.4202,-2.4202,-2.4202,-2.4202,-2.4202,-2.4202,-2.4202,-2.4211,-2.4211,-2.4202,-2.4211,-2.4211,-2.4211,-2.4624,-2.4785,-2.4794,-2.524,-2.5635,-2.6021,-2.6021,-2.6241,-3.445,-3.474,-3.4836,-3.4896,-3.5126,-3.532,-3.532,-3.574,-3.6061,-3.5764,-3.631,-3.6735,-3.659,-3.6215,0.0,0.0,0.0,0.0,0.0,0.0,0.0,0.0,0.0,0.0,0.0,0.0,0.0,0.0,0.0,0.0,0.0,-3.7332,-3.7621,-3.7778,-3.7778,-3.7798,-3.7863,-3.7954,-3.7986,-3.7986,-3.7986,-3.7986,-3.7986,-3.7986,-3.7986,-3.7986,-3.7986,-3.7986,-3.795,-3.7577,-3.6892,-3.605,-3.5737,-3.5388,-3.504,-3.4835,-3.4775,-3.4775,-3.4775,-3.4775,-3.4775,-3.4775,-3.4775,-3.4775,-3.4775,-3.4775,-3.4775,-3.4775,-3.4775,-3.4775,-3.4775,-3.4775,-3.4775,-3.4775,-3.4066,-3.3065,-3.2139,-3.1065,-2.9733,-2.7707,-2.7236,-2.6867,-2.5868,-2.5538,-2.5382,-2.5333,-2.5137,-2.4883,-2.4529,-2.448,-2.444,-2.4202,-2.4202,-2.4202,-2.4202,-2.4202,-2.4202,-2.4202,-2.4486,-2.4514,-2.4211,-2.4486,-2.4643,-2.4643,-2.5047,-2.5387,-2.5663,-2.5782,-2.6048,-2.6399,-2.6399,-2.6472,-3.4342,-3.4715,-3.492,-3.4835,-3.4981,-3.5223,-3.5223,-3.5416,-3.562,-3.562,-3.5847,-3.6116,-3.6172,-3.568,0.0,0.0,0.0,0.0,0.0,0.0,0.0,0.0,0.0,0.0,0.0,0.0,0.0,0.0,0.0,0.0,0.0,-3.7385,-3.7757,-3.7974,-3.7986,-3.7986,-3.7986,-3.7986,-3.7986,-3.7986,-3.7986,-3.7986,-3.7986,-3.7986,-3.7986,-3.7974,-3.7757,-3.7661,-3.7613,-3.6867,-3.6194,-3.5593,-3.5388,-3.5063,-3.4775,-3.4775,-3.4775,-3.4775,-3.4775,-3.4775,-3.4775,-3.4775,-3.4775,-3.4775,-3.4775,-3.4775,-3.4775,-3.4775,-3.4775,-3.4775,-3.4775,-3.4775,-3.4775,-3.4775,-3.4125,-3.3098,-3.196,-3.0715,-2.9284,-2.7434,-2.684,-2.6418,-2.5781,-2.5489,-2.5235,-2.5137,-2.4843,-2.4538,-2.439,-2.439,-2.4341,-2.4202,-2.4202,-2.4202,-2.4202,-2.4202,-2.4275,-2.444,-2.4689,-2.4739,-2.4689,-2.4937,-2.5014,-2.5014,-2.5451,-2.5773,-2.6012,-2.6177,-2.6344,-2.6591,-2.6591,-2.6591,-3.4005,-3.4498,-3.5054,-3.4812,-3.4993,-3.5223,-3.5223,-3.5368,-3.5572,-3.5524,-3.5572,-3.556,-3.5499,-3.5178,0.0,0.0,0.0,0.0,0.0,0.0,0.0,0.0,0.0,0.0,0.0,0.0,0.0,0.0,0.0,0.0,0.0,-3.6879,-3.7409,-3.789,-3.795,-3.7986,-3.7986,-3.7986,-3.7986,-3.7986,-3.7986,-3.7986,-3.7986,-3.7986,-3.795,-3.7878,-3.7397,-3.7132,-3.6976,-3.6014,-3.5581,-3.5497,-3.4967,-3.4775,-3.4775,-3.4775,-3.4775,-3.4775,-3.4775,-3.4775,-3.4775,-3.4775,-3.4775,-3.4775,-3.4775,-3.4775,-3.4775,-3.4775,-3.4775,-3.4775,-3.4775,-3.4775,-3.4775,-3.4775,-3.3773,-3.2408,-3.1009,-2.9418,-2.7844,-2.6406,-2.5918,-2.5732,-2.5693,-2.544,-2.5186,-2.4883,-2.4489,-2.4202,-2.4202,-2.4202,-2.4202,-2.4202,-2.4202,-2.422,-2.4257,-2.4257,-2.444,-2.4812,-2.4867,-2.5051,-2.546,-2.5479,-2.5479,-2.5479,-2.5865,-2.6067,-2.6067,-2.6399,-2.6591,-2.6591,-2.6591,-2.6591,-3.3379,-3.3872,-3.4305,-3.4448,-3.5003,-3.5476,-3.5271,-3.5223,-3.5223,-3.503,-3.532,-3.539,-3.4771,0.0,0.0,0.0,0.0,0.0,0.0,0.0,0.0,0.0,0.0,0.0,0.0,0.0,0.0,0.0,0.0,0.0,-3.5785,-3.6675,-3.724,-3.736,-3.7769,-3.7986,-3.7986,-3.7986,-3.7986,0.0,-3.7986,-3.7986,-3.7986,-3.7986,-3.7757,-3.736,-3.724,-3.6723,-3.5942,-3.5713,-3.5376,-3.4943,-3.4823,-3.4775,-3.4775,-3.4775,-3.4775,-3.4775,-3.4775,-3.4775,-3.4775,-3.4775,-3.4775,-3.4775,-3.4775,-3.4775,-3.4775,-3.4775,-3.4775,-3.4775,-3.4775,-3.4775,-3.4775,-3.4775,-3.4545,-3.4231,-3.3906,-3.1977,-3.0061,-2.9451,-2.7625,-2.6143,-2.5742,-2.5284,-2.4843,-2.4399,-2.4251,-2.4202,-2.4202,-2.4202,-2.4202,-2.4202,-2.4202,-2.4339,-2.462,-2.4647,-2.4812,-2.5277,-2.5589,-2.58,-2.5883,-2.5883,-2.5883,-2.5883,-2.6296,-2.6454,-2.6454,-2.6545,-2.6591,-2.6591,-2.6591,-2.6591,-3.2885,-3.3377,-3.3917,-3.4466,-3.4929,-3.5223,-3.5223,-3.5126,-3.4981,-3.4835,-3.503,-3.509,-3.4667,0.0,0.0,0.0,0.0,0.0,0.0,0.0,0.0,0.0,0.0,0.0,0.0,0.0,0.0,0.0,0.0,-3.5352,-3.5605,-3.6134,-3.6555,-3.6807,-3.7324,-3.7601,-3.7601,-3.7853,-3.7986,-3.7986,-3.7986,-3.7853,-3.7601,-3.7601,-3.7457,-3.7168,-3.6663,-3.6134,-3.5605,-3.534,-3.5027,-3.4775,-3.4775,-3.4775,-3.4775,-3.4775,-3.4775,-3.4775,-3.4775,-3.4775,-3.4775,-3.4775,-3.4775,-3.4775,-3.4775,-3.4775,-3.4775,-3.4775,-3.4775,-3.4775,-3.4775,-3.4775,-3.4775,-3.4775,-3.4775,-3.4605,-3.3906,-3.2233,-3.0612,-2.9691,-2.7953,-2.6502,-2.5916,-2.5222,-2.4587,-2.4251,-2.4202,-2.4202,-2.4202,-2.4202,-2.4202,-2.4202,-2.4385,-2.4587,-2.4757,-2.4959,-2.5286,-2.5681,-2.5901,-2.6104,-2.6306,-2.6315,-2.6315,-2.6315,-2.6481,-2.6591,-2.6591,-2.6591,-2.6591,-2.6591,-2.6591,-2.6591,-3.2635,-3.3192,-3.3991,-3.4621,-3.4847,-3.4981,-3.5126,-3.4981,-3.4775,-3.4775,-3.4775,-3.4775,0.0,0.0,0.0,0.0,0.0,0.0,0.0,0.0,0.0,0.0,0.0,0.0,0.0,0.0,0.0,0.0,0.0,-3.4967,-3.5461,-3.5569,-3.5809,-3.6254,-3.6783,-3.7096,-3.7192,-3.7625,-3.789,-3.7986,-3.789,-3.7613,-3.718,-3.7,-3.6916,-3.6867,-3.6002,-3.5569,-3.5449,-3.4955,-3.4775,-3.4775,-3.4775,-3.4775,-3.4775,-3.4775,-3.4775,-3.4775,-3.4775,-3.4775,-3.4775,-3.4775,-3.4775,-3.4775,-3.4775,-3.4775,-3.4775,-3.4775,-3.4775,-3.4775,-3.4775,-3.4775,-3.4775,-3.4775,-3.4775,-3.446,-3.3233,-3.2078,-3.0832,-2.9313,-2.7895,-2.6722,-2.6045,-2.5173,-2.4514,-2.426,-2.4202,-2.4202,-2.4202,-2.4266,-2.4312,-2.4312,-2.4638,-2.4913,-2.4977,-2.5289,-2.5699,-2.6094,-2.6122,-2.6224,-2.6573,-2.6591,-2.6591,-2.6591,-2.6591,-2.6591,-2.6591,-2.6591,-2.6591,-2.6591,-2.6591,-2.6591,-3.3222,-3.3888,-3.4693,-3.4788,-3.5174,-3.5368,-3.4932,-3.4835,-3.4775,0.0,-3.4775,0.0,0.0,0.0,0.0,0.0,0.0,0.0,0.0,0.0,0.0,0.0,0.0,0.0,0.0,0.0,0.0,0.0,-3.4775,-3.4811,-3.4883,-3.5364,-3.5653,-3.5713,-3.623,-3.6723,-3.7192,-3.7264,-3.7529,-3.7974,-3.7517,-3.7264,-3.7168,-3.6242,-3.5821,-3.5821,-3.5677,-3.5352,-3.4883,-3.4811,-3.4775,-3.4775,-3.4775,-3.4775,-3.4775,-3.4775,-3.4775,-3.4775,-3.4775,-3.4775,-3.4775,-3.4775,-3.4775,-3.4775,-3.4775,-3.4775,-3.4775,-3.4775,-3.4775,-3.4775,-3.4775,-3.4775,-3.4775,-3.4775,-3.4775,-3.4763,-3.4545,-3.3665,-3.244,-3.0893,-2.8441,-2.6458,-2.5793,-2.5299,-2.4839,-2.4306,-2.4202,-2.4202,-2.4202,-2.4523,-2.4702,-2.4702,-2.506,-2.5479,-2.5828,-2.5901,-2.6113,-2.6481,-2.6509,-2.6527,-2.6591,-2.6591,-2.6591,-2.6591,-2.6591,-2.6591,-2.6591,-2.6591,-2.6591,-2.6591,-2.6591,-2.6591,-3.3458,-3.4032,-3.4576,-3.4569,-3.5004,-3.5271,-3.4872,-3.4775,-3.4775,-3.4775,0.0,0.0,0.0,0.0,0.0,0.0,0.0,0.0,0.0,0.0,0.0,0.0,0.0,0.0,0.0,0.0,0.0,0.0,-3.4775,-3.4775,-3.4775,-3.5003,-3.5172,-3.5172,-3.5689,-3.6074,-3.6314,-3.6892,-3.7312,-3.7529,-3.7,-3.6591,-3.629,-3.5833,-3.5617,-3.5605,-3.5304,-3.504,-3.4775,-3.4775,-3.4775,-3.4775,-3.4775,-3.4775,-3.4775,-3.4775,-3.4775,-3.4775,-3.4775,-3.4775,-3.4775,-3.4775,-3.4775,-3.4775,-3.4775,-3.4775,-3.4775,-3.4775,-3.4775,-3.4775,-3.4775,-3.4775,-3.4775,-3.4775,-3.4775,-3.4775,-3.4775,-3.3967,-3.2621,-3.0732,-2.8396,-2.6641,-2.6295,-2.5708,-2.5186,-2.4909,-2.4891,-2.4891,-2.4891,-2.5047,-2.5115,-2.5115,-2.5515,-2.5828,-2.5993,-2.6232,-2.6389,-2.6582,-2.6591,-2.6591,-2.6591,-2.6591,-2.6591,-2.6591,-2.6591,-2.6591,-2.6591,-2.6591,-2.6591,-2.6591,-2.6591,-2.6591,-3.3845,-3.4229,-3.458,-3.4532,-3.4835,-3.5126,-3.4872,0.0,-3.4775,0.0,0.0,0.0,0.0,0.0,0.0,0.0,0.0,0.0,0.0,0.0,0.0,0.0,0.0,0.0,0.0,0.0,0.0,0.0,-3.4775,-3.4775,-3.4775,-3.4775,-3.4775,-3.4775,-3.5208,-3.5425,-3.5425,-3.6338,-3.6795,-3.6795,-3.6386,-3.6002,-3.5617,-3.5473,-3.5425,-3.5388,-3.4955,-3.4775,-3.4775,-3.4775,-3.4775,-3.4775,-3.4775,-3.4775,-3.4775,-3.4775,-3.4775,-3.4775,-3.4775,-3.4775,-3.4775,-3.4775,-3.4775,-3.4775,-3.4775,-3.4775,-3.4775,-3.4775,-3.4775,-3.4775,-3.4775,-3.4775,-3.4775,-3.4775,-3.4775,-3.4726,-3.447,-3.356,-3.2174,-3.0172,-2.8262,-2.6886,-2.6729,-2.6036,-2.5543,-2.5442,-2.5424,-2.5424,-2.5424,-2.5506,-2.5571,-2.5571,-2.5929,-2.6168,-2.6168,-2.6408,-2.6591,-2.6591,-2.6591,-2.6591,-2.6591,-2.6591,-2.6591,-2.6591,-2.6591,-2.6591,-2.6591,-2.6591,-2.6591,-2.6591,-2.6591,-2.6591,-3.4739,-3.4969,-3.5078,-3.4836,-3.5005,-3.5126,0.0,0.0,0.0,0.0,0.0,0.0,0.0,0.0,0.0,0.0,0.0,0.0,0.0,0.0,0.0,0.0,0.0,0.0,0.0,0.0,0.0,0.0,-3.4775,-3.4775,-3.4775,-3.4775,-3.4775,-3.4775,-3.4859,-3.4823,-3.4823,-3.5425,-3.5701,-3.5701,-3.5665,-3.5641,-3.5605,-3.5051,-3.4823,-3.4823,-3.4799,-3.4775,-3.4775,-3.4775,-3.4775,-3.4775,-3.4775,-3.4775,-3.4775,-3.4775,-3.4775,-3.4775,-3.4775,-3.4775,-3.4775,-3.4775,-3.4775,-3.4775,-3.4775,-3.4775,-3.4775,-3.4775,-3.4775,-3.4775,-3.4775,-3.4775,-3.4775,-3.4775,-3.4775,-3.4519,-3.3511,-3.2437,-3.1257,-2.9797,-2.8339,-2.7163,-2.6511,-2.6153,-2.5855,-2.5479,-2.5424,-2.5424,-2.5424,-2.5745,-2.5984,-2.5984,-2.6307,-2.6554,-2.6554,-2.6582,-2.6591,-2.6591,-2.6591,-2.6591,-2.6591,-2.6591,-2.6591,-2.6591,-2.6591,-2.6591,-2.6591,-2.6591,-2.6591,-2.6591,-2.6591,-2.6591,-3.5328,-3.5235,-3.5126,-3.4884,-3.4981,-3.5126,-3.4872,-3.4775,-3.4775,0.0,0.0,0.0,0.0,0.0,0.0,0.0,0.0,0.0,0.0,0.0,0.0,0.0,0.0,0.0,0.0,0.0,0.0,0.0,0.0,-3.4775,-3.4775,-3.4775,-3.4775,-3.4775,-3.445,-3.4282,-3.4282,-3.4186,-3.4463,-3.51,-3.4715,-3.4727,-3.51,-3.4871,-3.4775,-3.4775,-3.4775,-3.4775,-3.4775,-3.4775,-3.4775,-3.4775,-3.4775,-3.4775,-3.4775,-3.4775,-3.4775,-3.4775,-3.4775,-3.4775,-3.4775,-3.4775,-3.4775,-3.4775,-3.4775,-3.4775,-3.4775,-3.4775,-3.4775,-3.4775,-3.4775,-3.4775,-3.4775,-3.4775,-3.4775,-3.4519,-3.3449,-3.2901,-3.2286,-3.1103,-2.9545,-2.816,-2.7223,-2.6686,-2.6316,-2.6178,-2.6151,-2.6151,-2.6151,-2.6279,-2.6461,-2.6613,-2.6599,-2.6691,-2.6836,-2.6691,-2.6591,-2.6591,-2.6591,-2.6691,-2.6836,-2.6836,-2.6954,-2.7116,-2.7116,-2.7008,-2.6836,-2.6836,-2.6944,-2.7116,-2.7116,-2.7008,-3.5665,-3.5463,-3.5247,-3.4871,-3.492,-3.503,-3.4823,0.0,0.0,0.0,0.0,0.0,0.0,0.0,0.0,0.0,0.0,0.0,0.0,0.0,0.0,0.0,0.0,0.0,0.0,0.0,0.0,0.0,0.0,0.0,-3.4775,-3.4775,-3.4703,-3.4522,-3.3838,-3.3478,-3.3478,-3.32,-3.3368,-3.4042,-3.3994,-3.4174,-3.4522,-3.4703,-3.4775,-3.4775,-3.4775,-3.4775,-3.4775,-3.4775,-3.4775,-3.4775,-3.4775,-3.4775,-3.4775,-3.4775,-3.4775,-3.4775,-3.4775,-3.4775,-3.4775,-3.4775,-3.4775,-3.4775,-3.4775,-3.4775,-3.4775,-3.4775,-3.4775,-3.4775,-3.4775,-3.4775,-3.4775,-3.4775,-3.4775,-3.4519,-3.3449,-3.3201,-3.2839,-3.1666,-3.0172,-2.8827,-2.7931,-2.7152,-2.6646,-2.6745,-2.6736,-2.6791,-2.6854,-2.6791,-2.6791,-2.6989,-2.6736,-2.6691,-2.6836,-2.6691,-2.6591,-2.6591,-2.6691,-2.6791,-2.6989,-2.7098,-2.7206,-2.7377,-2.7377,-2.7368,-2.7314,-2.7206,-2.7215,-2.7377,-2.7377,-2.7368,0.0,0.0,0.0,-3.4931,-3.4787,-3.4775,-3.4775,0.0,-3.4775,0.0,0.0,0.0,0.0,0.0,0.0,0.0,0.0,0.0,0.0,0.0,0.0,0.0,0.0,0.0,0.0,0.0,0.0,0.0,-3.4775,-3.4775,-3.4775,-3.4763,-3.451,-3.3982,-3.3032,-3.2491,-3.2478,-3.2478,-3.2478,-3.2515,-3.349,-3.3982,-3.4006,-3.4534,-3.4775,-3.4775,-3.4775,-3.4775,-3.4775,-3.4775,-3.4775,-3.4775,-3.4775,-3.4775,-3.4775,-3.4775,-3.4775,-3.4775,-3.4775,-3.4775,-3.4775,-3.4775,-3.4775,-3.4775,-3.4775,-3.4775,-3.4775,-3.4775,-3.4775,-3.4775,-3.4775,-3.4775,-3.4775,-3.4775,-3.4775,-3.4519,-3.3449,-3.325,-3.2828,-3.1367,-3.0047,-2.9029,-2.8681,-2.7501,-2.6691,-2.6989,-2.6989,-2.7098,-2.7377,-2.7152,-2.6989,-2.6989,-2.6736,-2.6591,-2.6591,-2.6591,-2.6591,-2.6591,-2.6836,-2.7043,-2.7043,-2.726,-2.7431,-2.7431,-2.7431,-2.7593,-2.7906,-2.7584,-2.7431,-2.7431,-2.7431,-2.7593,-3.6795,0.0,0.0,0.0,0.0,0.0,-3.4775,-3.4775,-3.4775,0.0,0.0,0.0,0.0,0.0,0.0,0.0,0.0,0.0,0.0,0.0,0.0,0.0,0.0,0.0,0.0,0.0,0.0,0.0,-3.4775,-3.4775,-3.4775,-3.4414,-3.3982,-3.3513,-3.2851,-3.2298,-3.1946,-3.1934,-3.2094,-3.2515,-3.3176,-3.3681,-3.4006,-3.4534,-3.4775,-3.4775,-3.4775,-3.4775,-3.4775,-3.4775,-3.4775,-3.4775,-3.4775,-3.4775,-3.4775,-3.4775,-3.4775,-3.4775,-3.4775,-3.4775,-3.4775,-3.4775,-3.4775,-3.4775,-3.4775,-3.4775,-3.4775,-3.4775,-3.4775,-3.4775,-3.4775,-3.4775,-3.4775,-3.4775,-3.4775,-3.4726,-3.4421,-3.4372,-3.3758,-3.1819,-3.0979,-3.0296,-2.942,-2.8092,-2.7215,-2.726,-2.7269,-2.7269,-2.7152,-2.7043,-2.6989,-2.6989,-2.6736,-2.6691,-2.689,-2.689,-2.689,-2.689,-2.7161,-2.7422,-2.7638,-2.7745,-2.7853,-2.8023,-2.8023,-2.8077,-2.8184,-2.7906,-2.7853,-2.8023,-2.7853,-2.7799,-3.7252,-3.6747,-3.617,-3.5725,0.0,0.0,-3.4823,-3.4775,-3.4775,0.0,0.0,0.0,0.0,0.0,0.0,0.0,0.0,0.0,0.0,0.0,0.0,0.0,0.0,0.0,0.0,-3.4775,-3.4775,-3.4775,-3.4775,-3.4775,-3.4775,-3.4126,-3.3585,-3.3296,-3.2551,-3.2042,-3.1705,-3.1705,-3.1874,-3.2154,-3.2707,-3.3224,-3.3753,-3.421,-3.457,-3.4775,-3.4775,-3.4775,-3.4775,-3.4775,-3.4775,-3.4775,-3.4775,-3.4775,-3.4775,-3.4775,-3.4775,-3.4775,-3.4775,-3.4775,-3.4775,-3.4775,-3.4775,-3.4775,-3.4775,-3.4775,-3.4775,-3.4775,-3.4775,-3.4775,-3.4775,-3.4775,-3.4775,-3.4775,-3.4775,-3.4677,-3.4213,-3.4115,-3.3918,-3.3101,-3.2314,-3.1622,-3.0968,-2.9335,-2.8155,-2.8252,-2.7897,-2.753,-2.7422,-2.726,-2.7098,-2.6989,-2.6836,-2.6845,-2.6989,-2.7098,-2.7152,-2.7152,-2.7422,-2.7691,-2.7906,-2.8014,-2.813,-2.8291,-2.8291,-2.8291,-2.8291,-2.813,-2.813,-2.8291,-2.813,-2.8164,-3.7409,-3.724,-3.6964,-3.6026,-3.5701,0.0,-3.4979,-3.4823,-3.4775,-3.4775,0.0,0.0,0.0,0.0,0.0,0.0,0.0,0.0,0.0,0.0,0.0,0.0,0.0,0.0,-3.4775,-3.4775,-3.4775,-3.4775,-3.4775,-3.4775,-3.4775,-3.3849,-3.3284,-3.3284,-3.2271,-3.1705,-3.1705,-3.1705,-3.1705,-3.1717,-3.2238,-3.2779,-3.3308,-3.3813,-3.4282,-3.4775,-3.4775,-3.4775,-3.4775,-3.4775,-3.4775,-3.4775,-3.4775,-3.4775,-3.4775,-3.4775,-3.4775,-3.4775,-3.4775,-3.4775,-3.4775,-3.4775,-3.4775,-3.4775,-3.4775,-3.4775,-3.4775,-3.4775,-3.4775,-3.4775,-3.4775,-3.4726,-3.4628,-3.4628,-3.4628,-3.4372,-3.3411,-3.33,-3.361,-3.447,-3.3438,-3.2504,-3.2655,-3.0721,-2.9292,-2.9482,-2.8721,-2.8057,-2.7906,-2.7638,-2.7368,-2.7098,-2.7043,-2.7043,-2.7043,-2.7323,-2.7485,-2.7485,-2.7745,-2.796,-2.796,-2.8184,-2.8291,-2.8291,-2.8291,-2.8291,-2.8291,-2.8291,-2.8291,-2.8291,-2.834,-2.8564,0.0,0.0,0.0,0.0,0.0,0.0,-3.5485,-3.5087,-3.4775,0.0,0.0,0.0,0.0,0.0,0.0,0.0,0.0,0.0,0.0,0.0,0.0,0.0,0.0,0.0,-3.4775,-3.4775,-3.4775,-3.4775,-3.4775,-3.4775,-3.4775,-3.3849,-3.3284,-3.3284,-3.2271,-3.1705,-3.1705,-3.1705,-3.1705,-3.1717,-3.2238,-3.2779,-3.3308,-3.3813,-3.4282,-3.4775,-3.4775,-3.4775,-3.4775,-3.4775,-3.4775,-3.4775,-3.4775,-3.4775,-3.4775,-3.4775,-3.4775,-3.4775,-3.4775,-3.4775,-3.4775,-3.4775,-3.4775,-3.4775,-3.4775,-3.4775,-3.4775,-3.4775,-3.4775,-3.4775,-3.4775,-3.4164,-3.3511,-3.3511,-3.3511,-3.3449,-3.325,-3.3857,-3.4274,-3.3659,-3.1858,-3.0742,-3.1677,-3.0691,-2.9765,-2.9807,-2.966,-2.9092,-2.8057,-2.7853,-2.7691,-2.7377,-2.7323,-2.7323,-2.7323,-2.7638,-2.7799,-2.7799,-2.8077,-2.8237,-2.8237,-2.8291,-2.8291,-2.8291,-2.8291,-2.8291,-2.8291,-2.8291,-2.8291,-2.8301,-2.8643,-2.8838,0.0,0.0,0.0,-3.7264,0.0,0.0,0.0,-3.5412,-3.5148,0.0,0.0,0.0,0.0,0.0,0.0,0.0,0.0,0.0,0.0,0.0,0.0,0.0,0.0,0.0,-3.4775,-3.4775,-3.4775,-3.4775,-3.4775,-3.4775,-3.4775,-3.3849,-3.3284,-3.3284,-3.2271,-3.1705,-3.1705,-3.1705,-3.1705,-3.1705,-3.1994,-3.237,-3.2911,-3.3428,-3.3945,-3.4402,-3.4667,-3.4775,-3.4775,-3.4775,-3.4775,-3.4775,-3.4775,-3.4775,-3.4775,-3.4775,-3.4775,-3.4775,-3.4775,-3.4775,-3.4775,-3.4775,-3.4775,-3.4775,-3.4775,-3.4775,-3.4775,-3.4775,-3.4775,-3.4775,-3.4775,-3.4421,-3.3857,-3.335,-3.3201,-3.3201,-3.3201,-3.3201,-3.3201,-3.3201,-3.1869,-3.0959,-3.1524,-3.1114,-3.0753,-3.0753,-3.0276,-2.9608,-2.8774,-2.8208,-2.7745,-2.7431,-2.753,-2.7638,-2.7638,-2.7916,-2.8121,-2.8121,-2.8237,-2.8291,-2.8291,-2.8291,-2.8291,-2.8291,-2.8291,-2.8291,-2.8291,-2.8506,-2.8603,-2.8613,-2.8818,-2.9141,0.0,0.0,0.0,0.0,0.0,-3.694,0.0,0.0,0.0,0.0,0.0,0.0,0.0,0.0,0.0,0.0,0.0,0.0,0.0,0.0,0.0,0.0,0.0,0.0,-3.4775,-3.4775,-3.4775,-3.4775,-3.4775,-3.4775,-3.4775,-3.3849,-3.3284,-3.3284,-3.2271,-3.1705,-3.1705,-3.1705,-3.1705,-3.1705,-3.1705,-3.1961,-3.2515,-3.3044,-3.3573,-3.4018,-3.4546,-3.4775,-3.4775,-3.4775,-3.4775,-3.4775,-3.4775,-3.4775,-3.4775,-3.4775,-3.4775,-3.4775,-3.4775,-3.4775,-3.4775,-3.4775,-3.4775,-3.4775,-3.4775,-3.4775,-3.4775,-3.4775,-3.4775,-3.4775,-3.4775,-3.4628,-3.4262,-3.3411,-3.3201,-3.3151,-3.2951,-3.2549,-3.2336,-3.2789,-3.2336,-3.183,-3.1637,-3.1575,-3.1524,-3.1319,-3.0494,-2.9765,-2.9335,-2.8518,-2.7853,-2.7593,-2.7809,-2.796,-2.796,-2.8184,-2.8291,-2.8291,-2.8291,-2.8291,-2.8291,-2.8291,-2.8291,-2.8291,-2.8291,-2.833,-2.8418,-2.875,-2.8916,-2.8926,-2.9092,-2.9531,0.0,0.0,0.0,0.0,-3.7541,0.0,0.0,0.0,0.0,0.0,0.0,0.0,0.0,0.0,0.0,0.0,0.0,0.0,0.0,0.0,0.0,0.0,0.0,0.0,0.0,-3.4775,-3.4775,-3.4775,-3.4775,-3.4775,-3.4775,-3.3849,-3.3284,-3.3284,-3.2271,-3.1705,-3.1705,-3.1705,-3.1705,-3.1705,-3.1705,-3.1961,-3.2515,-3.3044,-3.3573,-3.4018,-3.4546,-3.4775,-3.4775,-3.4775,-3.4775,-3.4775,-3.4775,-3.4775,-3.4775,-3.4775,-3.4775,-3.4775,-3.4775,-3.4775,-3.4775,-3.4775,-3.4775,-3.4775,-3.4775,-3.4775,-3.4775,-3.4775,-3.4775,-3.4775,-3.4775,-3.4066,-3.335,-3.325,-3.3201,-3.2951,-3.1982,-3.3201,-3.3918,-3.2134,-3.2437,-3.2739,-3.1779,-3.1575,-3.1268,-3.0235,-2.9974,-2.9565,-2.8538,-2.8344,-2.8237,-2.8184,-2.8237,-2.8237,-2.8237,-2.8291,-2.8291,-2.8291,-2.8291,-2.8291,-2.8291,-2.8291,-2.8291,-2.8291,-2.8291,-2.8476,-2.8848,-2.8896,-2.8916,-2.8935,-2.9697,-3.0107,0.0,0.0,0.0,0.0,0.0,0.0,-3.6988,0.0,-3.5918,0.0,0.0,0.0,0.0,0.0,0.0,0.0,-3.4631,0.0,0.0,0.0,0.0,0.0,0.0,0.0,0.0,0.0,0.0,0.0,-3.4775,-3.4775,-3.4775,-3.4078,-3.3585,-3.3296,-3.2551,-3.1985,-3.1705,-3.1705,-3.1874,-3.2154,-3.2154,-3.243,-3.2971,-3.3489,-3.379,-3.4018,-3.4546,-3.4775,-3.4775,-3.4775,-3.4775,-3.4775,-3.4775,-3.4775,-3.4775,-3.4775,-3.4775,-3.4775,-3.4775,-3.4775,-3.4775,-3.4775,-3.4775,-3.4775,-3.4775,-3.4775,-3.4775,-3.4775,-3.4775,-3.4677,-3.4017,-3.4017,-3.3808,-3.2588,-3.275,-3.2901,-3.183,-3.2286,-3.27,-3.1779,-3.2488,-3.2839,-3.1779,-3.1575,-3.1421,-3.0959,-3.0338,-2.9723,-2.9313,-2.8708,-2.8291,-2.8291,-2.8291,-2.8291,-2.8291,-2.8291,-2.8291,-2.8291,-2.8291,-2.8291,-2.8291,-2.8291,-2.8408,-2.8652,-2.8662,-2.8867,-2.9297,-2.9541,-2.9658,-2.9668,-3.0029,-3.0342,-3.7986,0.0,0.0,0.0,0.0,0.0,0.0,0.0,0.0,0.0,0.0,0.0,0.0,0.0,0.0,-3.4583,0.0,-3.4727,0.0,0.0,0.0,0.0,0.0,0.0,0.0,0.0,0.0,0.0,0.0,-3.4775,-3.4775,-3.4282,-3.3754,-3.3308,-3.2779,-3.2298,-3.1901,-3.1934,-3.2166,-3.2719,-3.2719,-3.2911,-3.3308,-3.3813,-3.3994,-3.4018,-3.4546,-3.4775,-3.4775,-3.4775,-3.4775,-3.4775,-3.4775,-3.4775,-3.4775,-3.4775,-3.4775,-3.4775,-3.4775,-3.4775,-3.4775,-3.4775,-3.4775,-3.4775,-3.4775,-3.4775,-3.4775,-3.4775,-3.4775,-3.4628,-3.3857,-3.4225,-3.4421,-3.2851,-3.3051,-3.335,-3.2286,-3.2286,-3.2286,-3.1728,-3.2488,-3.2839,-3.1779,-3.1575,-3.1575,-3.1575,-3.039,-2.9565,-2.9869,-2.8953,-2.8291,-2.8291,-2.8291,-2.8291,-2.8291,-2.8291,-2.8291,-2.8291,-2.8291,-2.8291,-2.8291,-2.8398,-2.8603,-2.8916,-2.9033,-2.9307,-2.9746,-3.0049,-3.0264,-3.0391,-3.0391,-3.0566,0.0,0.0,0.0,-3.7986,0.0,0.0,0.0,0.0,-3.6254,0.0,0.0,0.0,0.0,0.0,-3.4619,-3.4102,-3.445,0.0,0.0,0.0,0.0,0.0,0.0,0.0,0.0,0.0,0.0,0.0,-3.4775,0.0,-3.4775,-3.4282,-3.3754,-3.3308,-3.2779,-3.2491,-3.2466,-3.2466,-3.2743,-3.326,-3.326,-3.3272,-3.3308,-3.3813,-3.3994,-3.4018,-3.4546,-3.4775,-3.4775,-3.4775,-3.4775,-3.4775,-3.4775,-3.4775,-3.4775,-3.4775,-3.4775,-3.4775,-3.4775,-3.4775,-3.4775,-3.4775,-3.4775,-3.4775,-3.4775,-3.4775,-3.4775,-3.4775,-3.4775,-3.4775,-3.4775,-3.4775,-3.4775,-3.4726,-3.4726,-3.447,-3.3362,-3.3956,-3.4066,-3.1982,-3.2488,-3.2839,-3.1779,-3.1575,-3.1575,-3.1575,-2.9733,-2.8751,-2.9765,-2.8953,-2.8291,-2.8291,-2.8291,-2.8291,-2.8291,-2.8291,-2.8291,-2.8291,-2.8291,-2.8291,-2.8291,-2.8682,-2.8906,-2.8916,-2.9336,-2.9756,-3.0176,-3.0185,-3.043,-3.0869,-3.0869,-3.0879,0.0,0.0,-3.7986,-3.7986,0.0,0.0,0.0,0.0,0.0,0.0,0.0,0.0,0.0,0.0,-3.4727,-3.4546,-3.4667,-3.4715,0.0,0.0,0.0,0.0,0.0,0.0,0.0,0.0,0.0,0.0,-3.4775,0.0,-3.4775,-3.4607,-3.427,-3.3801,-3.3609,-3.3356,-3.3032,-3.302,-3.3284,-3.3742,-3.3742,-3.397,-3.4318,-3.4438,-3.451,-3.4522,-3.4703,-3.4775,-3.4775,-3.4775,-3.4775,-3.4775,-3.4775,-3.4775,-3.4775,-3.4775,-3.4775,-3.4775,-3.4775,-3.4775,-3.4775,-3.4775,-3.4775,-3.4775,-3.4775,-3.4775,-3.4775,-3.4775,-3.4775,-3.4628,-3.3918,-3.4274,-3.4628,-3.3918,-3.3758,-3.3659,-3.325,-3.2951,-3.2488,-3.1728,-3.2488,-3.2839,-3.1779,-3.1575,-3.1319,-3.0598,-2.9217,-2.8451,-2.8804,-2.8495,-2.8291,-2.8291,-2.8291,-2.8291,-2.8291,-2.8291,-2.8291,-2.8291,-2.8555,-2.8711,-2.8711,-2.9121,-2.9482,-2.9766,-2.9912,-3.0205,-3.0654,-3.0654,-3.0732,-3.0889,-3.0889,-3.0889,-3.7986,-3.7986,0.0,-3.7986,-3.7986,0.0,-3.7986,0.0,0.0,0.0,0.0,0.0,0.0,0.0,-3.4775,-3.4775,-3.4775,-3.4775,0.0,-3.4775,0.0,0.0,0.0,0.0,0.0,0.0,0.0,-3.4775,-3.4775,-3.4775,0.0,-3.4775,-3.4619,-3.4282,-3.427,-3.4114,-3.3837,-3.3837,-3.4006,-3.427,-3.427,-3.445,-3.4775,-3.4775,-3.4775,-3.4775,-3.4775,-3.4775,-3.4775,-3.4775,-3.4775,-3.4775,-3.4775,-3.4775,-3.4775,-3.4775,-3.4775,-3.4775,-3.4775,-3.4775,-3.4775,-3.4775,-3.4775,-3.4775,-3.4775,-3.4775,-3.4775,-3.4775,-3.4775,-3.4628,-3.3967,-3.4274,-3.4628,-3.3918,-3.3758,-3.3659,-3.33,-3.2639,-3.1931,-3.1165,-3.1564,-3.1666,-3.0608,-3.0453,-3.0453,-3.0494,-2.927,-2.8451,-2.8804,-2.8548,-2.8291,-2.8291,-2.8291,-2.8291,-2.8291,-2.8428,-2.8516,-2.8516,-2.8916,-2.915,-2.915,-2.956,-2.9922,-3.0185,-3.0361,-3.0596,-3.0889,-3.0889,-3.0889,-3.0889,-3.0889,-3.0889]},{"header":{"parameterUnit":"m.s-1","parameterCategory":1,"la1":30.6,"la2":29.2853,"lo1":-89.7004,"lo2":-87.6739,"dy":0.0162,"dx":0.0183,"nx":112,"ny":82,"refTime":"2024-04-24T12:00:00:Z","depth":0,"parameterNumber":3,"parameterNumberName":"V-component_of_WINDS"},"data":[0.0,0.0,0.0,0.0,0.0,0.0,0.0,0.0,0.0,0.0,0.0,0.0,0.0,0.0,0.0,0.0,0.0,0.0,0.0,0.0,0.0,0.0,0.0,0.0,0.0,0.0,0.0,0.0,0.0,0.0,0.0,0.0,0.0,0.0,0.0,0.0,0.0,0.0,0.0,0.0,0.0,0.0,0.0,0.0,0.0,0.0,0.0,0.0,0.0,0.0,0.0,0.0,0.0,0.0,0.0,0.0,0.0,0.0,0.0,0.0,0.0,0.0,0.0,0.0,0.0,0.0,0.0,0.0,0.0,0.0,0.0,0.0,0.0,0.0,0.0,0.0,0.0,0.0,0.0,0.0,0.0,0.0,0.0,0.0,0.0,0.0,0.0,0.0,0.0,0.0,0.0,2.9566,3.0923,3.18,3.18,3.18,3.18,3.18,0.0,0.0,0.0,0.0,0.0,0.0,0.0,0.0,0.0,0.0,0.0,0.0,0.0,0.0,0.0,0.0,0.0,0.0,0.0,0.0,0.0,0.0,0.0,0.0,0.0,0.0,0.0,0.0,0.0,0.0,0.0,0.0,0.0,0.0,0.0,0.0,0.0,0.0,0.0,0.0,0.0,0.0,0.0,0.0,0.0,0.0,0.0,0.0,0.0,0.0,0.0,0.0,0.0,0.0,0.0,0.0,0.0,0.0,0.0,0.0,0.0,0.0,0.0,0.0,0.0,0.0,0.0,0.0,0.0,0.0,0.0,0.0,0.0,0.0,0.0,0.0,0.0,0.0,0.0,0.0,0.0,0.0,0.0,0.0,0.0,0.0,0.0,0.0,0.0,0.0,0.0,0.0,0.0,0.0,0.0,0.0,0.0,0.0,0.0,0.0,0.0,0.0,0.0,0.0,2.9908,3.076,3.1416,3.18,3.18,3.18,3.18,3.18,0.0,0.0,0.0,0.0,0.0,0.0,0.0,0.0,0.0,0.0,0.0,0.0,0.0,0.0,0.0,0.0,0.0,0.0,0.0,0.0,0.0,0.0,0.0,0.0,0.0,0.0,0.0,0.0,0.0,0.0,0.0,0.0,0.0,0.0,0.0,0.0,0.0,0.0,0.0,0.0,0.0,0.0,0.0,0.0,0.0,0.0,0.0,0.0,0.0,0.0,0.0,0.0,0.0,0.0,0.0,0.0,0.0,0.0,0.0,0.0,0.0,0.0,0.0,0.0,0.0,0.0,0.0,0.0,0.0,0.0,0.0,0.0,0.0,0.0,0.0,0.0,0.0,0.0,0.0,0.0,0.0,0.0,0.0,0.0,0.0,0.0,0.0,0.0,0.0,0.0,0.0,0.0,0.0,0.0,0.0,0.0,0.0,0.0,0.0,0.0,0.0,0.0,0.0,2.999,3.0502,3.1391,3.1671,3.18,3.18,3.18,3.18,3.18,3.18,0.0,0.0,0.0,0.0,0.0,0.0,0.0,0.0,0.0,0.0,0.0,0.0,0.0,0.0,0.0,0.0,0.0,0.0,0.0,0.0,0.0,0.0,0.0,0.0,0.0,0.0,0.0,0.0,0.0,0.0,0.0,0.0,0.0,0.0,0.0,0.0,0.0,0.0,0.0,0.0,0.0,0.0,0.0,0.0,0.0,0.0,0.0,0.0,0.0,0.0,0.0,0.0,0.0,0.0,0.0,0.0,0.0,0.0,0.0,0.0,0.0,0.0,0.0,0.0,0.0,0.0,0.0,0.0,0.0,0.0,0.0,0.0,0.0,0.0,0.0,0.0,0.0,0.0,0.0,0.0,0.0,0.0,0.0,0.0,0.0,0.0,0.0,0.0,0.0,0.0,0.0,0.0,0.0,0.0,0.0,0.0,0.0,0.0,0.0,0.0,0.0,0.0,3.0621,3.1004,3.1578,3.1727,3.18,3.18,3.18,3.18,3.18,3.18,0.0,0.0,0.0,0.0,0.0,0.0,0.0,0.0,0.0,0.0,0.0,0.0,0.0,0.0,0.0,0.0,0.0,0.0,0.0,0.0,0.0,0.0,0.0,0.0,0.0,0.0,0.0,0.0,0.0,0.0,0.0,0.0,0.0,0.0,0.0,0.0,0.0,0.0,0.0,0.0,0.0,0.0,0.0,0.0,0.0,0.0,0.0,0.0,0.0,0.0,0.0,0.0,0.0,0.0,0.0,0.0,0.0,0.0,0.0,0.0,0.0,0.0,0.0,0.0,0.0,0.0,0.0,0.0,0.0,0.0,0.0,0.0,0.0,0.0,0.0,0.0,0.0,0.0,0.0,0.0,0.0,0.0,0.0,0.0,0.0,0.0,0.0,0.0,0.0,0.0,0.0,0.0,0.0,0.0,0.0,0.0,0.0,0.0,0.0,0.0,0.0,0.0,3.0945,3.156,3.1181,3.1542,3.18,3.18,3.18,3.18,3.18,3.18,0.0,0.0,0.0,0.0,0.0,0.0,0.0,0.0,0.0,0.0,0.0,0.0,0.0,0.0,0.0,0.0,0.0,0.0,0.0,0.0,0.0,0.0,0.0,0.0,0.0,0.0,0.0,0.0,0.0,0.0,0.0,0.0,0.0,0.0,0.0,0.0,0.0,0.0,0.0,0.0,0.0,0.0,0.0,0.0,0.0,0.0,0.0,0.0,0.0,0.0,0.0,0.0,0.0,0.0,0.0,0.0,0.0,0.0,0.0,0.0,0.0,0.0,0.0,0.0,0.0,0.0,0.0,0.0,0.0,0.0,0.0,0.0,0.0,0.0,0.0,0.0,0.0,0.0,0.0,0.0,0.0,0.0,0.0,0.0,0.0,0.0,0.0,0.0,0.0,0.0,0.0,0.0,0.0,0.0,0.0,0.0,0.0,0.0,0.0,0.0,0.0,0.0,3.0828,3.1411,0.0,3.169,3.18,3.18,3.18,3.18,3.18,0.0,0.0,0.0,0.0,0.0,0.0,0.0,0.0,0.0,0.0,0.0,0.0,0.0,0.0,0.0,0.0,0.0,0.0,0.0,0.0,0.0,0.0,0.0,0.0,0.0,0.0,0.0,0.0,0.0,0.0,0.0,0.0,0.0,0.0,0.0,0.0,0.0,0.0,0.0,0.0,0.0,0.0,0.0,0.0,0.0,0.0,0.0,0.0,0.0,0.0,0.0,0.0,0.0,0.0,0.0,0.0,0.0,0.0,0.0,0.0,0.0,0.0,0.0,0.0,0.0,0.0,0.0,0.0,0.0,0.0,0.0,0.0,0.0,0.0,0.0,0.0,0.0,0.0,0.0,0.0,0.0,0.0,0.0,0.0,0.0,0.0,0.0,0.0,0.0,0.0,0.0,0.0,0.0,0.0,0.0,0.0,0.0,0.0,0.0,0.0,0.0,0.0,3.0123,3.0828,3.1391,0.0,3.1709,3.18,3.18,3.18,3.18,3.18,0.0,0.0,0.0,0.0,0.0,0.0,0.0,0.0,0.0,0.0,0.0,0.0,0.0,0.0,0.0,0.0,0.0,0.0,0.0,0.0,0.0,0.0,0.0,0.0,0.0,0.0,0.0,0.0,0.0,0.0,0.0,0.0,0.0,0.0,0.0,0.0,0.0,0.0,0.0,0.0,0.0,0.0,0.0,0.0,0.0,0.0,0.0,0.0,0.0,0.0,0.0,0.0,0.0,0.0,0.0,0.0,0.0,0.0,0.0,0.0,0.0,0.0,0.0,0.0,0.0,0.0,0.0,0.0,0.0,0.0,0.0,0.0,0.0,0.0,0.0,0.0,0.0,0.0,0.0,0.0,0.0,0.0,0.0,0.0,0.0,0.0,0.0,0.0,0.0,0.0,0.0,0.0,0.0,0.0,0.0,0.0,0.0,0.0,0.0,0.0,0.0,0.0,2.9892,3.0998,3.1651,3.1196,3.154,3.18,3.18,3.18,3.18,0.0,0.0,0.0,0.0,0.0,0.0,0.0,0.0,0.0,0.0,0.0,0.0,0.0,0.0,0.0,0.0,0.0,0.0,0.0,0.0,0.0,0.0,0.0,0.0,0.0,0.0,0.0,0.0,0.0,0.0,0.0,0.0,0.0,0.0,0.0,0.0,0.0,0.0,0.0,0.0,0.0,0.0,0.0,0.0,0.0,0.0,0.0,0.0,0.0,0.0,0.0,0.0,0.0,0.0,0.0,0.0,0.0,0.0,0.0,0.0,0.0,0.0,0.0,0.0,0.0,0.0,0.0,0.0,0.0,0.0,0.0,0.0,0.0,0.0,0.0,0.0,0.0,0.0,0.0,0.0,0.0,0.0,0.0,0.0,0.0,0.0,0.0,0.0,0.0,0.0,0.0,0.0,0.0,0.0,0.0,0.0,0.0,0.0,0.0,0.0,0.0,0.0,0.0,3.167,3.2696,3.3345,3.3094,3.273,3.2515,3.2515,3.1981,3.1709,3.18,0.0,0.0,0.0,0.0,0.0,0.0,0.0,0.0,0.0,0.0,0.0,0.0,0.0,0.0,0.0,0.0,0.0,0.0,0.0,0.0,0.0,0.0,0.0,0.0,0.0,0.0,0.0,0.0,0.0,0.0,0.0,0.0,0.0,0.0,0.0,0.0,0.0,0.0,0.0,0.0,0.0,0.0,0.0,0.0,0.0,0.0,0.0,0.0,0.0,0.0,0.0,0.0,0.0,0.0,0.0,0.0,0.0,0.0,0.0,0.0,0.0,0.0,0.0,0.0,0.0,0.0,0.0,0.0,0.0,0.0,0.0,0.0,0.0,0.0,0.0,0.0,0.0,0.0,0.0,0.0,0.0,0.0,0.0,0.0,0.0,0.0,0.0,0.0,0.0,0.0,0.0,0.0,0.0,0.0,0.0,0.0,0.0,0.0,0.0,0.0,0.0,0.0,3.2395,3.3313,3.39,3.3822,3.3428,3.3191,3.323,3.2762,3.2507,3.2714,0.0,0.0,0.0,0.0,0.0,0.0,0.0,0.0,0.0,0.0,0.0,0.0,0.0,0.0,0.0,0.0,0.0,0.0,0.0,0.0,0.0,0.0,0.0,0.0,0.0,0.0,0.0,0.0,0.0,0.0,0.0,0.0,0.0,0.0,0.0,0.0,0.0,0.0,0.0,0.0,0.0,0.0,0.0,0.0,0.0,0.0,0.0,0.0,0.0,0.0,0.0,0.0,0.0,0.0,0.0,0.0,0.0,0.0,0.0,0.0,0.0,0.0,0.0,0.0,0.0,0.0,0.0,0.0,0.0,0.0,0.0,0.0,0.0,0.0,0.0,0.0,0.0,0.0,0.0,0.0,0.0,0.0,0.0,0.0,0.0,0.0,0.0,0.0,0.0,0.0,0.0,0.0,0.0,0.0,0.0,0.0,0.0,0.0,0.0,0.0,0.0,0.0,3.2521,3.3324,3.3926,3.3905,3.3837,3.3844,3.3962,3.3796,3.3802,3.4056,0.0,0.0,0.0,0.0,0.0,0.0,0.0,0.0,0.0,0.0,0.0,0.0,0.0,0.0,0.0,0.0,0.0,0.0,0.0,0.0,0.0,0.0,0.0,0.0,0.0,0.0,0.0,0.0,0.0,0.0,0.0,0.0,0.0,0.0,0.0,0.0,0.0,0.0,0.0,0.0,0.0,0.0,0.0,0.0,0.0,0.0,0.0,0.0,0.0,0.0,0.0,0.0,0.0,0.0,0.0,0.0,0.0,0.0,0.0,0.0,2.8482,0.0,0.0,0.0,0.0,0.0,0.0,0.0,0.0,0.0,0.0,0.0,0.0,0.0,0.0,0.0,0.0,0.0,0.0,0.0,0.0,0.0,0.0,0.0,0.0,0.0,0.0,0.0,0.0,0.0,0.0,0.0,0.0,0.0,0.0,0.0,0.0,0.0,0.0,0.0,0.0,0.0,3.4027,3.4919,3.5476,3.5346,3.484,3.45,3.4517,3.4017,3.3761,3.394,3.3862,0.0,0.0,0.0,0.0,0.0,0.0,0.0,0.0,0.0,0.0,0.0,0.0,0.0,0.0,0.0,0.0,0.0,0.0,0.0,0.0,0.0,0.0,0.0,0.0,0.0,0.0,0.0,0.0,0.0,0.0,0.0,0.0,0.0,0.0,0.0,0.0,0.0,0.0,0.0,0.0,0.0,0.0,0.0,0.0,0.0,0.0,0.0,0.0,0.0,0.0,0.0,0.0,0.0,0.0,0.0,0.0,0.0,0.0,0.0,0.0,2.9679,0.0,0.0,0.0,0.0,0.0,0.0,0.0,0.0,0.0,0.0,0.0,0.0,0.0,0.0,0.0,0.0,0.0,0.0,0.0,0.0,0.0,0.0,0.0,0.0,0.0,0.0,0.0,0.0,0.0,0.0,0.0,0.0,0.0,0.0,0.0,0.0,0.0,0.0,0.0,0.0,3.4284,3.5184,3.5778,3.5711,3.5372,3.5174,3.5217,3.4844,3.4729,3.4998,3.4675,0.0,0.0,0.0,0.0,0.0,0.0,0.0,0.0,0.0,0.0,0.0,0.0,0.0,0.0,0.0,0.0,0.0,0.0,0.0,0.0,0.0,0.0,0.0,0.0,0.0,0.0,0.0,0.0,0.0,0.0,0.0,0.0,0.0,0.0,0.0,0.0,0.0,0.0,0.0,0.0,0.0,0.0,0.0,0.0,0.0,0.0,0.0,0.0,0.0,0.0,0.0,0.0,0.0,3.0402,3.0402,3.0402,3.0509,3.0555,3.0597,3.0928,3.0825,3.0428,0.0,0.0,0.0,0.0,0.0,0.0,0.0,0.0,0.0,0.0,0.0,0.0,0.0,0.0,0.0,0.0,0.0,0.0,0.0,0.0,0.0,0.0,0.0,0.0,0.0,3.2187,3.216,0.0,0.0,0.0,0.0,0.0,0.0,0.0,0.0,0.0,0.0,0.0,0.0,3.4226,3.5015,3.56,3.56,3.56,3.5644,3.5751,3.5706,3.5778,3.6118,3.5476,3.5176,0.0,0.0,0.0,0.0,0.0,0.0,0.0,0.0,0.0,0.0,0.0,0.0,0.0,0.0,0.0,0.0,0.0,0.0,0.0,0.0,0.0,0.0,0.0,0.0,0.0,0.0,0.0,0.0,0.0,0.0,0.0,0.0,2.815,2.815,0.0,0.0,0.0,0.0,0.0,0.0,0.0,0.0,0.0,0.0,0.0,0.0,0.0,3.0402,3.0402,3.0402,3.0402,3.0402,3.0402,3.0402,3.0417,3.0997,3.1259,3.1289,3.1929,0.0,3.0402,3.0454,0.0,0.0,0.0,0.0,0.0,0.0,0.0,0.0,0.0,0.0,0.0,0.0,0.0,0.0,0.0,0.0,0.0,0.0,0.0,0.0,0.0,0.0,3.2341,3.2482,3.2446,3.2379,0.0,3.2288,3.2412,3.2578,3.2544,0.0,0.0,0.0,0.0,0.0,0.0,0.0,3.4883,3.5327,3.56,3.56,3.56,3.56,3.5622,3.5728,3.5795,3.5839,3.5847,3.5925,3.6071,3.5294,0.0,0.0,0.0,0.0,0.0,0.0,0.0,0.0,0.0,0.0,0.0,0.0,0.0,0.0,0.0,0.0,0.0,0.0,0.0,0.0,0.0,0.0,0.0,0.0,0.0,0.0,0.0,0.0,0.0,2.855,2.8965,2.8965,2.9279,2.9633,0.0,0.0,0.0,0.0,0.0,0.0,0.0,0.0,0.0,3.0966,3.1336,3.152,3.152,3.152,3.152,3.152,3.152,3.1736,3.2105,3.2398,3.2736,3.3165,3.3457,3.3244,3.2644,3.1859,3.152,3.152,0.0,0.0,0.0,0.0,3.3011,3.3699,3.3627,3.3761,0.0,3.3923,0.0,0.0,0.0,0.0,0.0,0.0,0.0,0.0,0.0,0.0,3.3694,3.3653,3.3624,3.3596,3.3596,3.3624,3.3465,0.0,3.286,3.3095,3.3166,0.0,0.0,0.0,0.0,3.4936,3.5188,3.5902,3.6384,3.6384,3.6316,3.6265,3.6265,3.5921,3.5728,3.5795,3.5927,3.6058,3.6187,3.5885,3.5759,0.0,0.0,0.0,0.0,0.0,0.0,0.0,0.0,0.0,0.0,0.0,0.0,0.0,0.0,0.0,0.0,0.0,0.0,0.0,0.0,0.0,0.0,0.0,0.0,0.0,0.0,0.0,0.0,2.9325,2.9648,2.9648,3.0094,3.0463,0.0,0.0,0.0,0.0,0.0,0.0,3.0894,3.1382,3.167,3.167,3.2305,3.2659,3.2659,3.2829,3.2921,3.2921,3.2921,3.3198,3.3675,3.3675,3.3967,3.4505,3.4505,3.4597,3.4659,3.3429,3.2921,3.2921,3.2921,3.3029,3.3183,3.3183,3.3591,3.414,3.3994,3.4255,3.4635,3.4635,0.0,3.4707,3.4823,0.0,0.0,0.0,0.0,3.4736,3.4548,3.4577,3.4635,3.4519,3.4505,3.4505,3.4505,3.4643,3.4412,0.0,3.3336,3.3675,3.3675,0.0,0.0,0.0,0.0,3.551,3.5703,3.648,3.7061,3.7203,3.7127,3.7083,3.7083,3.6535,3.6237,3.6327,3.6253,3.6283,3.6414,3.6294,3.6237,3.6301,0.0,0.0,0.0,0.0,0.0,0.0,0.0,0.0,0.0,0.0,0.0,0.0,0.0,0.0,0.0,0.0,0.0,0.0,0.0,0.0,0.0,0.0,0.0,0.0,0.0,0.0,0.0,0.0,0.0,3.034,3.0371,0.0,0.0,0.0,0.0,3.2244,3.229,3.229,3.229,3.2321,3.2336,3.2336,3.2998,3.3352,3.3352,3.4029,3.4397,3.4397,3.4397,3.4412,3.4443,3.4443,3.4459,3.4505,3.4505,3.4874,3.5368,3.469,3.4397,3.4397,3.4397,3.4782,3.5322,3.5322,3.5383,3.5414,3.5414,3.5013,3.4505,3.4505,3.4622,3.4694,3.4723,3.4707,0.0,0.0,3.4606,3.4534,3.4505,3.4505,3.4505,3.4505,3.4505,3.4505,3.4505,3.5013,3.5244,0.0,3.4428,3.4443,3.4443,0.0,3.4647,3.5191,3.5303,3.5703,3.6781,3.696,3.7228,3.7793,3.7848,3.7838,3.7838,3.7821,3.7787,3.7787,3.7134,3.6859,3.7046,3.639,3.6088,3.6301,3.6216,0.0,0.0,0.0,0.0,0.0,0.0,0.0,0.0,0.0,0.0,0.0,0.0,0.0,0.0,0.0,0.0,0.0,0.0,0.0,0.0,0.0,0.0,0.0,0.0,0.0,0.0,0.0,0.0,3.1043,3.1428,0.0,3.2013,3.2028,3.2136,3.2382,3.2798,3.3044,3.3044,3.3475,3.3765,3.3765,3.3967,3.412,3.412,3.4366,3.4505,3.4505,3.4505,3.4736,3.5152,3.5152,3.5383,3.5799,3.5799,3.5907,3.6122,3.5876,3.5799,3.5799,3.5799,3.566,3.5506,3.5506,3.5506,3.5506,3.5506,3.5645,3.5799,3.5799,3.5829,3.5859,3.5859,3.5859,3.5859,3.5859,3.5829,3.5799,3.5799,3.5799,3.5799,3.5799,3.5799,3.5799,3.5799,3.5953,3.6061,3.5814,3.5444,3.5152,3.5152,3.5152,3.5499,3.6495,3.6645,3.6947,3.7726,3.8173,3.8496,3.872,3.8672,3.8616,3.8616,3.8176,3.7905,3.7905,3.7689,3.7596,3.7665,3.7502,3.7273,3.6947,3.6925,3.6728,0.0,0.0,0.0,0.0,0.0,0.0,0.0,0.0,0.0,0.0,0.0,0.0,0.0,0.0,0.0,0.0,0.0,0.0,0.0,0.0,0.0,0.0,0.0,0.0,0.0,0.0,3.1736,3.1682,3.2093,3.249,3.2721,3.2736,3.2829,3.3075,3.3506,3.3767,3.3767,3.4243,3.4505,3.4505,3.472,3.4844,3.4844,3.5075,3.5183,3.5183,3.5183,3.5429,3.583,3.583,3.6061,3.6492,3.6492,3.6615,3.683,3.683,3.6969,3.7153,3.6923,3.6553,3.6184,3.6415,3.6507,3.6507,3.6507,3.6799,3.7169,3.7169,3.7015,3.683,3.683,3.6676,3.6492,3.6492,3.6492,3.6492,3.6492,3.6492,3.6492,3.6492,3.6492,3.6492,3.6492,3.6492,3.6492,3.6492,3.6122,3.583,3.583,3.583,3.6106,3.6965,3.7104,3.7312,3.7924,3.8518,3.8974,3.9179,3.9285,3.9385,3.9385,3.8731,3.8437,3.8633,3.8248,3.8152,3.8472,3.8116,3.7876,3.7737,3.7737,3.7364,3.6655,0.0,0.0,0.0,0.0,0.0,0.0,0.0,0.0,0.0,0.0,0.0,0.0,0.0,0.0,0.0,0.0,0.0,0.0,0.0,0.0,0.0,0.0,0.0,3.2206,3.2345,3.2373,3.2249,3.2361,3.2705,3.3367,3.3429,3.3721,3.4414,3.452,3.4536,3.4536,3.4551,3.4566,3.4566,3.5168,3.5507,3.5507,3.6184,3.6522,3.6522,3.6538,3.6553,3.6553,3.6553,3.6553,3.6553,3.6538,3.6892,3.7507,3.7477,3.7861,3.8385,3.7769,3.7523,3.7584,3.8231,3.8477,3.8477,3.8492,3.8508,3.8508,3.8508,3.8061,3.7523,3.7523,3.7076,3.6553,3.6553,3.6553,3.6553,3.6553,3.6553,3.6553,3.6553,3.6553,3.6553,3.6538,3.6522,3.6522,3.6492,3.6492,3.6492,3.6492,3.6492,3.6523,3.6554,3.6554,0.0,3.7401,3.7982,3.8574,3.9152,3.9722,4.007,4.007,3.954,3.9444,4.0045,3.8881,3.853,3.9385,3.8173,3.7841,3.8606,3.8594,3.8188,3.7337,0.0,0.0,0.0,0.0,0.0,0.0,0.0,0.0,0.0,0.0,0.0,0.0,0.0,0.0,0.0,0.0,0.0,0.0,0.0,0.0,0.0,3.2839,3.2629,3.2114,3.266,3.308,3.2953,3.341,3.3778,3.3962,3.3977,3.3994,3.4044,3.4787,3.5169,3.5033,3.56,3.5861,3.5753,3.5906,3.5998,3.5998,3.6672,3.7072,3.723,3.7723,3.7954,3.7954,3.7954,3.7954,3.7923,3.7446,3.7323,3.7461,3.6969,3.6876,3.7123,3.7923,3.7938,3.7523,3.7707,3.7769,3.7846,3.8338,3.8508,3.8508,3.8508,3.8385,3.8231,3.8231,3.8108,3.7954,3.7954,3.7954,3.7954,3.7954,3.7954,3.7954,3.7954,3.7954,3.7815,3.7323,3.723,3.7076,3.6584,3.6492,3.6492,3.6492,3.6492,3.68,3.7663,3.7809,0.0,3.9216,3.948,3.9497,3.9232,3.9339,3.9444,3.9444,3.9286,3.9444,4.0045,3.9741,3.9665,3.9908,3.9538,3.9306,3.9185,3.8706,3.8334,0.0,0.0,0.0,0.0,0.0,0.0,0.0,0.0,0.0,0.0,0.0,0.0,0.0,0.0,0.0,0.0,0.0,0.0,0.0,0.0,0.0,0.0,3.3348,3.3138,3.2702,3.3178,3.3568,3.3437,3.3801,3.4211,3.4516,3.4591,3.4668,3.4759,3.5401,3.5738,3.5537,3.6303,3.6686,3.6624,3.6802,3.694,3.7036,3.7434,3.7665,3.781,3.8275,3.8508,3.8508,3.8508,3.8508,0.0,3.8092,3.7923,3.7892,3.7507,3.7338,0.0,0.0,0.0,0.0,0.0,3.7923,3.7984,3.8369,3.8692,3.8939,3.8939,3.8939,3.8939,3.8939,3.8739,3.8508,3.8508,3.8508,3.8508,3.8508,3.8508,3.8508,3.8508,3.8508,3.84,3.8,3.7923,3.78,3.7415,3.7107,0.0,3.6923,3.6676,3.6739,3.7445,3.7562,3.7809,3.8502,3.9038,3.9216,3.8865,3.9286,3.9592,3.9592,3.9339,0.0,0.0,0.0,3.9747,3.9799,4.0096,0.0,0.0,0.0,3.9244,3.8946,0.0,0.0,0.0,3.7249,3.7249,0.0,0.0,0.0,0.0,0.0,0.0,0.0,0.0,0.0,0.0,0.0,0.0,0.0,0.0,0.0,0.0,3.3788,3.3772,3.374,3.3939,3.4016,3.3834,3.4001,3.4364,3.5032,3.5201,3.5445,3.5896,3.6161,3.6238,3.6095,0.0,0.0,0.0,0.0,3.7946,3.8147,3.8223,3.8287,3.832,3.8593,3.8706,3.8739,3.8739,3.8739,3.8739,3.8662,3.8616,3.8616,3.8539,3.8508,3.8446,3.7769,3.7507,3.7569,3.8169,3.84,3.8415,3.8477,0.0,0.0,3.9367,3.9367,3.9382,3.9459,3.9059,3.8646,3.8708,3.8739,3.8739,3.8739,3.8739,3.8739,3.8739,3.8739,3.8708,3.8646,3.8616,3.86,3.8523,3.8031,3.7615,3.7615,3.6984,3.6523,3.6585,3.66,3.6647,3.6693,3.7634,3.8278,3.821,0.0,0.0,3.9901,3.947,3.9444,4.0045,3.9618,3.9365,3.947,4.0121,4.0296,3.9859,4.037,4.0353,3.9766,3.9772,3.9445,3.8813,3.8681,3.8594,0.0,0.0,0.0,0.0,0.0,0.0,0.0,0.0,0.0,0.0,0.0,0.0,0.0,0.0,0.0,3.4421,3.4418,3.4535,3.504,3.5179,3.5018,3.4572,3.5011,3.5419,3.5555,3.5587,3.5599,3.5619,3.6375,3.6776,3.6564,3.7316,3.7679,3.7612,3.7699,3.7775,3.7809,3.8337,3.8732,3.9023,0.0,0.0,4.0105,4.0105,4.0105,4.0074,3.9521,3.929,3.9244,3.8739,3.8508,3.8446,3.7769,3.7507,3.7523,3.7646,3.7692,3.7769,3.8323,3.86,3.8708,3.8708,3.8708,3.88,3.9354,3.9398,0.0,3.9951,4.0105,4.0105,4.0105,4.0105,4.0105,4.0105,4.0105,3.9951,3.9413,3.929,3.917,3.8616,3.8415,3.8323,3.8323,3.7292,3.6662,3.7148,3.7238,3.7401,3.7895,3.8153,3.8124,3.7637,3.821,3.8657,3.8657,3.9001,3.9444,4.0045,3.9995,3.9944,3.9969,4.0213,4.0288,4.0213,4.033,4.0319,4.019,4.0287,4.0275,4.012,3.9072,3.8594,0.0,0.0,0.0,0.0,0.0,0.0,0.0,0.0,0.0,0.0,0.0,3.4303,3.4303,0.0,3.4733,3.5046,3.5028,3.5115,3.5459,3.5504,3.5402,3.5121,3.5394,3.5724,3.6054,3.615,3.6285,3.6432,3.7011,3.7258,3.7076,3.7744,3.8155,3.8204,3.8432,3.8597,3.8702,3.9138,3.9445,3.9619,4.0128,4.0436,4.0489,4.0489,4.0489,4.0474,4.0136,3.9982,3.9967,3.9628,3.949,3.9493,3.9121,3.86,3.8,3.8,3.78,3.7554,3.7892,3.8,3.8,3.8,3.8231,3.8569,3.8908,3.9016,3.9059,3.9382,3.949,3.9567,3.9905,3.9982,4.0074,4.0413,4.0489,4.0397,4.0059,3.9982,3.989,3.9585,3.9247,3.9016,3.9016,3.8169,3.7511,3.7468,3.7467,3.7449,3.7403,3.765,3.7854,3.7854,3.8379,3.8739,3.8739,3.9028,3.9444,4.0045,4.0096,4.0121,4.0188,4.0263,4.033,4.0387,4.0478,4.0502,4.0502,4.0576,4.0631,4.0686,3.9978,3.9704,0.0,0.0,0.0,0.0,0.0,0.0,0.0,3.4091,3.4137,3.4213,3.4542,3.4855,3.4855,3.5209,3.5504,3.5504,3.5504,3.5504,3.5504,3.5504,3.5549,3.5684,3.5699,3.5908,3.6432,3.6715,3.6985,3.7375,3.7676,3.7751,3.7599,3.8227,3.8672,3.8828,3.9212,3.9496,3.9661,3.9818,3.9889,3.996,4.0226,4.0351,4.0401,4.0401,4.0436,4.047,4.0489,4.0489,4.0489,4.0489,4.0489,4.0489,4.0489,3.992,3.9077,3.88,3.8277,3.7692,3.7692,3.7615,3.7507,3.7507,3.7784,3.8138,3.8277,3.8308,3.8338,3.8477,3.8508,3.8631,3.9185,3.9323,3.9428,3.9967,4.0197,4.0305,4.0305,4.0397,4.0489,4.0489,4.0043,3.9674,3.9674,3.9228,3.8631,3.7815,3.7692,3.7478,3.694,3.7292,3.778,3.8238,3.8821,3.9259,3.9365,3.9365,3.9592,4.007,4.0096,4.0163,4.0263,4.0263,4.0313,4.0436,4.0534,4.0624,4.0624,4.0673,4.0745,4.0864,4.0769,4.0793,3.3121,3.3752,3.426,3.41,3.4219,3.4404,0.0,3.4758,3.497,3.5242,3.5372,3.54,3.54,3.5459,3.5504,3.5504,3.5504,3.5504,3.5504,3.5504,3.5729,3.6312,3.6372,3.6402,3.6477,3.7019,3.733,3.7404,3.7978,3.8322,3.8287,3.8931,3.9305,3.9305,3.9379,3.9424,3.9424,3.946,3.9553,3.9732,3.9753,3.9874,4.0066,4.0066,4.0137,4.0347,4.047,4.0489,4.0489,4.0489,4.0489,4.0489,4.0489,4.0832,4.1109,3.9862,3.897,3.84,3.84,3.8,3.7507,3.7507,3.7153,3.683,3.743,3.7615,3.7738,3.8338,3.8508,3.8523,3.86,3.8616,3.8646,3.8723,3.92,3.9598,3.9598,4.0074,4.0489,4.0489,4.0428,4.0382,4.0382,4.032,3.9844,3.8585,3.84,3.8333,3.8214,3.8242,3.8291,3.8303,3.8821,3.9418,3.9944,3.9995,4.002,4.0113,4.0096,4.0113,4.0138,4.0138,4.0121,4.0146,4.0263,4.0337,4.0355,4.0576,4.0697,4.0721,4.084,4.0888,3.3844,3.4274,3.4538,3.4637,3.4744,3.4866,3.5112,3.523,3.5321,3.5477,3.5504,3.5504,3.5504,3.5504,3.5504,0.0,3.5504,3.5504,3.5504,3.5833,3.6178,3.6447,3.7135,3.7599,3.7599,3.7823,3.8138,3.8542,3.8826,3.899,3.899,3.926,3.9388,3.9388,3.9783,3.9993,3.9993,4.0492,4.0798,4.0857,4.0937,4.0849,4.0588,4.0588,4.0482,4.0312,4.0436,4.0489,4.0489,4.0489,4.0489,4.0536,4.0986,4.1078,4.0955,4.0786,4.0555,4.0309,4.0309,3.9847,3.9228,3.9228,3.8539,3.7723,3.8,3.7538,3.6969,3.7261,3.7338,3.743,3.7815,3.7923,3.8015,3.8415,3.8723,3.8923,3.8923,3.9428,3.9905,3.9905,4.0228,4.0489,4.0489,4.0489,4.0305,3.9736,3.9321,3.8945,3.8509,3.8447,3.8717,3.9457,4.0114,4.0711,4.133,4.0663,4.0359,4.0704,4.035,4.0138,4.0213,4.0213,4.0213,4.0213,4.0337,4.0412,4.0412,4.0534,4.0655,4.0817,4.0793,4.084,3.4569,3.4816,3.5017,3.5231,3.5291,3.5319,3.5499,3.5554,3.5554,3.5504,3.5504,3.5504,3.5504,3.5504,3.5504,3.5504,3.5504,3.5564,3.5744,3.6193,3.6611,3.6971,3.7823,3.8467,3.8661,3.8676,3.8886,3.9343,3.9388,3.9499,3.9679,3.9694,3.9768,3.9963,4.0427,4.0666,4.0666,4.131,4.1626,4.1626,4.1708,4.1526,4.1124,4.1176,4.0942,4.0517,4.0627,4.0624,4.0489,4.0489,4.0489,4.0551,4.1109,4.1109,4.0858,4.1401,4.1601,4.1601,4.1601,4.1263,4.0782,4.0782,4.0031,3.9031,3.8846,3.8108,3.7292,3.7092,3.7046,3.7153,3.7646,3.7784,3.7908,3.8385,3.8646,3.8785,3.8785,3.9136,3.949,3.949,3.9874,4.0213,4.0213,4.0366,4.0489,4.0489,4.0074,3.9573,3.9077,3.9154,3.9642,4.0564,4.1246,4.1837,4.226,4.1416,4.1033,4.1482,4.0984,4.0747,4.0866,4.0849,4.0764,4.0561,4.0694,4.0666,4.051,4.0534,4.068,4.0912,4.0793,4.0817,3.5232,3.5645,3.6118,3.6006,3.5975,3.5911,3.5752,3.5688,3.5671,3.5537,3.5504,3.5504,3.5504,3.5504,3.5504,3.5504,3.5504,3.5729,3.6372,3.6477,3.6956,3.8182,3.8362,3.8661,0.0,3.9394,3.9394,3.9388,3.9388,3.9694,4.0337,4.0367,4.0666,4.1309,4.1339,4.1354,4.1354,4.1407,4.1422,4.1422,4.1422,4.1407,4.1392,4.1596,4.142,4.1003,4.1138,4.0933,4.0489,4.0489,4.0489,4.0489,4.052,4.097,4.1571,4.1586,4.1601,4.1601,4.1601,4.1586,4.1571,4.1571,4.1063,4.0305,3.9659,3.9428,3.9259,3.8631,3.8446,3.8446,3.8477,3.8477,3.8477,3.8508,3.9016,3.9459,3.9459,3.9474,3.949,3.949,3.9539,3.9521,3.9521,4.0059,4.0489,4.0489,4.0474,4.0436,4.0336,4.085,4.1229,4.1257,4.1875,4.2286,4.2286,4.2269,4.2252,4.2252,4.2236,4.2236,4.2245,4.2245,4.1897,4.1187,4.1308,4.1078,4.051,4.0648,4.0769,4.0912,4.0912,4.0912,3.575,3.5886,3.6022,3.5863,3.5799,3.5767,3.5604,3.5587,3.5539,3.5504,3.5504,3.5504,3.5504,3.5504,3.5504,3.5504,3.5504,3.5729,3.6387,3.6836,3.7419,3.8287,3.8796,0.0,0.0,0.0,0.0,3.9388,3.9828,4.0172,4.0382,4.0816,4.1145,4.1407,4.1841,4.2066,4.2066,4.2462,4.2671,4.2671,4.2237,4.2066,4.2051,4.1821,4.1618,4.145,4.1294,4.1122,4.0928,4.0639,4.0489,4.0489,4.0489,4.0643,4.0858,4.0858,4.1186,4.1724,4.2638,4.2946,4.3008,4.3433,4.2817,4.1863,4.1648,4.0889,4.0013,3.9336,3.9136,3.9077,3.8631,3.8508,3.8508,3.8508,3.8677,3.8846,3.8846,3.92,3.949,3.949,3.9844,4.0151,4.0151,4.0336,4.0646,4.1091,4.0768,4.05,4.0458,4.1422,4.2113,4.2113,4.3134,4.3836,4.3836,4.3335,4.3031,4.3031,4.2574,4.2286,4.2286,4.2286,4.2168,4.1931,4.1967,4.1979,4.1954,4.2005,4.2148,4.243,4.243,4.243,3.5926,3.5894,3.5831,3.5686,3.5621,3.5604,3.5537,3.5504,3.5504,3.5504,3.5504,3.5504,3.5504,3.5504,3.5504,3.5504,3.5699,3.6073,3.6731,3.736,3.8003,3.8676,3.9155,3.9388,0.0,0.0,0.0,3.9768,4.0172,4.0606,4.107,4.1542,4.1871,4.2073,4.2491,4.2701,4.2701,4.3135,4.329,4.329,4.291,4.2701,4.2686,4.2528,4.2327,4.2146,4.201,4.1719,4.1331,4.1008,4.072,4.0489,4.0489,4.0489,4.0489,4.0489,4.0782,4.137,4.2479,4.3017,4.3362,4.404,4.3648,4.2956,4.2956,4.2325,4.1478,4.0816,4.0447,4.0155,3.9724,3.9431,3.9198,3.9198,3.9198,3.9198,3.9198,3.9351,3.949,3.949,3.9844,4.0136,4.0136,4.0336,4.0715,4.1393,4.1109,4.0922,4.1176,4.1965,4.2583,4.2831,4.3663,4.431,4.457,4.413,4.3826,4.3826,4.3369,4.3125,4.3125,4.3152,4.3061,4.2807,4.279,4.2787,4.2817,4.2749,4.2877,4.3189,4.3189,4.3189,3.5752,3.5688,3.5671,3.5522,3.5504,3.5504,3.5504,3.5504,3.5504,3.5504,3.5504,3.5504,3.5504,3.5504,3.5504,3.5504,3.6058,3.6701,3.733,3.7973,3.8646,0.0,0.0,0.0,0.0,0.0,0.0,4.0442,0.0,4.1055,4.2336,4.2425,4.2701,4.3275,4.329,4.329,4.329,4.329,4.329,4.329,4.3319,4.3349,4.3349,4.3647,4.3551,4.3138,4.3282,4.275,4.1766,4.1658,4.1212,4.0597,4.052,4.0489,4.0489,4.0489,4.0489,4.0597,4.1309,4.1986,4.2663,4.3347,4.3578,4.3608,4.3608,4.3624,4.3516,4.2833,4.2171,4.1632,4.1617,4.1063,4.0489,4.0489,4.0489,4.0489,4.0489,3.9982,3.9536,3.9536,3.9536,3.9536,3.9536,4.0074,4.0715,4.1393,4.1525,4.1771,4.2426,4.252,4.28,4.3436,4.3542,4.3839,4.4542,4.4615,4.4598,4.4598,4.4598,4.4615,4.4626,4.4737,4.448,4.3783,4.3766,4.3558,4.3108,4.292,4.2997,4.331,4.331,4.331,3.5604,3.5554,3.5554,3.5504,3.5504,3.5504,3.5504,3.5504,3.5504,3.5504,3.5504,3.5504,3.5504,3.5504,3.5504,3.5504,3.6058,0.0,3.733,3.7973,0.0,3.9298,0.0,3.9388,3.9388,4.0023,0.0,0.0,4.1632,4.2051,4.2381,4.2821,4.3125,4.329,4.329,4.329,4.329,4.329,4.329,4.3305,4.3798,4.4062,4.4077,4.4612,4.4843,4.4689,4.4408,4.4213,4.4005,4.2609,4.2036,4.1971,4.0905,4.0489,4.0489,4.0489,4.0489,4.052,4.0705,4.1263,4.1971,4.2633,4.3171,4.3608,4.3608,4.3963,4.4225,4.3547,4.2848,4.2232,4.1724,4.1063,4.0489,4.0489,4.0489,4.0489,4.0489,4.0366,4.0243,4.0243,4.0243,4.0243,4.0243,4.0382,4.0715,4.1393,4.1933,4.23,4.2489,4.2953,4.3317,4.3482,4.3972,4.4412,4.457,4.4615,4.4654,4.472,4.4654,4.4682,4.4886,4.4831,4.4773,4.4678,4.4678,4.4656,4.4654,4.4584,4.4663,4.4854,4.4854,4.4854,3.5537,3.5504,3.5504,3.5504,3.5504,3.5504,3.5504,3.5504,3.5504,3.5504,3.5504,3.5481,3.537,3.5677,3.5914,0.0,0.0,0.0,3.7793,3.8422,3.899,0.0,3.9388,0.0,3.9828,4.0442,4.11,0.0,4.2186,4.253,4.2776,4.3135,4.329,4.329,4.329,4.329,4.329,4.3574,4.3723,4.3738,4.4421,4.4751,4.4751,4.5207,4.5455,4.5425,0.0,4.5087,4.4883,4.3968,4.331,4.2778,4.1792,4.1228,4.0955,4.0612,4.0489,4.0489,4.0489,4.0751,4.1247,4.194,4.2417,4.2838,4.3424,4.387,4.4148,4.4071,4.3578,4.2879,4.2217,4.1524,4.0924,4.0566,4.0489,4.0489,4.0489,4.0489,4.0489,4.0489,4.0489,4.0489,4.0489,4.0489,4.0836,4.1804,4.2269,4.2707,4.335,4.3469,4.3601,4.3943,4.4076,4.4236,4.457,4.4615,4.4626,4.4709,4.4709,4.4765,4.4913,4.4951,4.5005,4.5086,4.5086,4.5167,4.5274,4.5247,4.5274,4.5397,4.5397,4.5397,3.5359,3.5424,3.5472,3.5359,3.5359,3.5359,3.5472,3.5326,3.5261,3.5472,3.5499,3.5411,3.5232,3.5898,3.6354,3.6049,0.0,3.8236,3.8236,3.8904,3.9388,3.9388,3.9388,3.9679,4.0337,4.0995,4.1692,4.2351,4.247,4.2746,4.326,4.329,4.329,4.329,4.329,4.329,4.329,4.3898,4.4227,4.4332,4.4975,4.5349,4.5424,4.5721,4.5834,4.5834,4.6014,0.0,4.5273,4.5321,4.4616,4.3434,4.287,4.2289,4.1648,4.0889,4.0643,4.0628,4.052,4.0489,4.0597,4.1263,4.1524,4.1817,4.2992,4.347,4.3732,4.4317,4.4055,4.3454,4.2771,4.2109,4.1417,4.0674,4.0489,4.0489,4.0489,4.0489,4.0489,4.0489,4.0489,4.0489,4.0489,4.0489,4.0922,4.2173,4.2458,4.2953,4.4281,4.3972,4.3885,4.4542,4.4047,4.3898,4.4542,4.4615,4.4598,4.4643,4.4737,4.4803,4.4858,4.5086,4.522,4.5247,4.5247,4.5274,4.5397,4.5274,4.5274,4.5397,4.5397,4.5397,3.4677,3.4986,3.5359,3.4677,3.4495,3.4677,3.5359,3.4505,3.3968,3.5261,3.54,3.5326,3.5215,3.577,3.6006,3.526,3.6402,3.7419,3.7419,3.8565,3.9388,0.0,3.9388,3.9679,4.0337,0.0,0.0,0.0,0.0,4.317,4.329,4.329,4.329,4.329,4.329,4.329,4.329,4.3409,4.3738,4.4332,4.4975,4.5589,4.6172,4.6753,4.7008,4.6993,4.7036,0.0,4.7063,4.5977,4.5298,4.4801,4.3578,4.2818,4.2355,4.1663,4.1417,4.1324,4.0689,4.0489,4.052,4.0643,4.1109,4.1632,4.1878,4.2709,4.3624,4.3747,4.3701,4.3454,4.2771,4.2109,4.1417,4.0674,4.0489,4.0489,4.0489,4.0489,4.0489,4.0489,4.0489,4.0489,4.0489,4.0489,4.0783,4.1558,4.2141,4.28,4.3588,4.4105,4.4468,4.4587,4.4485,4.4468,4.4598,4.4615,4.4654,4.4748,4.4793,4.4913,4.5113,4.5194,4.5247,4.5371,4.5371,4.5371,4.5397,4.5371,4.5371,4.5397,4.5397,4.5397,3.3837,3.3988,3.4206,3.3802,3.3734,3.3837,3.4221,3.3713,3.3486,3.4571,3.4721,3.4718,3.491,3.5917,3.6547,3.6029,3.7306,3.8361,3.8361,3.8948,3.9388,3.9388,3.9388,3.9813,0.0,0.0,0.0,0.0,0.0,4.329,4.329,4.329,4.329,4.329,4.329,4.329,4.329,4.3633,4.3962,4.4332,4.5334,4.6007,4.6309,4.701,4.7309,4.7309,4.7309,0.0,4.7422,4.703,4.6587,4.6062,4.4886,4.4104,4.351,4.2494,4.2125,4.2032,4.1324,4.1078,4.1032,4.0612,4.072,4.1109,4.1478,4.2048,4.2617,4.2971,4.3347,4.3454,4.2771,4.2371,4.194,4.1247,4.0766,4.0489,4.0489,4.0489,4.0489,4.0489,4.0489,4.0489,4.0489,4.0783,4.1243,4.1933,4.2583,4.3273,4.3972,4.4367,4.4615,4.4615,4.4615,4.4615,4.4615,4.4615,4.4643,4.4682,4.4831,4.4951,4.5086,4.522,4.5327,4.5397,4.5397,4.5397,4.5397,4.5397,4.5397,4.5397,4.5397,4.5397,3.3003,3.3073,3.3143,3.3003,3.2967,3.3003,3.3143,3.3043,3.3123,3.392,3.417,3.4362,3.465,3.5903,3.6765,3.642,3.7753,3.887,3.887,3.9177,3.9388,0.0,3.9388,0.0,4.125,0.0,0.0,0.0,0.0,0.0,4.329,4.329,4.329,4.329,4.329,4.329,4.329,4.3798,4.4182,4.4332,4.5529,4.6172,4.6379,4.6995,4.7337,4.7424,4.7381,0.0,0.0,4.7852,4.7627,4.6969,4.6098,4.5349,4.4633,4.331,4.2817,4.2725,4.2048,4.1817,4.1724,4.112,4.0735,4.0597,4.1201,4.1478,4.1709,4.2248,4.2863,4.3217,4.2556,4.2402,4.2217,4.154,4.0905,4.0489,4.0489,4.0489,4.0489,4.0489,4.0489,4.0558,4.0681,4.1142,4.1771,4.2583,4.3166,4.3781,4.4514,4.4615,4.4615,4.4615,4.4615,4.4615,4.4615,4.4615,4.4615,4.4615,4.4858,4.5005,4.5005,4.5264,4.5397,4.5397,4.5397,4.5397,4.5397,4.5397,4.5397,4.5397,4.5397,4.5397,3.2362,3.2684,3.3038,3.2362,3.2182,3.2362,3.3038,3.2558,3.2355,3.3801,3.4444,3.473,3.4721,3.534,3.5561,3.4744,3.6029,3.7127,3.7127,3.8435,3.9388,3.9388,0.0,0.0,0.0,0.0,0.0,0.0,0.0,0.0,4.329,4.329,4.329,4.329,4.329,4.329,4.329,4.3349,4.3678,4.4332,4.505,4.5818,4.6587,4.7081,4.751,4.7922,4.7666,0.0,0.0,4.7964,4.7696,4.7216,4.6523,4.5938,4.5341,4.4009,4.3516,4.3424,4.274,4.2525,4.2509,4.2432,4.1555,4.0505,4.0566,4.1078,4.1617,4.1678,4.2171,4.254,4.1863,4.1694,4.1509,4.0766,4.0551,4.0489,4.0489,4.0489,4.0489,4.0489,4.0489,4.0681,4.1309,4.1459,4.1917,4.3227,4.3453,4.3781,4.4514,4.4615,4.4615,4.4615,4.4615,4.4615,4.4615,4.4615,4.4615,4.4615,4.4858,4.5005,4.5005,4.5264,4.5397,4.5397,4.5397,4.5397,4.5397,4.5397,4.5397,4.5397,4.5397,4.5397,3.1505,3.164,3.1823,3.1505,3.1431,3.1599,3.2243,3.2072,3.2187,3.3522,3.3939,3.4179,3.447,3.5157,3.5736,3.5869,3.645,3.7242,3.8271,3.856,3.8848,3.9337,3.9388,0.0,0.0,0.0,0.0,0.0,0.0,0.0,4.329,4.329,4.329,4.329,4.329,4.329,4.329,4.329,4.3424,4.3693,4.4392,4.5091,4.5818,4.6439,4.7006,4.7596,4.7581,0.0,0.0,4.8049,4.805,4.7869,4.7303,4.6708,4.608,4.5126,4.4564,4.4117,4.3417,4.3187,4.3125,4.274,4.2232,4.1771,4.1771,4.1694,4.1601,4.1601,4.1786,4.194,4.1678,4.1601,4.1417,4.0674,4.0489,4.0489,4.0489,4.0489,4.0489,4.0489,4.0489,4.0578,4.0836,4.1558,4.2269,4.2831,4.3617,4.4281,4.457,4.4615,4.4615,4.4615,4.4615,4.4615,4.4615,4.4615,4.4626,4.4709,4.4913,4.5032,4.5113,4.53,4.5397,4.5397,4.5397,4.5397,4.5397,4.5397,4.5397,4.5397,4.5397,4.5397,3.0986,3.0986,3.0986,3.0986,3.1117,3.1352,3.1706,3.2071,3.2554,3.3417,3.3718,3.3953,3.4332,3.4909,3.5588,3.6425,3.6738,3.741,3.8833,3.8775,3.8775,0.0,0.0,0.0,0.0,0.0,0.0,0.0,0.0,0.0,4.329,4.329,4.329,4.329,4.329,4.329,4.329,4.329,4.329,4.3305,4.4003,4.4702,4.5458,4.6007,4.6766,4.7596,4.7666,0.0,0.0,4.8244,4.837,4.835,4.7784,4.7188,4.6511,4.5834,4.5157,4.4548,4.4071,4.3917,4.3824,4.334,4.3187,4.3187,4.3187,4.2586,4.1909,4.1909,4.1909,4.1909,4.1909,4.1755,4.1463,4.0935,4.0659,4.0489,4.0489,4.0489,4.0489,4.0489,4.0489,4.0558,4.0783,4.1739,4.2583,4.2769,4.3827,4.4615,4.4615,4.4615,4.4615,4.4615,4.4615,4.4615,4.4615,4.4626,4.4709,4.4776,4.4951,4.5113,4.5194,4.5344,4.5397,4.5397,4.5397,4.5397,4.5397,4.5397,4.5397,4.5397,4.5397,4.5397,3.0986,3.0986,3.0986,3.0986,3.1418,3.1797,3.1797,3.2698,3.3574,3.3587,3.4018,3.4384,3.4397,3.4397,3.4716,3.5588,3.6373,3.7208,3.8089,3.8885,3.9388,0.0,0.0,0.0,0.0,0.0,0.0,0.0,0.0,0.0,4.329,4.329,4.329,4.329,4.329,4.329,4.329,4.329,4.329,4.3305,4.4003,4.4798,4.5721,4.6107,4.7048,0.0,0.0,0.0,0.0,4.8578,4.862,4.8543,4.7865,4.7188,4.6511,4.5834,4.5157,4.461,4.461,4.461,4.461,4.4594,4.4594,4.4594,4.4594,4.3648,4.2602,4.2602,4.2602,4.2602,4.2602,4.2109,4.1601,4.1586,4.1047,4.0489,4.0489,4.0489,4.0489,4.0489,4.0489,4.0715,4.1376,4.2046,4.2738,4.3393,4.4105,4.4615,4.4615,4.4615,4.4615,4.4615,4.4615,4.4615,4.4615,4.4737,4.4803,4.4803,4.5059,4.5203,4.5203,4.5344,4.5397,4.5397,4.5397,4.5397,4.5397,4.5397,4.5397,4.5397,4.5397,4.5397,3.0986,3.0986,3.1078,3.147,3.1667,3.2019,3.2855,3.3326,3.3692,3.4071,3.428,3.4397,3.4397,3.4868,3.5386,3.5669,3.636,3.7218,3.8089,0.0,0.0,3.9337,0.0,0.0,0.0,0.0,0.0,0.0,0.0,0.0,4.329,4.329,4.329,4.329,4.329,4.329,4.329,4.329,4.329,4.329,4.3499,4.4363,4.5705,4.5849,4.6709,0.0,0.0,0.0,0.0,4.8537,4.862,4.8589,4.8373,4.7588,4.6573,4.6357,4.5557,4.461,4.461,4.461,4.461,4.461,4.461,4.461,4.461,4.3994,4.3171,4.274,4.2602,4.2602,4.2602,4.2109,4.1601,4.1601,4.1047,4.0489,4.0489,4.0489,4.0662,4.1091,4.0802,4.0715,4.1393,4.2062,4.2583,4.2784,4.3827,4.4615,4.4615,4.4615,4.4615,4.4615,4.4615,4.4626,4.4737,4.4793,4.4886,4.5059,4.515,4.5247,4.5327,4.5371,4.5397,4.5397,4.5397,4.5397,4.5397,4.5397,4.5397,4.5397,4.5397,4.5397,3.0986,3.0986,3.1117,3.1654,3.1967,3.2411,3.3378,3.3757,3.3992,3.4332,3.4397,3.4397,3.4397,3.484,3.5305,3.5669,3.6122,3.6869,3.8037,0.0,0.0,0.0,0.0,0.0,0.0,0.0,0.0,0.0,0.0,0.0,4.329,4.329,4.329,4.329,4.329,4.329,4.329,4.329,4.3344,4.3463,4.3718,4.4529,4.5828,4.6085,4.6906,0.0,0.0,0.0,0.0,4.8537,4.862,4.862,4.862,4.7788,4.6603,4.6603,4.5741,4.461,4.461,4.461,4.461,4.461,4.461,4.461,4.461,4.4317,4.3901,4.3464,4.3356,4.3356,4.3356,4.2679,4.1986,4.1986,4.1232,4.0489,4.0489,4.0489,4.0715,4.1376,4.1142,4.1091,4.1771,4.2426,4.2892,4.2892,4.3856,4.4615,4.4615,4.4615,4.4615,4.4615,4.4654,4.4737,4.4858,4.4886,4.4951,4.5194,4.5247,4.53,4.5397,4.5397,4.5397,4.5397,4.5397,4.5397,4.5397,4.5397,4.5397,4.5397,4.5397,4.5397,0.0,3.1089,3.1182,3.1719,3.2333,3.2921,3.3509,3.4031,0.0,3.4397,3.4397,3.4397,3.4397,3.4439,3.4758,3.5588,3.5749,3.6334,0.0,3.824,0.0,0.0,0.0,0.0,0.0,0.0,0.0,0.0,0.0,0.0,4.329,4.329,4.329,4.329,4.329,4.329,4.329,4.329,4.3423,4.3705,4.4393,4.5178,4.6032,4.6715,4.7494,0.0,0.0,0.0,0.0,4.862,4.862,4.862,4.862,4.7788,4.6603,4.6603,4.5741,4.461,4.461,4.461,4.461,4.461,4.461,4.461,4.461,4.461,4.461,4.461,4.461,4.461,4.461,4.3602,4.2602,4.2602,4.1504,4.0489,4.0489,4.0489,4.0715,4.1426,4.1525,4.1739,4.2458,4.3075,4.3512,4.3512,4.4133,4.4615,4.4615,4.4615,4.4615,4.4615,4.4737,4.4858,4.4978,4.5005,4.5059,4.522,4.5327,4.5397,4.5397,4.5397,4.5397,4.5397,4.5397,4.5397,4.5397,4.5397,4.5397,4.5397,4.5397,4.5397,3.2388,0.0,3.1732,3.2346,3.2934,3.3522,0.0,3.4306,3.4397,3.4397,3.4397,3.4397,3.4397,3.495,3.5467,3.5669,3.6201,3.6986,3.8037,0.0,0.0,0.0,0.0,0.0,0.0,0.0,0.0,0.0,0.0,4.329,4.329,4.329,4.329,4.329,4.329,4.329,4.329,4.329,4.3423,4.3705,4.4393,4.5258,4.6274,4.6905,4.7701,0.0,0.0,0.0,4.862,4.862,4.862,4.862,4.862,4.7788,4.6603,4.6603,4.5741,4.461,4.461,4.461,4.461,4.461,4.461,4.461,4.461,4.461,4.461,4.461,4.461,4.461,4.461,4.3602,4.2602,4.2602,4.1504,4.0489,4.0489,4.0489,4.0836,4.2062,4.1868,4.1868,4.3075,4.3393,4.3512,4.3512,4.4133,4.4615,4.4615,4.4615,4.4615,4.4615,4.4737,4.4858,4.4978,4.5086,4.522,4.5327,4.5371,4.5397,4.5397,4.5397,4.5397,4.5397,4.5397,4.5397,4.5397,4.5397,4.5397,4.5397,4.5397,4.5397,3.3063,3.2421,3.2006,3.2894,3.3352,3.3731,3.428,3.4397,3.4397,3.4397,3.4397,3.4397,3.4397,3.5382,3.6008,3.5583,3.6822,0.0,0.0,0.0,0.0,0.0,0.0,0.0,0.0,0.0,0.0,0.0,0.0,4.329,4.329,4.329,4.329,4.329,4.3423,4.3423,4.329,4.3423,4.3747,4.4301,4.5086,4.594,4.692,4.7594,4.8142,0.0,0.0,0.0,4.862,4.862,4.862,4.862,4.862,4.7788,4.6603,4.6603,4.5741,4.461,4.461,4.461,4.461,4.461,4.461,4.461,4.461,4.461,4.461,4.461,4.461,4.461,4.461,4.3818,4.2971,4.2679,4.1786,4.0889,4.0566,4.0489,4.0904,4.2237,4.2205,4.2395,4.3752,4.4001,4.4001,4.4001,4.4338,4.4615,4.4615,4.4615,4.4615,4.4615,4.4793,4.4913,4.4978,4.5167,4.53,4.5397,4.5397,4.5397,4.5397,4.5397,4.5397,4.5397,4.5397,4.5397,4.5397,4.5397,4.5397,4.5397,4.5397,4.5397,3.3882,3.313,3.267,3.3567,3.3762,3.3835,3.4293,3.4463,3.4541,3.4541,3.4607,3.4659,3.4659,3.5725,3.6407,3.5716,3.7455,0.0,0.0,0.0,0.0,0.0,0.0,0.0,0.0,0.0,0.0,0.0,0.0,4.329,4.329,4.329,4.329,4.329,4.3557,4.3596,4.3384,4.3636,4.4164,4.5069,4.5883,4.6757,4.7635,4.8312,4.862,4.862,0.0,0.0,4.862,4.862,4.862,4.862,4.862,4.7788,4.6603,4.6603,4.5741,4.461,4.461,4.461,4.461,4.461,4.461,4.461,4.461,4.461,4.461,4.461,4.461,4.461,4.461,4.4117,4.3439,4.2756,4.215,4.1527,4.0678,4.0593,4.1024,4.2269,4.252,4.2939,4.4355,4.4615,4.4615,4.4615,4.4615,4.4615,4.4615,4.4615,4.4598,4.4626,4.4858,4.5005,4.5032,4.5264,4.5397,4.5397,4.5397,4.5397,4.5397,4.5397,4.5397,4.5397,4.5397,4.5397,4.5397,4.5397,4.5397,4.5397,4.5397,4.5397,3.6512,3.6139,3.5329,3.4746,3.4472,3.4293,3.4384,3.4789,3.5155,3.5155,3.5521,3.5848,3.5848,3.6044,3.6399,3.697,0.0,3.9011,0.0,0.0,0.0,0.0,0.0,0.0,0.0,0.0,0.0,0.0,0.0,4.329,4.329,4.329,4.329,4.329,4.3557,4.369,4.3636,4.3832,4.44,4.5251,4.5963,4.6757,4.7635,4.8312,4.862,4.862,0.0,4.862,4.862,4.862,4.862,4.862,4.862,4.7788,4.6603,4.6603,4.5741,4.461,4.461,4.461,4.461,4.461,4.461,4.461,4.461,4.461,4.461,4.461,4.461,4.461,4.461,4.4117,4.3439,4.2756,4.2509,4.2103,4.0766,4.0972,4.1591,4.2363,4.252,4.2939,4.4355,4.4615,4.4615,4.4615,4.4615,4.4615,4.4615,4.4615,4.4654,4.4765,4.4913,4.5059,4.515,4.53,4.5397,4.5397,4.5397,4.5397,4.5397,4.5397,4.5397,4.5397,4.5397,4.5397,4.5397,4.5397,4.5397,4.5397,4.5397,4.5397,3.7504,3.7709,3.7749,3.725,3.6427,3.5616,3.5,3.5445,3.5891,3.5751,3.5926,3.6271,3.6764,3.7491,3.8503,3.9884,0.0,0.0,0.0,0.0,0.0,0.0,0.0,0.0,0.0,0.0,0.0,0.0,0.0,0.0,4.329,4.329,4.329,4.329,4.3675,4.4052,4.4401,4.4715,4.5192,4.5841,4.6619,4.7415,4.8158,4.8481,4.862,4.862,0.0,4.862,4.862,4.862,4.862,4.862,4.862,4.7788,4.6511,4.5772,4.511,4.461,4.461,4.461,4.461,4.461,4.461,4.461,4.461,4.461,4.461,4.461,4.461,4.461,4.461,4.4379,4.3901,4.2848,4.2895,4.2748,4.1359,4.1276,4.1804,4.2831,4.2738,4.2939,4.4355,4.4615,4.4615,4.4615,4.4615,4.4615,4.4615,4.4615,4.4654,4.4793,4.4913,4.5059,4.5177,4.53,4.5397,4.5397,4.5397,4.5397,4.5397,4.5397,4.5397,4.5397,4.5397,4.5397,4.5397,4.5397,4.5397,4.5414,4.5845,4.6035,3.8516,3.9047,3.965,3.9507,3.8271,3.6899,3.627,3.6555,3.6939,3.6927,3.704,3.7307,3.7811,3.882,0.0,4.1794,0.0,0.0,0.0,0.0,0.0,0.0,0.0,0.0,0.0,0.0,0.0,0.0,0.0,0.0,4.329,4.3409,4.3409,4.329,4.3968,4.4537,4.4974,4.5714,4.6247,4.6609,4.7277,4.7958,4.862,4.862,4.862,4.862,4.862,4.862,4.862,4.862,4.862,4.862,4.862,4.7788,4.6434,4.508,4.461,4.461,4.461,4.461,4.461,4.461,4.461,4.461,4.461,4.461,4.461,4.461,4.461,4.461,4.461,4.461,4.4317,4.311,4.3239,4.3242,4.2013,4.1619,4.1901,4.3227,4.2953,4.2939,4.4355,4.4615,4.4615,4.4615,4.4615,4.4598,4.4654,4.4654,4.4709,4.4886,4.4978,4.5113,4.5247,4.5344,4.5397,4.5397,4.5397,4.5397,4.5397,4.5397,4.5397,4.5397,4.5397,4.5397,4.5397,4.5397,4.55,4.569,4.6293,4.67,4.044,4.0689,4.0613,4.0601,3.8987,3.7646,3.8447,3.8448,3.8492,3.927,3.99,4.0034,3.9207,3.9159,3.965,4.0876,0.0,0.0,0.0,0.0,0.0,0.0,0.0,0.0,0.0,0.0,0.0,0.0,0.0,0.0,4.329,4.3699,4.3738,4.3329,4.4525,4.5126,4.4974,4.6634,4.7481,4.7502,4.7588,4.7958,4.862,4.862,4.862,4.862,4.862,4.862,4.862,4.862,4.862,4.862,4.862,4.7788,4.6434,4.508,4.461,4.461,4.461,4.461,4.461,4.461,4.461,4.461,4.461,4.461,4.461,4.461,4.461,4.461,4.461,4.461,4.444,4.3716,4.3566,4.3419,4.2676,4.1966,4.1901,4.3227,4.2953,4.2939,4.4355,4.4615,4.4615,4.4615,4.4615,4.4654,4.4776,4.4793,4.4886,4.5123,4.5177,4.5247,4.5371,4.5397,4.5397,4.5397,4.5397,4.5397,4.5397,4.5397,4.5397,4.5397,4.5397,4.5397,4.5397,4.5397,4.5776,4.6527,4.6579,4.6975,4.158,4.2056,4.2272,4.216,4.141,4.048,3.9795,3.9826,4.0053,4.0224,4.0435,4.0504,4.0159,0.0,4.1027,4.0485,0.0,0.0,0.0,0.0,0.0,0.0,0.0,0.0,0.0,0.0,0.0,0.0,0.0,0.0,4.4946,4.5137,4.5177,4.4961,4.558,4.6076,4.6407,4.7196,4.7819,4.8235,4.8235,4.8358,4.862,4.862,4.862,4.862,4.862,4.862,4.862,4.862,4.862,4.8527,4.7696,4.6788,4.5849,4.4964,4.461,4.461,4.461,4.461,4.461,4.461,4.461,4.461,4.461,4.461,4.461,4.461,4.461,4.461,4.461,4.461,4.444,4.3762,4.3613,4.3522,4.3293,4.2329,4.2029,4.3827,4.3273,4.2939,4.4355,4.4615,4.4615,4.4615,4.4615,4.4626,4.4682,4.4765,4.4886,4.5059,4.522,4.5327,4.5397,4.5397,4.5397,4.5397,4.5397,4.5397,4.5397,4.5397,4.5397,4.5397,4.5397,4.5638,4.6165,4.6165,4.6535,4.732,4.7741,4.8103,4.2453,4.2884,4.3221,4.3358,4.3205,4.2737,4.1572,4.1363,4.1453,4.1585,4.1281,4.1113,4.1407,4.1737,0.0,0.0,0.0,0.0,0.0,0.0,0.0,0.0,0.0,0.0,0.0,0.0,0.0,0.0,0.0,0.0,0.0,4.6016,4.6138,4.6017,4.6457,4.69,4.7293,4.7697,4.8158,4.862,4.862,4.862,4.862,4.862,4.862,4.862,4.862,4.862,4.862,4.862,4.8496,4.8158,4.6803,4.5988,4.5511,4.4872,4.461,4.461,4.461,4.461,4.461,4.461,4.461,4.461,4.461,4.461,4.461,4.461,4.461,4.461,4.461,4.461,4.4502,4.4024,4.3769,4.3654,4.3863,4.2799,4.238,4.4253,4.3634,4.3183,4.4384,4.4615,4.4598,4.4654,4.4654,4.4709,4.4776,4.4886,4.4995,4.5113,4.5291,4.5397,4.5397,4.5397,4.5397,4.5397,4.5397,4.5397,4.5397,4.5397,4.5397,4.5397,4.5638,4.6035,4.6613,4.6837,4.731,4.8051,4.8551,4.893,4.3142,4.319,4.3229,4.4075,4.4127,4.3988,4.3988,4.314,4.2589,4.3518,4.2795,4.2278,4.3115,4.2048,0.0,0.0,0.0,0.0,0.0,0.0,0.0,0.0,0.0,0.0,0.0,0.0,0.0,0.0,0.0,0.0,0.0,4.6052,4.6419,4.6032,4.7078,4.7497,4.7293,4.8157,4.862,4.862,4.862,4.862,4.862,4.862,4.862,4.862,4.862,4.862,4.862,4.8604,4.8204,4.745,4.6111,4.5588,4.5495,4.4818,4.461,4.461,4.461,4.461,4.461,4.461,4.461,4.461,4.461,4.461,4.461,4.461,4.461,4.461,4.461,4.461,4.461,4.461,4.4076,4.3796,4.4458,4.3493,4.2909,4.4327,4.4001,4.3735,4.4468,4.4615,4.4654,4.4776,4.4803,4.4913,4.5167,4.5203,4.5247,4.5397,4.5397,4.5397,4.5397,4.5397,4.5397,4.5397,4.5414,4.5414,4.5397,4.5414,4.5414,4.5414,4.619,4.6613,4.6631,4.7345,4.8086,4.881,4.881,4.9223,4.3896,4.4166,4.4189,4.4465,4.4358,4.4205,4.4205,4.384,4.3551,4.3871,4.3369,4.2727,4.2,4.1937,0.0,0.0,0.0,0.0,0.0,0.0,0.0,0.0,0.0,0.0,0.0,0.0,0.0,0.0,0.0,0.0,0.0,4.7569,4.7937,4.7814,4.8137,4.8271,4.8245,4.847,4.862,4.862,4.862,4.862,4.862,4.862,4.862,4.862,4.862,4.862,4.8573,4.8096,4.7219,4.6142,4.5741,4.5295,4.4849,4.4687,4.461,4.461,4.461,4.461,4.461,4.461,4.461,4.461,4.461,4.461,4.461,4.461,4.461,4.461,4.461,4.461,4.461,4.461,4.4096,4.378,4.444,4.3552,4.296,4.434,4.4012,4.3735,4.4468,4.4682,4.4748,4.4776,4.4886,4.5005,4.5177,4.5203,4.5247,4.5397,4.5397,4.5397,4.5397,4.5397,4.5397,4.5397,4.5931,4.5983,4.5414,4.5931,4.6224,4.6224,4.6983,4.762,4.8137,4.8361,4.8861,4.9648,4.9648,4.9786,4.3956,4.4334,4.4496,4.4587,4.4473,4.4281,4.4281,4.4127,4.3988,4.3988,4.3778,4.3328,4.254,4.2521,0.0,0.0,0.0,0.0,0.0,0.0,0.0,0.0,0.0,0.0,0.0,0.0,0.0,0.0,0.0,0.0,0.0,4.785,4.8327,4.8604,4.862,4.862,4.862,4.862,4.862,4.862,4.862,4.862,4.862,4.862,4.862,4.8604,4.8327,4.8204,4.8142,4.7188,4.6326,4.5557,4.5295,4.4979,4.461,4.461,4.461,4.461,4.461,4.461,4.461,4.461,4.461,4.461,4.461,4.461,4.461,4.461,4.461,4.461,4.461,4.461,4.461,4.461,4.4273,4.4122,4.4497,4.3967,4.3621,4.4441,4.4232,4.4076,4.4542,4.4709,4.4831,4.4886,4.5049,4.5194,4.5274,4.5274,4.53,4.5397,4.5397,4.5397,4.5397,4.5397,4.5535,4.5845,4.631,4.6527,4.631,4.6776,4.7044,4.7044,4.7741,4.8344,4.8792,4.9103,4.9545,5.0011,5.0011,5.0011,4.3427,4.3859,4.4266,4.4457,4.4389,4.4281,4.4281,4.4166,4.4026,4.4065,4.4026,4.4011,4.3935,4.3441,0.0,0.0,0.0,0.0,0.0,0.0,0.0,0.0,0.0,0.0,0.0,0.0,0.0,0.0,0.0,0.0,0.0,4.7204,4.7881,4.8496,4.8573,4.862,4.862,4.862,4.862,4.862,4.862,4.862,4.862,4.862,4.8573,4.8481,4.7865,4.7527,4.7327,4.6095,4.5541,4.5434,4.4856,4.461,4.461,4.461,4.461,4.461,4.461,4.461,4.461,4.461,4.461,4.461,4.461,4.461,4.461,4.461,4.461,4.461,4.461,4.461,4.461,4.461,4.4616,4.4606,4.4595,4.4658,4.4669,4.4606,4.4666,4.4682,4.4615,4.4737,4.4858,4.5005,4.522,4.5397,4.5397,4.5397,4.5397,4.5397,4.5397,4.5432,4.55,4.55,4.5845,4.6665,4.6769,4.7113,4.7758,4.7793,4.7793,4.7793,4.8517,4.8896,4.8896,4.9648,5.0011,5.0011,5.0011,5.0011,4.2627,4.3257,4.3712,4.36,4.3808,4.4104,4.4243,4.4281,4.4281,4.4435,4.4205,4.3898,4.3518,0.0,0.0,0.0,0.0,0.0,0.0,0.0,0.0,0.0,0.0,0.0,0.0,0.0,0.0,0.0,0.0,0.0,4.5803,4.6942,4.7665,4.7819,4.8343,4.862,4.862,4.862,4.862,0.0,4.862,4.862,4.862,4.862,4.8327,4.7819,4.7665,4.7004,4.6003,4.5711,4.528,4.4825,4.4671,4.461,4.461,4.461,4.461,4.461,4.461,4.461,4.461,4.461,4.461,4.461,4.461,4.461,4.461,4.461,4.461,4.461,4.461,4.461,4.461,4.461,4.4615,4.4611,4.4588,4.5037,4.531,4.4706,4.508,4.528,4.4699,4.4803,4.5049,4.5291,4.5371,4.5397,4.5397,4.5397,4.5397,4.5397,4.5397,4.5656,4.6303,4.6355,4.6665,4.7414,4.8,4.8396,4.8551,4.8551,4.8551,4.8551,4.9327,4.9752,4.9752,4.9924,5.0011,5.0011,5.0011,5.0011,4.1996,4.2529,4.3024,4.3136,4.3716,4.4281,4.4281,4.4358,4.4473,4.4587,4.4435,4.4213,4.3975,0.0,0.0,0.0,0.0,0.0,0.0,0.0,0.0,0.0,0.0,0.0,0.0,0.0,0.0,0.0,0.0,4.5249,4.5572,4.6249,4.6788,4.7111,4.7773,4.8127,4.8127,4.845,4.862,4.862,4.862,4.845,4.8127,4.8127,4.7942,4.7573,4.6927,4.6249,4.5572,4.5234,4.4933,4.461,4.461,4.461,4.461,4.461,4.461,4.461,4.461,4.461,4.461,4.461,4.461,4.461,4.461,4.461,4.461,4.461,4.461,4.461,4.461,4.461,4.461,4.461,4.461,4.4593,4.4588,4.519,4.5599,4.5179,4.5727,4.602,4.5343,4.5152,4.5167,4.5371,4.5397,4.5397,4.5397,4.5397,4.5397,4.5397,4.5742,4.6121,4.6562,4.6941,4.7431,4.8172,4.8586,4.8965,4.9344,4.9361,4.9361,4.9361,4.9804,5.0011,5.0011,5.0011,5.0011,5.0011,5.0011,5.0011,4.1771,4.2103,4.2541,4.3137,4.3907,4.4473,4.4358,4.4473,4.461,4.461,4.461,4.461,0.0,0.0,0.0,0.0,0.0,0.0,0.0,0.0,0.0,0.0,0.0,0.0,0.0,0.0,0.0,0.0,0.0,4.4856,4.5387,4.5526,4.5834,4.6403,4.708,4.7481,4.7604,4.8158,4.8496,4.862,4.8496,4.8142,4.7588,4.7357,4.725,4.7188,4.608,4.5526,4.5372,4.4841,4.461,4.461,4.461,4.461,4.461,4.461,4.461,4.461,4.461,4.461,4.461,4.461,4.461,4.461,4.461,4.461,4.461,4.461,4.461,4.461,4.461,4.461,4.461,4.461,4.461,4.4606,4.4606,4.518,4.571,4.5681,4.631,4.6636,4.6034,4.5648,4.5385,4.5388,4.5397,4.5397,4.5397,4.5518,4.5604,4.5604,4.6337,4.6855,4.6975,4.7562,4.8206,4.8947,4.8999,4.9321,4.9976,5.0011,5.0011,5.0011,5.0011,5.0011,5.0011,5.0011,5.0011,5.0011,5.0011,5.0011,4.2427,4.2698,4.313,4.4128,4.422,4.4166,4.4511,4.4587,4.461,0.0,4.461,0.0,0.0,0.0,0.0,0.0,0.0,0.0,0.0,0.0,0.0,0.0,0.0,0.0,0.0,0.0,0.0,0.0,4.461,4.4656,4.4748,4.5264,4.5634,4.5711,4.6372,4.7004,4.7604,4.7696,4.8035,4.8604,4.8019,4.7696,4.7573,4.6388,4.5849,4.5849,4.5664,4.5249,4.4748,4.4656,4.461,4.461,4.461,4.461,4.461,4.461,4.461,4.461,4.461,4.461,4.461,4.461,4.461,4.461,4.461,4.461,4.461,4.461,4.461,4.461,4.461,4.461,4.461,4.461,4.461,4.4594,4.4615,4.5185,4.569,4.5693,4.6412,4.6765,4.6175,4.6114,4.5986,4.5474,4.5397,4.5397,4.5397,4.6,4.6458,4.6458,4.7131,4.7793,4.8448,4.8586,4.8982,4.9804,4.9855,4.989,5.0011,5.0011,5.0011,5.0011,5.0011,5.0011,5.0011,5.0011,5.0011,5.0011,5.0011,5.0011,4.2441,4.2784,4.3274,4.3753,4.4006,4.4243,4.4534,4.461,4.461,4.461,0.0,0.0,0.0,0.0,0.0,0.0,0.0,0.0,0.0,0.0,0.0,0.0,0.0,0.0,0.0,0.0,0.0,0.0,4.461,4.461,4.461,4.4902,4.5018,4.5018,4.568,4.6172,4.648,4.7219,4.7758,4.8035,4.7357,4.6834,4.6449,4.5865,4.5588,4.5572,4.5187,4.4849,4.461,4.461,4.461,4.461,4.461,4.461,4.461,4.461,4.461,4.461,4.461,4.461,4.461,4.461,4.461,4.461,4.461,4.461,4.461,4.461,4.461,4.461,4.461,4.461,4.461,4.461,4.461,4.461,4.461,4.5179,4.5945,4.6762,4.7376,4.7692,4.7438,4.7225,4.6997,4.6724,4.669,4.669,4.669,4.6983,4.7234,4.7234,4.7862,4.8448,4.8758,4.9206,4.9631,4.9993,5.0011,5.0011,5.0011,5.0011,5.0011,5.0011,5.0011,5.0011,5.0011,5.0011,5.0011,5.0011,5.0011,5.0011,4.2932,4.3225,4.357,4.3608,4.3991,4.4358,4.4534,0.0,4.461,0.0,0.0,0.0,0.0,0.0,0.0,0.0,0.0,0.0,0.0,0.0,0.0,0.0,0.0,0.0,0.0,0.0,0.0,0.0,4.461,4.461,4.461,4.461,4.461,4.461,4.5064,4.5341,4.5341,4.6511,4.7096,4.7096,4.6573,4.608,4.5588,4.5403,4.5341,4.5295,4.4841,4.461,4.461,4.461,4.461,4.461,4.461,4.461,4.461,4.461,4.461,4.461,4.461,4.461,4.461,4.461,4.461,4.461,4.461,4.461,4.461,4.461,4.461,4.461,4.461,4.461,4.461,4.461,4.461,4.4648,4.4821,4.5458,4.6378,4.7704,4.8341,4.8629,4.847,4.8203,4.7913,4.7724,4.7689,4.7689,4.7689,4.7844,4.7965,4.7965,4.8637,4.9085,4.9085,4.9666,5.0011,5.0011,5.0011,5.0011,5.0011,5.0011,5.0011,5.0011,5.0011,5.0011,5.0011,5.0011,5.0011,5.0011,5.0011,5.0011,4.4464,4.4358,4.4297,4.4488,4.4404,4.4358,0.0,0.0,0.0,0.0,0.0,0.0,0.0,0.0,0.0,0.0,0.0,0.0,0.0,0.0,0.0,0.0,0.0,0.0,0.0,0.0,0.0,0.0,4.461,4.461,4.461,4.461,4.461,4.461,4.4618,4.4671,4.4671,4.5341,4.5695,4.5695,4.5649,4.5618,4.5572,4.4964,4.4671,4.4671,4.4641,4.461,4.461,4.461,4.461,4.461,4.461,4.461,4.461,4.461,4.461,4.461,4.461,4.461,4.461,4.461,4.461,4.461,4.461,4.461,4.461,4.461,4.461,4.461,4.461,4.461,4.461,4.461,4.461,4.4783,4.5494,4.6218,4.7001,4.7917,4.8838,4.9257,4.8701,4.8673,4.8499,4.7793,4.7689,4.7689,4.7689,4.8293,4.8741,4.8741,4.9476,4.9942,4.9942,4.9993,5.0011,5.0011,5.0011,5.0011,5.0011,5.0011,5.0011,5.0011,5.0011,5.0011,5.0011,5.0011,5.0011,5.0011,5.0011,5.0011,4.5218,4.4795,4.4358,4.4549,4.4473,4.4358,4.4534,4.461,4.461,0.0,0.0,0.0,0.0,0.0,0.0,0.0,0.0,0.0,0.0,0.0,0.0,0.0,0.0,0.0,0.0,0.0,0.0,0.0,0.0,4.461,4.461,4.461,4.461,4.461,4.4194,4.3978,4.3978,4.3756,4.411,4.4926,4.4533,4.4548,4.4926,4.4733,4.461,4.461,4.461,4.461,4.461,4.461,4.461,4.461,4.461,4.461,4.461,4.461,4.461,4.461,4.461,4.461,4.461,4.461,4.461,4.461,4.461,4.461,4.461,4.461,4.461,4.461,4.461,4.461,4.461,4.461,4.461,4.4783,4.5515,4.5913,4.6324,4.7103,4.8095,4.8897,4.9112,4.9406,4.9493,4.9235,4.9183,4.9183,4.9183,4.9424,4.9505,4.9401,4.9763,4.9935,4.9813,4.9935,5.0011,5.0011,5.0011,4.9935,4.9813,4.9813,4.9772,4.9683,4.9683,4.9742,4.9813,4.9813,4.9755,4.9683,4.9683,4.9742,4.5649,4.5187,4.4711,4.4633,4.4496,4.4435,4.4572,0.0,0.0,0.0,0.0,0.0,0.0,0.0,0.0,0.0,0.0,0.0,0.0,0.0,0.0,0.0,0.0,0.0,0.0,0.0,0.0,0.0,0.0,0.0,4.461,4.461,4.4517,4.4286,4.3408,4.2946,4.2946,4.2494,4.2709,4.3571,4.3608,4.384,4.4286,4.4517,4.461,4.461,4.461,4.461,4.461,4.461,4.461,4.461,4.461,4.461,4.461,4.461,4.461,4.461,4.461,4.461,4.461,4.461,4.461,4.461,4.461,4.461,4.461,4.461,4.461,4.461,4.461,4.461,4.461,4.461,4.461,4.4783,4.5515,4.5697,4.5933,4.6726,4.7704,4.8574,4.9118,4.9619,4.9982,4.9906,4.9889,4.986,4.9848,4.986,4.986,4.9708,4.9889,4.9935,4.9813,4.9935,5.0011,5.0011,4.9935,4.986,4.9708,4.9649,4.959,4.9518,4.9518,4.95,4.953,4.959,4.9607,4.9518,4.9518,4.95,0.0,0.0,0.0,4.481,4.4625,4.461,4.461,0.0,4.461,0.0,0.0,0.0,0.0,0.0,0.0,0.0,0.0,0.0,0.0,0.0,0.0,0.0,0.0,0.0,0.0,0.0,0.0,0.0,4.461,4.461,4.461,4.4594,4.4271,4.3593,4.2279,4.1586,4.1571,4.1571,4.1571,4.1617,4.2961,4.3593,4.3624,4.4302,4.461,4.461,4.461,4.461,4.461,4.461,4.461,4.461,4.461,4.461,4.461,4.461,4.461,4.461,4.461,4.461,4.461,4.461,4.461,4.461,4.461,4.461,4.461,4.461,4.461,4.461,4.461,4.461,4.461,4.461,4.461,4.4783,4.5515,4.566,4.5917,4.6833,4.7737,4.8431,4.857,4.9359,4.9935,4.9708,4.9708,4.9649,4.9518,4.9619,4.9708,4.9708,4.9889,5.0011,5.0011,5.0011,5.0011,5.0011,4.9813,4.9679,4.9679,4.956,4.9488,4.9488,4.9488,4.9398,4.9199,4.9381,4.9488,4.9488,4.9488,4.9398,4.7096,0.0,0.0,0.0,0.0,0.0,4.461,4.461,4.461,0.0,0.0,0.0,0.0,0.0,0.0,0.0,0.0,0.0,0.0,0.0,0.0,0.0,0.0,0.0,0.0,0.0,0.0,0.0,4.461,4.461,4.461,4.4148,4.3593,4.2894,4.2048,4.134,4.0797,4.0782,4.1078,4.1617,4.2463,4.311,4.3624,4.4302,4.461,4.461,4.461,4.461,4.461,4.461,4.461,4.461,4.461,4.461,4.461,4.461,4.461,4.461,4.461,4.461,4.461,4.461,4.461,4.461,4.461,4.461,4.461,4.461,4.461,4.461,4.461,4.461,4.461,4.461,4.461,4.4648,4.4858,4.4896,4.5311,4.6622,4.7138,4.7556,4.8126,4.9026,4.9607,4.956,4.9577,4.9577,4.9619,4.9679,4.9708,4.9708,4.9889,4.9935,4.9784,4.9784,4.9784,4.9784,4.9637,4.9471,4.935,4.929,4.9229,4.9155,4.9155,4.9124,4.9063,4.9199,4.9229,4.9155,4.9229,4.926,4.7681,4.7034,4.6296,4.5726,0.0,0.0,4.4671,4.461,4.461,0.0,0.0,0.0,0.0,0.0,0.0,0.0,0.0,0.0,0.0,0.0,0.0,0.0,0.0,0.0,0.0,4.461,4.461,4.461,4.461,4.461,4.461,4.3679,4.2987,4.2617,4.1663,4.092,4.0489,4.0489,4.0705,4.1155,4.1863,4.2525,4.3202,4.3886,4.4348,4.461,4.461,4.461,4.461,4.461,4.461,4.461,4.461,4.461,4.461,4.461,4.461,4.461,4.461,4.461,4.461,4.461,4.461,4.461,4.461,4.461,4.461,4.461,4.461,4.461,4.461,4.461,4.461,4.461,4.461,4.4685,4.4993,4.5067,4.5216,4.5769,4.6256,4.6662,4.7122,4.8224,4.9012,4.8934,4.9182,4.9411,4.9471,4.956,4.9649,4.9708,4.9813,4.983,4.9708,4.9649,4.9619,4.9619,4.9471,4.932,4.9199,4.9138,4.9094,4.9001,4.9001,4.9001,4.9001,4.9094,4.9094,4.9001,4.9094,4.9277,4.7881,4.7665,4.7311,4.6111,4.5695,0.0,4.4872,4.4671,4.461,4.461,0.0,0.0,0.0,0.0,0.0,0.0,0.0,0.0,0.0,0.0,0.0,0.0,0.0,0.0,4.461,4.461,4.461,4.461,4.461,4.461,4.461,4.3325,4.2602,4.2602,4.1212,4.0489,4.0489,4.0489,4.0489,4.0505,4.1263,4.1955,4.2633,4.3279,4.3978,4.461,4.461,4.461,4.461,4.461,4.461,4.461,4.461,4.461,4.461,4.461,4.461,4.461,4.461,4.461,4.461,4.461,4.461,4.461,4.461,4.461,4.461,4.461,4.461,4.461,4.461,4.4648,4.4723,4.4723,4.4723,4.4896,4.5567,4.5624,4.5421,4.4821,4.5499,4.6099,4.5992,4.7306,4.8272,4.8111,4.8637,4.909,4.9199,4.935,4.95,4.9649,4.9679,4.9679,4.9679,4.9547,4.9458,4.9458,4.929,4.9168,4.9168,4.9063,4.9001,4.9001,4.9001,4.9001,4.9001,4.9001,4.9001,4.9001,4.9086,4.9475,0.0,0.0,0.0,0.0,0.0,0.0,4.5418,4.501,4.461,0.0,0.0,0.0,0.0,0.0,0.0,0.0,0.0,0.0,0.0,0.0,0.0,0.0,0.0,0.0,4.461,4.461,4.461,4.461,4.461,4.461,4.461,4.3325,4.2602,4.2602,4.1212,4.0489,4.0489,4.0489,4.0489,4.0505,4.1263,4.1955,4.2633,4.3279,4.3978,4.461,4.461,4.461,4.461,4.461,4.461,4.461,4.461,4.461,4.461,4.461,4.461,4.461,4.461,4.461,4.461,4.461,4.461,4.461,4.461,4.461,4.461,4.461,4.461,4.461,4.461,4.503,4.5494,4.5494,4.5494,4.5515,4.566,4.5237,4.4971,4.5384,4.6571,4.7339,4.6742,4.7372,4.7982,4.7933,4.8047,4.8416,4.909,4.9229,4.932,4.9518,4.9547,4.9547,4.9547,4.935,4.926,4.926,4.9124,4.9032,4.9032,4.9001,4.9001,4.9001,4.9001,4.9001,4.9001,4.9001,4.9001,4.9018,4.961,4.9949,0.0,0.0,0.0,4.7696,0.0,0.0,0.0,4.5326,4.4987,0.0,0.0,0.0,0.0,0.0,0.0,0.0,0.0,0.0,0.0,0.0,0.0,0.0,0.0,0.0,4.461,4.461,4.461,4.461,4.461,4.461,4.461,4.3325,4.2602,4.2602,4.1212,4.0489,4.0489,4.0489,4.0489,4.0489,4.0858,4.1432,4.2125,4.2786,4.3448,4.4132,4.4471,4.461,4.461,4.461,4.461,4.461,4.461,4.461,4.461,4.461,4.461,4.461,4.461,4.461,4.461,4.461,4.461,4.461,4.461,4.461,4.461,4.461,4.461,4.461,4.461,4.4858,4.5237,4.5588,4.5697,4.5697,4.5697,4.5697,4.5697,4.5697,4.6588,4.7221,4.6846,4.7119,4.7355,4.7355,4.7638,4.808,4.8606,4.8981,4.929,4.9488,4.9411,4.935,4.935,4.9216,4.9077,4.9077,4.9032,4.9001,4.9001,4.9001,4.9001,4.9001,4.9001,4.9001,4.9001,4.9373,4.9543,4.956,4.9915,5.0473,0.0,0.0,0.0,0.0,0.0,4.7281,0.0,0.0,0.0,0.0,0.0,0.0,0.0,0.0,0.0,0.0,0.0,0.0,0.0,0.0,0.0,0.0,0.0,0.0,4.461,4.461,4.461,4.461,4.461,4.461,4.461,4.3325,4.2602,4.2602,4.1212,4.0489,4.0489,4.0489,4.0489,4.0489,4.0489,4.0909,4.1617,4.2294,4.2971,4.3639,4.4317,4.461,4.461,4.461,4.461,4.461,4.461,4.461,4.461,4.461,4.461,4.461,4.461,4.461,4.461,4.461,4.461,4.461,4.461,4.461,4.461,4.461,4.461,4.461,4.461,4.4723,4.4955,4.5567,4.5697,4.5733,4.5877,4.6163,4.6288,4.5969,4.6288,4.6638,4.6793,4.6811,4.6846,4.6983,4.7522,4.7982,4.8224,4.8779,4.9229,4.9398,4.9277,4.9168,4.9168,4.9063,4.9001,4.9001,4.9001,4.9001,4.9001,4.9001,4.9001,4.9001,4.9001,4.9069,4.9221,4.9796,5.0084,5.0101,5.0388,5.115,0.0,0.0,0.0,0.0,4.805,0.0,0.0,0.0,0.0,0.0,0.0,0.0,0.0,0.0,0.0,0.0,0.0,0.0,0.0,0.0,0.0,0.0,0.0,0.0,0.0,4.461,4.461,4.461,4.461,4.461,4.461,4.3325,4.2602,4.2602,4.1212,4.0489,4.0489,4.0489,4.0489,4.0489,4.0489,4.0909,4.1617,4.2294,4.2971,4.3639,4.4317,4.461,4.461,4.461,4.461,4.461,4.461,4.461,4.461,4.461,4.461,4.461,4.461,4.461,4.461,4.461,4.461,4.461,4.461,4.461,4.461,4.461,4.461,4.461,4.461,4.5104,4.5588,4.566,4.5697,4.5877,4.6534,4.5697,4.5216,4.6429,4.6218,4.6005,4.6673,4.6811,4.7017,4.7688,4.7852,4.8129,4.8813,4.897,4.9032,4.9063,4.9032,4.9032,4.9032,4.9001,4.9001,4.9001,4.9001,4.9001,4.9001,4.9001,4.9001,4.9001,4.9001,4.9323,4.9965,5.005,5.0084,5.0118,5.1437,5.2147,0.0,0.0,0.0,0.0,0.0,0.0,4.7342,0.0,4.5972,0.0,0.0,0.0,0.0,0.0,0.0,0.0,4.4425,0.0,0.0,0.0,0.0,0.0,0.0,0.0,0.0,0.0,0.0,0.0,4.461,4.461,4.461,4.3716,4.2987,4.2617,4.1663,4.094,4.0489,4.0489,4.0705,4.1155,4.1155,4.1509,4.2202,4.2863,4.3347,4.3639,4.4317,4.461,4.461,4.461,4.461,4.461,4.461,4.461,4.461,4.461,4.461,4.461,4.461,4.461,4.461,4.461,4.461,4.461,4.461,4.461,4.461,4.461,4.461,4.4685,4.5142,4.5142,4.5274,4.6111,4.602,4.5913,4.6638,4.6324,4.6056,4.6673,4.6182,4.5933,4.6673,4.6811,4.6914,4.7221,4.7622,4.8032,4.8306,4.8736,4.9001,4.9001,4.9001,4.9001,4.9001,4.9001,4.9001,4.9001,4.9001,4.9001,4.9001,4.9001,4.9204,4.9627,4.9644,4.9999,5.0744,5.1166,5.1369,5.1386,5.2012,5.2553,4.862,0.0,0.0,0.0,0.0,0.0,0.0,0.0,0.0,0.0,0.0,0.0,0.0,0.0,0.0,4.4363,0.0,4.4548,0.0,0.0,0.0,0.0,0.0,0.0,0.0,0.0,0.0,0.0,0.0,4.461,4.461,4.3978,4.33,4.2633,4.1955,4.134,4.0832,4.0782,4.117,4.1878,4.1878,4.2125,4.2633,4.3279,4.3608,4.3639,4.4317,4.461,4.461,4.461,4.461,4.461,4.461,4.461,4.461,4.461,4.461,4.461,4.461,4.461,4.461,4.461,4.461,4.461,4.461,4.461,4.461,4.461,4.461,4.4723,4.5237,4.5008,4.4858,4.5949,4.5805,4.5588,4.6324,4.6324,4.6324,4.6708,4.6182,4.5933,4.6673,4.6811,4.6811,4.6811,4.7589,4.8129,4.7917,4.8545,4.9001,4.9001,4.9001,4.9001,4.9001,4.9001,4.9001,4.9001,4.9001,4.9001,4.9001,4.9187,4.9543,5.0084,5.0287,5.076,5.1522,5.2046,5.2418,5.2638,5.2638,5.2942,0.0,0.0,0.0,4.862,0.0,0.0,0.0,0.0,4.6403,0.0,0.0,0.0,0.0,0.0,4.4409,4.3747,4.4194,0.0,0.0,0.0,0.0,0.0,0.0,0.0,0.0,0.0,0.0,0.0,4.461,0.0,4.461,4.3978,4.33,4.2633,4.1955,4.1586,4.1555,4.1555,4.1909,4.2571,4.2571,4.2586,4.2633,4.3279,4.3608,4.3639,4.4317,4.461,4.461,4.461,4.461,4.461,4.461,4.461,4.461,4.461,4.461,4.461,4.461,4.461,4.461,4.461,4.461,4.461,4.461,4.461,4.461,4.461,4.461,4.461,4.461,4.461,4.461,4.4648,4.4648,4.4821,4.5604,4.5163,4.5104,4.6534,4.6182,4.5933,4.6673,4.6811,4.6811,4.6811,4.8048,4.8688,4.7982,4.8545,4.9001,4.9001,4.9001,4.9001,4.9001,4.9001,4.9001,4.9001,4.9001,4.9001,4.9001,4.9678,5.0067,5.0084,5.0811,5.1539,5.2266,5.2283,5.2706,5.3467,5.3467,5.3484,0.0,0.0,4.862,4.862,0.0,0.0,0.0,0.0,0.0,0.0,0.0,0.0,0.0,0.0,4.4548,4.4317,4.4471,4.4533,0.0,0.0,0.0,0.0,0.0,0.0,0.0,0.0,0.0,0.0,4.461,0.0,4.461,4.4394,4.3963,4.3264,4.3017,4.2694,4.2279,4.2263,4.2602,4.3285,4.3285,4.3479,4.3925,4.4178,4.4271,4.4286,4.4517,4.461,4.461,4.461,4.461,4.461,4.461,4.461,4.461,4.461,4.461,4.461,4.461,4.461,4.461,4.461,4.461,4.461,4.461,4.461,4.461,4.461,4.461,4.4723,4.5216,4.4971,4.4723,4.5216,4.5311,4.5384,4.566,4.5877,4.6182,4.6708,4.6182,4.5933,4.6673,4.6811,4.6983,4.7456,4.8386,4.8909,4.8656,4.8861,4.9001,4.9001,4.9001,4.9001,4.9001,4.9001,4.9001,4.9001,4.9458,4.9729,4.9729,5.0439,5.1065,5.1555,5.1809,5.2317,5.3095,5.3095,5.323,5.3501,5.3501,5.3501,4.862,4.862,0.0,4.862,4.862,0.0,4.862,0.0,0.0,0.0,0.0,0.0,0.0,0.0,4.461,4.461,4.461,4.461,0.0,4.461,0.0,0.0,0.0,0.0,0.0,0.0,0.0,4.461,4.461,4.461,0.0,4.461,4.4409,4.3978,4.3963,4.3762,4.331,4.331,4.3525,4.3963,4.3963,4.4194,4.461,4.461,4.461,4.461,4.461,4.461,4.461,4.461,4.461,4.461,4.461,4.461,4.461,4.461,4.461,4.461,4.461,4.461,4.461,4.461,4.461,4.461,4.461,4.461,4.461,4.461,4.461,4.4723,4.5179,4.4971,4.4723,4.5216,4.5311,4.5384,4.5624,4.6076,4.6569,4.7085,4.6795,4.6726,4.7472,4.7572,4.7572,4.7522,4.8354,4.8909,4.8656,4.8829,4.9001,4.9001,4.9001,4.9001,4.9001,4.9238,4.939,4.939,5.0084,5.049,5.049,5.12,5.1826,5.2283,5.2587,5.2993,5.3501,5.3501,5.3501,5.3501,5.3501,5.3501]}]]